Wetterdaten: Sonntag, 03.11.2019
Datum Zeit Temp. A. Feuchte A. Luftdruck Regen Wind Richtung Richtung Sonnenschein ET UV Solar Taupunkt Windchill Windböen
03.11.2019 00:00 6,6 °C 94 % 993,8 hPa 0,0 mm 0,0 km/h (0 Bft) S 171 ° 0 min 0,000 mm 0,0 UV-I 0 W/m² 5,7 °C 6,6 °C 0,0 km/h (0 Bft)
03.11.2019 00:01 6,6 °C 94 % 993,9 hPa 0,0 mm 0,0 km/h (0 Bft) S 171 ° 0 min 0,000 mm 0,0 UV-I 0 W/m² 5,7 °C 6,6 °C 0,0 km/h (0 Bft)
03.11.2019 00:03 6,5 °C 94 % 993,8 hPa 0,0 mm 0,0 km/h (0 Bft) S 171 ° 0 min 0,000 mm 0,0 UV-I 0 W/m² 5,6 °C 6,5 °C 0,0 km/h (0 Bft)
03.11.2019 00:04 6,5 °C 94 % 993,9 hPa 0,0 mm 0,0 km/h (0 Bft) S 171 ° 0 min 0,000 mm 0,0 UV-I 0 W/m² 5,6 °C 6,5 °C 0,0 km/h (0 Bft)
03.11.2019 00:05 6,5 °C 94 % 993,9 hPa 0,0 mm 0,0 km/h (0 Bft) S 171 ° 0 min 0,000 mm 0,0 UV-I 0 W/m² 5,6 °C 6,5 °C 0,0 km/h (0 Bft)
03.11.2019 00:06 6,5 °C 94 % 993,8 hPa 0,0 mm 0,0 km/h (0 Bft) S 171 ° 0 min 0,000 mm 0,0 UV-I 0 W/m² 5,6 °C 6,5 °C 0,0 km/h (0 Bft)
03.11.2019 00:07 6,4 °C 94 % 993,8 hPa 0,0 mm 0,0 km/h (0 Bft) S 171 ° 0 min 0,000 mm 0,0 UV-I 0 W/m² 5,5 °C 6,4 °C 0,0 km/h (0 Bft)
03.11.2019 00:08 6,4 °C 94 % 993,8 hPa 0,0 mm 0,0 km/h (0 Bft) S 171 ° 0 min 0,000 mm 0,0 UV-I 0 W/m² 5,5 °C 6,4 °C 0,0 km/h (0 Bft)
03.11.2019 00:09 6,4 °C 94 % 993,7 hPa 0,0 mm 0,0 km/h (0 Bft) S 171 ° 0 min 0,000 mm 0,0 UV-I 0 W/m² 5,5 °C 6,4 °C 0,0 km/h (0 Bft)
03.11.2019 00:10 6,3 °C 94 % 993,7 hPa 0,0 mm 0,0 km/h (0 Bft) S 171 ° 0 min 0,000 mm 0,0 UV-I 0 W/m² 5,4 °C 6,3 °C 0,0 km/h (0 Bft)
03.11.2019 00:11 6,3 °C 94 % 993,7 hPa 0,0 mm 0,4 km/h (0 Bft) S 171 ° 0 min 0,000 mm 0,0 UV-I 0 W/m² 5,4 °C 6,3 °C 3,2 km/h (1 Bft)
03.11.2019 00:12 6,3 °C 94 % 993,7 hPa 0,0 mm 3,1 km/h (1 Bft) S 171 ° 0 min 0,000 mm 0,0 UV-I 0 W/m² 5,4 °C 6,3 °C 3,2 km/h (1 Bft)
03.11.2019 00:13 6,3 °C 94 % 993,6 hPa 0,0 mm 0,7 km/h (0 Bft) S 171 ° 0 min 0,000 mm 0,0 UV-I 0 W/m² 5,4 °C 6,3 °C 3,2 km/h (1 Bft)
03.11.2019 00:14 6,3 °C 94 % 993,6 hPa 0,0 mm 0,0 km/h (0 Bft) S 171 ° 0 min 0,000 mm 0,0 UV-I 0 W/m² 5,4 °C 6,3 °C 0,0 km/h (0 Bft)
03.11.2019 00:15 6,3 °C 94 % 993,6 hPa 0,0 mm 0,0 km/h (0 Bft) S 171 ° 0 min 0,000 mm 0,0 UV-I 0 W/m² 5,4 °C 6,3 °C 0,0 km/h (0 Bft)
03.11.2019 00:16 6,3 °C 94 % 993,6 hPa 0,0 mm 0,0 km/h (0 Bft) S 171 ° 0 min 0,000 mm 0,0 UV-I 0 W/m² 5,4 °C 6,3 °C 0,0 km/h (0 Bft)
03.11.2019 00:17 6,3 °C 94 % 993,6 hPa 0,0 mm 0,0 km/h (0 Bft) S 171 ° 0 min 0,000 mm 0,0 UV-I 0 W/m² 5,4 °C 6,3 °C 0,0 km/h (0 Bft)
03.11.2019 00:18 6,3 °C 94 % 993,6 hPa 0,0 mm 0,0 km/h (0 Bft) S 171 ° 0 min 0,000 mm 0,0 UV-I 0 W/m² 5,4 °C 6,3 °C 0,0 km/h (0 Bft)
03.11.2019 00:19 6,3 °C 94 % 993,6 hPa 0,0 mm 0,0 km/h (0 Bft) S 171 ° 0 min 0,000 mm 0,0 UV-I 0 W/m² 5,4 °C 6,3 °C 0,0 km/h (0 Bft)
03.11.2019 00:20 6,3 °C 94 % 993,6 hPa 0,0 mm 0,0 km/h (0 Bft) S 171 ° 0 min 0,000 mm 0,0 UV-I 0 W/m² 5,4 °C 6,3 °C 0,0 km/h (0 Bft)
03.11.2019 00:21 6,3 °C 94 % 993,6 hPa 0,0 mm 0,0 km/h (0 Bft) S 171 ° 0 min 0,000 mm 0,0 UV-I 0 W/m² 5,4 °C 6,3 °C 0,0 km/h (0 Bft)
03.11.2019 00:22 6,3 °C 94 % 993,6 hPa 0,0 mm 0,0 km/h (0 Bft) S 171 ° 0 min 0,000 mm 0,0 UV-I 0 W/m² 5,4 °C 6,3 °C 0,0 km/h (0 Bft)
03.11.2019 00:23 6,3 °C 94 % 993,6 hPa 0,0 mm 0,0 km/h (0 Bft) S 171 ° 0 min 0,000 mm 0,0 UV-I 0 W/m² 5,4 °C 6,3 °C 0,0 km/h (0 Bft)
03.11.2019 00:24 6,2 °C 94 % 993,7 hPa 0,0 mm 0,0 km/h (0 Bft) S 171 ° 0 min 0,000 mm 0,0 UV-I 0 W/m² 5,3 °C 6,2 °C 0,0 km/h (0 Bft)
03.11.2019 00:25 6,2 °C 94 % 993,7 hPa 0,0 mm 0,0 km/h (0 Bft) S 171 ° 0 min 0,000 mm 0,0 UV-I 0 W/m² 5,3 °C 6,2 °C 0,0 km/h (0 Bft)
03.11.2019 00:26 6,2 °C 94 % 993,7 hPa 0,0 mm 0,0 km/h (0 Bft) S 171 ° 0 min 0,000 mm 0,0 UV-I 0 W/m² 5,3 °C 6,2 °C 0,0 km/h (0 Bft)
03.11.2019 00:27 6,2 °C 94 % 993,6 hPa 0,0 mm 0,0 km/h (0 Bft) S 171 ° 0 min 0,000 mm 0,0 UV-I 0 W/m² 5,3 °C 6,2 °C 0,0 km/h (0 Bft)
03.11.2019 00:28 6,2 °C 94 % 993,6 hPa 0,0 mm 0,0 km/h (0 Bft) S 171 ° 0 min 0,000 mm 0,0 UV-I 0 W/m² 5,3 °C 6,2 °C 0,0 km/h (0 Bft)
03.11.2019 00:29 6,2 °C 94 % 993,7 hPa 0,0 mm 0,0 km/h (0 Bft) S 171 ° 0 min 0,000 mm 0,0 UV-I 0 W/m² 5,3 °C 6,2 °C 0,0 km/h (0 Bft)
03.11.2019 00:30 6,2 °C 94 % 993,7 hPa 0,0 mm 0,0 km/h (0 Bft) S 171 ° 0 min 0,000 mm 0,0 UV-I 0 W/m² 5,3 °C 6,2 °C 0,0 km/h (0 Bft)
03.11.2019 00:31 6,2 °C 94 % 993,7 hPa 0,0 mm 0,0 km/h (0 Bft) S 171 ° 0 min 0,000 mm 0,0 UV-I 0 W/m² 5,3 °C 6,2 °C 0,0 km/h (0 Bft)
03.11.2019 00:32 6,1 °C 94 % 993,7 hPa 0,0 mm 0,0 km/h (0 Bft) S 171 ° 0 min 0,000 mm 0,0 UV-I 0 W/m² 5,2 °C 6,1 °C 0,0 km/h (0 Bft)
03.11.2019 00:33 6,1 °C 94 % 993,7 hPa 0,0 mm 0,0 km/h (0 Bft) S 171 ° 0 min 0,000 mm 0,0 UV-I 0 W/m² 5,2 °C 6,1 °C 0,0 km/h (0 Bft)
03.11.2019 00:34 6,1 °C 94 % 993,7 hPa 0,0 mm 0,0 km/h (0 Bft) S 171 ° 0 min 0,000 mm 0,0 UV-I 0 W/m² 5,2 °C 6,1 °C 0,0 km/h (0 Bft)
03.11.2019 00:35 6,1 °C 94 % 993,6 hPa 0,0 mm 0,0 km/h (0 Bft) S 171 ° 0 min 0,000 mm 0,0 UV-I 0 W/m² 5,2 °C 6,1 °C 0,0 km/h (0 Bft)
03.11.2019 00:36 6,1 °C 94 % 993,6 hPa 0,0 mm 0,0 km/h (0 Bft) S 171 ° 0 min 0,000 mm 0,0 UV-I 0 W/m² 5,2 °C 6,1 °C 0,0 km/h (0 Bft)
03.11.2019 00:37 6,1 °C 94 % 993,7 hPa 0,0 mm 2,5 km/h (1 Bft) S 171 ° 0 min 0,000 mm 0,0 UV-I 0 W/m² 5,2 °C 6,1 °C 6,4 km/h (2 Bft)
03.11.2019 00:38 6,0 °C 94 % 993,7 hPa 0,0 mm 1,1 km/h (1 Bft) S 171 ° 0 min 0,000 mm 0,0 UV-I 0 W/m² 5,1 °C 6,0 °C 3,2 km/h (1 Bft)
03.11.2019 00:39 5,9 °C 94 % 993,7 hPa 0,0 mm 0,0 km/h (0 Bft) S 171 ° 0 min 0,000 mm 0,0 UV-I 0 W/m² 5,0 °C 5,9 °C 0,0 km/h (0 Bft)
03.11.2019 00:40 5,9 °C 94 % 993,6 hPa 0,0 mm 0,0 km/h (0 Bft) S 171 ° 0 min 0,000 mm 0,0 UV-I 0 W/m² 5,0 °C 5,9 °C 0,0 km/h (0 Bft)
03.11.2019 00:41 5,9 °C 94 % 993,6 hPa 0,0 mm 0,0 km/h (0 Bft) S 171 ° 0 min 0,000 mm 0,0 UV-I 0 W/m² 5,0 °C 5,9 °C 0,0 km/h (0 Bft)
03.11.2019 00:42 5,9 °C 94 % 993,6 hPa 0,0 mm 0,0 km/h (0 Bft) S 171 ° 0 min 0,000 mm 0,0 UV-I 0 W/m² 5,0 °C 5,9 °C 0,0 km/h (0 Bft)
03.11.2019 00:43 5,9 °C 94 % 993,6 hPa 0,0 mm 0,0 km/h (0 Bft) S 171 ° 0 min 0,000 mm 0,0 UV-I 0 W/m² 5,0 °C 5,9 °C 0,0 km/h (0 Bft)
03.11.2019 00:44 5,9 °C 94 % 993,6 hPa 0,0 mm 0,0 km/h (0 Bft) S 171 ° 0 min 0,000 mm 0,0 UV-I 0 W/m² 5,0 °C 5,9 °C 0,0 km/h (0 Bft)
03.11.2019 00:45 5,9 °C 94 % 993,5 hPa 0,0 mm 0,0 km/h (0 Bft) S 171 ° 0 min 0,000 mm 0,0 UV-I 0 W/m² 5,0 °C 5,9 °C 0,0 km/h (0 Bft)
03.11.2019 00:46 5,9 °C 94 % 993,5 hPa 0,0 mm 0,0 km/h (0 Bft) S 171 ° 0 min 0,000 mm 0,0 UV-I 0 W/m² 5,0 °C 5,9 °C 0,0 km/h (0 Bft)
03.11.2019 00:47 5,9 °C 94 % 993,4 hPa 0,0 mm 0,0 km/h (0 Bft) S 171 ° 0 min 0,000 mm 0,0 UV-I 0 W/m² 5,0 °C 5,9 °C 0,0 km/h (0 Bft)
03.11.2019 00:48 5,8 °C 94 % 993,5 hPa 0,0 mm 0,0 km/h (0 Bft) S 171 ° 0 min 0,000 mm 0,0 UV-I 0 W/m² 4,9 °C 5,8 °C 0,0 km/h (0 Bft)
03.11.2019 00:49 5,8 °C 94 % 993,5 hPa 0,0 mm 0,0 km/h (0 Bft) S 171 ° 0 min 0,000 mm 0,0 UV-I 0 W/m² 4,9 °C 5,8 °C 0,0 km/h (0 Bft)
03.11.2019 00:50 5,8 °C 94 % 993,5 hPa 0,0 mm 0,0 km/h (0 Bft) S 171 ° 0 min 0,000 mm 0,0 UV-I 0 W/m² 4,9 °C 5,8 °C 0,0 km/h (0 Bft)
03.11.2019 00:51 5,8 °C 94 % 993,5 hPa 0,0 mm 0,0 km/h (0 Bft) S 171 ° 0 min 0,000 mm 0,0 UV-I 0 W/m² 4,9 °C 5,8 °C 0,0 km/h (0 Bft)
03.11.2019 00:52 5,8 °C 94 % 993,4 hPa 0,0 mm 0,0 km/h (0 Bft) S 171 ° 0 min 0,000 mm 0,0 UV-I 0 W/m² 4,9 °C 5,8 °C 0,0 km/h (0 Bft)
03.11.2019 00:53 5,8 °C 94 % 993,4 hPa 0,0 mm 0,0 km/h (0 Bft) S 171 ° 0 min 0,000 mm 0,0 UV-I 0 W/m² 4,9 °C 5,8 °C 0,0 km/h (0 Bft)
03.11.2019 00:54 5,8 °C 94 % 993,4 hPa 0,0 mm 0,0 km/h (0 Bft) S 171 ° 0 min 0,000 mm 0,0 UV-I 0 W/m² 4,9 °C 5,8 °C 0,0 km/h (0 Bft)
03.11.2019 00:55 5,7 °C 94 % 993,4 hPa 0,0 mm 5,7 km/h (1 Bft) S-SW 206 ° 0 min 0,000 mm 0,0 UV-I 0 W/m² 4,8 °C 4,6 °C 8,0 km/h (2 Bft)
03.11.2019 00:56 5,7 °C 94 % 993,4 hPa 0,0 mm 5,8 km/h (2 Bft) S-SW 208 ° 0 min 0,000 mm 0,0 UV-I 0 W/m² 4,8 °C 4,6 °C 6,4 km/h (2 Bft)
03.11.2019 00:57 5,8 °C 94 % 993,5 hPa 0,0 mm 5,3 km/h (1 Bft) S 191 ° 0 min 0,000 mm 0,0 UV-I 0 W/m² 4,9 °C 4,9 °C 8,0 km/h (2 Bft)
03.11.2019 00:58 5,8 °C 94 % 993,5 hPa 0,0 mm 3,5 km/h (1 Bft) S 191 ° 0 min 0,000 mm 0,0 UV-I 0 W/m² 4,9 °C 5,8 °C 4,8 km/h (1 Bft)
03.11.2019 00:59 5,8 °C 94 % 993,5 hPa 0,0 mm 1,7 km/h (1 Bft) S 191 ° 0 min 0,000 mm 0,0 UV-I 0 W/m² 4,9 °C 5,8 °C 3,2 km/h (1 Bft)
03.11.2019 01:00 5,8 °C 94 % 993,5 hPa 0,0 mm 1,3 km/h (1 Bft) S 191 ° 0 min 0,000 mm 0,0 UV-I 0 W/m² 4,9 °C 5,8 °C 3,2 km/h (1 Bft)
03.11.2019 01:01 5,8 °C 94 % 993,4 hPa 0,0 mm 2,6 km/h (1 Bft) S 190 ° 0 min 0,000 mm 0,0 UV-I 0 W/m² 4,9 °C 5,8 °C 3,2 km/h (1 Bft)
03.11.2019 01:02 5,8 °C 94 % 993,4 hPa 0,0 mm 3,6 km/h (1 Bft) S 190 ° 0 min 0,000 mm 0,0 UV-I 0 W/m² 4,9 °C 5,8 °C 4,8 km/h (1 Bft)
03.11.2019 01:03 5,8 °C 95 % 993,4 hPa 0,0 mm 4,0 km/h (1 Bft) S 190 ° 0 min 0,000 mm 0,0 UV-I 0 W/m² 5,1 °C 5,8 °C 4,8 km/h (1 Bft)
03.11.2019 01:04 5,9 °C 95 % 993,4 hPa 0,0 mm 2,7 km/h (1 Bft) S 189 ° 0 min 0,000 mm 0,0 UV-I 0 W/m² 5,2 °C 5,9 °C 4,8 km/h (1 Bft)
03.11.2019 01:05 5,8 °C 94 % 993,4 hPa 0,0 mm 1,8 km/h (1 Bft) S 189 ° 0 min 0,000 mm 0,0 UV-I 0 W/m² 4,9 °C 5,8 °C 3,2 km/h (1 Bft)
03.11.2019 01:06 5,9 °C 94 % 993,3 hPa 0,0 mm 0,0 km/h (0 Bft) S 189 ° 0 min 0,000 mm 0,0 UV-I 0 W/m² 5,0 °C 5,9 °C 0,0 km/h (0 Bft)
03.11.2019 01:07 5,9 °C 94 % 993,3 hPa 0,0 mm 0,0 km/h (0 Bft) S 189 ° 0 min 0,000 mm 0,0 UV-I 0 W/m² 5,0 °C 5,9 °C 0,0 km/h (0 Bft)
03.11.2019 01:08 5,9 °C 94 % 993,3 hPa 0,0 mm 0,1 km/h (0 Bft) S 189 ° 0 min 0,000 mm 0,0 UV-I 0 W/m² 5,0 °C 5,9 °C 1,6 km/h (1 Bft)
03.11.2019 01:09 5,9 °C 94 % 993,3 hPa 0,0 mm 4,2 km/h (1 Bft) S-SW 205 ° 0 min 0,000 mm 0,0 UV-I 0 W/m² 5,0 °C 5,9 °C 4,8 km/h (1 Bft)
03.11.2019 01:10 5,9 °C 94 % 993,4 hPa 0,0 mm 5,6 km/h (1 Bft) SW 217 ° 0 min 0,000 mm 0,0 UV-I 0 W/m² 5,0 °C 4,9 °C 9,7 km/h (2 Bft)
03.11.2019 01:11 5,9 °C 95 % 993,4 hPa 0,0 mm 1,9 km/h (1 Bft) S-SW 210 ° 0 min 0,000 mm 0,0 UV-I 0 W/m² 5,2 °C 5,9 °C 4,8 km/h (1 Bft)
03.11.2019 01:12 5,9 °C 95 % 993,4 hPa 0,0 mm 0,0 km/h (0 Bft) S-SW 210 ° 0 min 0,000 mm 0,0 UV-I 0 W/m² 5,2 °C 5,9 °C 0,0 km/h (0 Bft)
03.11.2019 01:13 5,9 °C 95 % 993,3 hPa 0,0 mm 0,0 km/h (0 Bft) S-SW 210 ° 0 min 0,000 mm 0,0 UV-I 0 W/m² 5,2 °C 5,9 °C 0,0 km/h (0 Bft)
03.11.2019 01:14 5,9 °C 95 % 993,3 hPa 0,0 mm 0,0 km/h (0 Bft) S-SW 210 ° 0 min 0,000 mm 0,0 UV-I 0 W/m² 5,2 °C 5,9 °C 0,0 km/h (0 Bft)
03.11.2019 01:15 5,9 °C 95 % 993,3 hPa 0,0 mm 0,0 km/h (0 Bft) S-SW 210 ° 0 min 0,000 mm 0,0 UV-I 0 W/m² 5,2 °C 5,9 °C 0,0 km/h (0 Bft)
03.11.2019 01:16 5,9 °C 94 % 993,3 hPa 0,0 mm 1,6 km/h (1 Bft) S-SW 210 ° 0 min 0,000 mm 0,0 UV-I 0 W/m² 5,0 °C 5,9 °C 4,8 km/h (1 Bft)
03.11.2019 01:17 5,9 °C 94 % 993,3 hPa 0,0 mm 2,6 km/h (1 Bft) S-SW 210 ° 0 min 0,000 mm 0,0 UV-I 0 W/m² 5,0 °C 5,9 °C 4,8 km/h (1 Bft)
03.11.2019 01:18 5,9 °C 94 % 993,3 hPa 0,0 mm 5,7 km/h (1 Bft) S-SW 202 ° 0 min 0,000 mm 0,0 UV-I 0 W/m² 5,0 °C 4,9 °C 8,0 km/h (2 Bft)
03.11.2019 01:19 5,9 °C 94 % 993,4 hPa 0,0 mm 3,4 km/h (1 Bft) S-SW 200 ° 0 min 0,000 mm 0,0 UV-I 0 W/m² 5,0 °C 5,9 °C 6,4 km/h (2 Bft)
03.11.2019 01:20 5,9 °C 94 % 993,4 hPa 0,0 mm 3,7 km/h (1 Bft) S-SW 204 ° 0 min 0,000 mm 0,0 UV-I 0 W/m² 5,0 °C 5,9 °C 6,4 km/h (2 Bft)
03.11.2019 01:21 5,9 °C 94 % 993,4 hPa 0,0 mm 2,2 km/h (1 Bft) S-SW 204 ° 0 min 0,000 mm 0,0 UV-I 0 W/m² 5,0 °C 5,9 °C 3,2 km/h (1 Bft)
03.11.2019 01:22 5,9 °C 94 % 993,4 hPa 0,0 mm 1,9 km/h (1 Bft) S-SW 204 ° 0 min 0,000 mm 0,0 UV-I 0 W/m² 5,0 °C 5,9 °C 3,2 km/h (1 Bft)
03.11.2019 01:23 5,8 °C 94 % 993,4 hPa 0,0 mm 2,6 km/h (1 Bft) S-SW 200 ° 0 min 0,000 mm 0,0 UV-I 0 W/m² 4,9 °C 5,8 °C 4,8 km/h (1 Bft)
03.11.2019 01:24 5,8 °C 94 % 993,5 hPa 0,0 mm 3,6 km/h (1 Bft) S-SW 199 ° 0 min 0,000 mm 0,0 UV-I 0 W/m² 4,9 °C 5,8 °C 6,4 km/h (2 Bft)
03.11.2019 01:25 5,8 °C 95 % 993,5 hPa 0,0 mm 3,1 km/h (1 Bft) S-SW 199 ° 0 min 0,000 mm 0,0 UV-I 0 W/m² 5,1 °C 5,8 °C 4,8 km/h (1 Bft)
03.11.2019 01:26 5,9 °C 95 % 993,5 hPa 0,0 mm 1,7 km/h (1 Bft) S-SW 199 ° 0 min 0,000 mm 0,0 UV-I 0 W/m² 5,2 °C 5,9 °C 3,2 km/h (1 Bft)
03.11.2019 01:27 5,8 °C 94 % 993,4 hPa 0,0 mm 0,5 km/h (0 Bft) S-SW 199 ° 0 min 0,000 mm 0,0 UV-I 0 W/m² 4,9 °C 5,8 °C 1,6 km/h (1 Bft)
03.11.2019 01:28 5,8 °C 94 % 993,4 hPa 0,0 mm 1,9 km/h (1 Bft) S-SW 199 ° 0 min 0,000 mm 0,0 UV-I 0 W/m² 4,9 °C 5,8 °C 3,2 km/h (1 Bft)
03.11.2019 01:29 5,8 °C 95 % 993,4 hPa 0,0 mm 3,9 km/h (1 Bft) S-SW 198 ° 0 min 0,000 mm 0,0 UV-I 0 W/m² 5,1 °C 5,8 °C 4,8 km/h (1 Bft)
03.11.2019 01:30 5,8 °C 95 % 993,4 hPa 0,0 mm 2,3 km/h (1 Bft) S-SW 198 ° 0 min 0,000 mm 0,0 UV-I 0 W/m² 5,1 °C 5,8 °C 3,2 km/h (1 Bft)
03.11.2019 01:31 5,8 °C 95 % 993,3 hPa 0,0 mm 0,5 km/h (0 Bft) S-SW 198 ° 0 min 0,000 mm 0,0 UV-I 0 W/m² 5,1 °C 5,8 °C 1,6 km/h (1 Bft)
03.11.2019 01:32 5,8 °C 95 % 993,3 hPa 0,0 mm 0,3 km/h (0 Bft) S-SW 199 ° 0 min 0,000 mm 0,0 UV-I 0 W/m² 5,1 °C 5,8 °C 1,6 km/h (1 Bft)
03.11.2019 01:33 5,8 °C 95 % 993,3 hPa 0,0 mm 0,5 km/h (0 Bft) S-SW 199 ° 0 min 0,000 mm 0,0 UV-I 0 W/m² 5,1 °C 5,8 °C 1,6 km/h (1 Bft)
03.11.2019 01:34 5,8 °C 95 % 993,3 hPa 0,0 mm 0,0 km/h (0 Bft) S-SW 199 ° 0 min 0,000 mm 0,0 UV-I 0 W/m² 5,1 °C 5,8 °C 0,0 km/h (0 Bft)
03.11.2019 01:35 5,8 °C 95 % 993,2 hPa 0,0 mm 0,0 km/h (0 Bft) S-SW 199 ° 0 min 0,000 mm 0,0 UV-I 0 W/m² 5,1 °C 5,8 °C 0,0 km/h (0 Bft)
03.11.2019 01:36 5,8 °C 95 % 993,2 hPa 0,0 mm 0,9 km/h (0 Bft) S-SW 199 ° 0 min 0,000 mm 0,0 UV-I 0 W/m² 5,1 °C 5,8 °C 1,6 km/h (1 Bft)
03.11.2019 01:37 5,8 °C 94 % 993,3 hPa 0,0 mm 0,3 km/h (0 Bft) S-SW 199 ° 0 min 0,000 mm 0,0 UV-I 0 W/m² 4,9 °C 5,8 °C 1,6 km/h (1 Bft)
03.11.2019 01:38 5,8 °C 95 % 993,3 hPa 0,0 mm 0,0 km/h (0 Bft) S-SW 199 ° 0 min 0,000 mm 0,0 UV-I 0 W/m² 5,1 °C 5,8 °C 0,0 km/h (0 Bft)
03.11.2019 01:39 5,8 °C 95 % 993,3 hPa 0,0 mm 0,0 km/h (0 Bft) S-SW 199 ° 0 min 0,000 mm 0,0 UV-I 0 W/m² 5,1 °C 5,8 °C 0,0 km/h (0 Bft)
03.11.2019 01:40 5,8 °C 95 % 993,2 hPa 0,0 mm 0,0 km/h (0 Bft) S-SW 199 ° 0 min 0,000 mm 0,0 UV-I 0 W/m² 5,1 °C 5,8 °C 0,0 km/h (0 Bft)
03.11.2019 01:41 5,8 °C 95 % 993,2 hPa 0,0 mm 0,0 km/h (0 Bft) S-SW 199 ° 0 min 0,000 mm 0,0 UV-I 0 W/m² 5,1 °C 5,8 °C 0,0 km/h (0 Bft)
03.11.2019 01:42 5,8 °C 95 % 993,2 hPa 0,0 mm 0,0 km/h (0 Bft) S-SW 199 ° 0 min 0,000 mm 0,0 UV-I 0 W/m² 5,1 °C 5,8 °C 0,0 km/h (0 Bft)
03.11.2019 01:43 5,8 °C 95 % 993,2 hPa 0,0 mm 0,0 km/h (0 Bft) S-SW 199 ° 0 min 0,000 mm 0,0 UV-I 0 W/m² 5,1 °C 5,8 °C 0,0 km/h (0 Bft)
03.11.2019 01:44 5,8 °C 94 % 993,2 hPa 0,0 mm 0,0 km/h (0 Bft) S-SW 199 ° 0 min 0,000 mm 0,0 UV-I 0 W/m² 4,9 °C 5,8 °C 0,0 km/h (0 Bft)
03.11.2019 01:45 5,8 °C 94 % 993,2 hPa 0,0 mm 0,0 km/h (0 Bft) S-SW 199 ° 0 min 0,000 mm 0,0 UV-I 0 W/m² 4,9 °C 5,8 °C 0,0 km/h (0 Bft)
03.11.2019 01:46 5,8 °C 94 % 993,2 hPa 0,0 mm 0,0 km/h (0 Bft) S-SW 199 ° 0 min 0,000 mm 0,0 UV-I 0 W/m² 4,9 °C 5,8 °C 0,0 km/h (0 Bft)
03.11.2019 01:47 5,8 °C 94 % 993,2 hPa 0,0 mm 0,0 km/h (0 Bft) S-SW 199 ° 0 min 0,000 mm 0,0 UV-I 0 W/m² 4,9 °C 5,8 °C 0,0 km/h (0 Bft)
03.11.2019 01:48 5,8 °C 94 % 993,3 hPa 0,0 mm 0,0 km/h (0 Bft) S-SW 199 ° 0 min 0,000 mm 0,0 UV-I 0 W/m² 4,9 °C 5,8 °C 0,0 km/h (0 Bft)
03.11.2019 01:49 5,8 °C 94 % 993,3 hPa 0,0 mm 1,0 km/h (0 Bft) S-SW 199 ° 0 min 0,000 mm 0,0 UV-I 0 W/m² 4,9 °C 5,8 °C 3,2 km/h (1 Bft)
03.11.2019 01:50 5,8 °C 94 % 993,2 hPa 0,0 mm 2,3 km/h (1 Bft) S-SW 199 ° 0 min 0,000 mm 0,0 UV-I 0 W/m² 4,9 °C 5,8 °C 3,2 km/h (1 Bft)
03.11.2019 01:51 5,8 °C 94 % 993,2 hPa 0,0 mm 0,9 km/h (0 Bft) S-SW 199 ° 0 min 0,000 mm 0,0 UV-I 0 W/m² 4,9 °C 5,8 °C 3,2 km/h (1 Bft)
03.11.2019 01:52 5,7 °C 94 % 993,2 hPa 0,0 mm 0,0 km/h (0 Bft) S-SW 199 ° 0 min 0,000 mm 0,0 UV-I 0 W/m² 4,8 °C 5,7 °C 0,0 km/h (0 Bft)
03.11.2019 01:53 5,8 °C 94 % 993,2 hPa 0,0 mm 0,0 km/h (0 Bft) S-SW 199 ° 0 min 0,000 mm 0,0 UV-I 0 W/m² 4,9 °C 5,8 °C 0,0 km/h (0 Bft)
03.11.2019 01:54 5,8 °C 94 % 993,2 hPa 0,0 mm 1,0 km/h (0 Bft) S-SW 199 ° 0 min 0,000 mm 0,0 UV-I 0 W/m² 4,9 °C 5,8 °C 3,2 km/h (1 Bft)
03.11.2019 01:55 5,8 °C 95 % 993,2 hPa 0,0 mm 5,7 km/h (1 Bft) S-SW 199 ° 0 min 0,000 mm 0,0 UV-I 0 W/m² 5,1 °C 4,7 °C 6,4 km/h (2 Bft)
03.11.2019 01:56 5,8 °C 95 % 993,2 hPa 0,0 mm 5,3 km/h (1 Bft) S-SW 199 ° 0 min 0,000 mm 0,0 UV-I 0 W/m² 5,1 °C 4,9 °C 8,0 km/h (2 Bft)
03.11.2019 01:57 5,8 °C 95 % 993,2 hPa 0,0 mm 1,9 km/h (1 Bft) S-SW 199 ° 0 min 0,000 mm 0,0 UV-I 0 W/m² 5,1 °C 5,8 °C 3,2 km/h (1 Bft)
03.11.2019 01:58 5,8 °C 95 % 993,2 hPa 0,0 mm 0,2 km/h (0 Bft) S-SW 199 ° 0 min 0,000 mm 0,0 UV-I 0 W/m² 5,1 °C 5,8 °C 1,6 km/h (1 Bft)
03.11.2019 01:59 5,8 °C 95 % 993,2 hPa 0,0 mm 0,0 km/h (0 Bft) S-SW 199 ° 0 min 0,000 mm 0,0 UV-I 0 W/m² 5,1 °C 5,8 °C 0,0 km/h (0 Bft)
03.11.2019 02:00 5,8 °C 95 % 993,2 hPa 0,0 mm 0,0 km/h (0 Bft) S-SW 199 ° 0 min 0,000 mm 0,0 UV-I 0 W/m² 5,1 °C 5,8 °C 0,0 km/h (0 Bft)
03.11.2019 02:01 5,8 °C 95 % 993,1 hPa 0,0 mm 0,0 km/h (0 Bft) S-SW 199 ° 0 min 0,000 mm 0,0 UV-I 0 W/m² 5,1 °C 5,8 °C 0,0 km/h (0 Bft)
03.11.2019 02:02 5,8 °C 95 % 993,1 hPa 0,0 mm 0,5 km/h (0 Bft) S-SW 199 ° 0 min 0,000 mm 0,0 UV-I 0 W/m² 5,1 °C 5,8 °C 1,6 km/h (1 Bft)
03.11.2019 02:03 5,8 °C 95 % 993,1 hPa 0,0 mm 3,7 km/h (1 Bft) S-SW 199 ° 0 min 0,000 mm 0,0 UV-I 0 W/m² 5,1 °C 5,8 °C 8,0 km/h (2 Bft)
03.11.2019 02:04 5,9 °C 95 % 993,1 hPa 0,0 mm 5,8 km/h (2 Bft) S-SW 199 ° 0 min 0,000 mm 0,0 UV-I 0 W/m² 5,2 °C 4,8 °C 8,0 km/h (2 Bft)
03.11.2019 02:05 6,0 °C 95 % 993,1 hPa 0,0 mm 2,2 km/h (1 Bft) S-SW 199 ° 0 min 0,000 mm 0,0 UV-I 0 W/m² 5,3 °C 6,0 °C 3,2 km/h (1 Bft)
03.11.2019 02:06 6,1 °C 95 % 993,1 hPa 0,0 mm 2,0 km/h (1 Bft) SW 217 ° 0 min 0,000 mm 0,0 UV-I 0 W/m² 5,4 °C 6,1 °C 4,8 km/h (1 Bft)
03.11.2019 02:07 6,1 °C 95 % 993,1 hPa 0,0 mm 1,2 km/h (1 Bft) SW 217 ° 0 min 0,000 mm 0,0 UV-I 0 W/m² 5,4 °C 6,1 °C 3,2 km/h (1 Bft)
03.11.2019 02:08 6,1 °C 95 % 993,2 hPa 0,0 mm 1,8 km/h (1 Bft) SW 217 ° 0 min 0,000 mm 0,0 UV-I 0 W/m² 5,4 °C 6,1 °C 3,2 km/h (1 Bft)
03.11.2019 02:09 6,1 °C 95 % 993,2 hPa 0,0 mm 1,6 km/h (1 Bft) SW 217 ° 0 min 0,000 mm 0,0 UV-I 0 W/m² 5,4 °C 6,1 °C 3,2 km/h (1 Bft)
03.11.2019 02:10 6,1 °C 95 % 993,1 hPa 0,0 mm 2,3 km/h (1 Bft) SW 217 ° 0 min 0,000 mm 0,0 UV-I 0 W/m² 5,4 °C 6,1 °C 4,8 km/h (1 Bft)
03.11.2019 02:11 6,1 °C 95 % 993,1 hPa 0,0 mm 0,4 km/h (0 Bft) SW 217 ° 0 min 0,000 mm 0,0 UV-I 0 W/m² 5,4 °C 6,1 °C 1,6 km/h (1 Bft)
03.11.2019 02:12 6,1 °C 95 % 993,2 hPa 0,0 mm 0,0 km/h (0 Bft) SW 217 ° 0 min 0,000 mm 0,0 UV-I 0 W/m² 5,4 °C 6,1 °C 0,0 km/h (0 Bft)
03.11.2019 02:13 6,1 °C 95 % 993,2 hPa 0,0 mm 0,0 km/h (0 Bft) SW 217 ° 0 min 0,000 mm 0,0 UV-I 0 W/m² 5,4 °C 6,1 °C 0,0 km/h (0 Bft)
03.11.2019 02:14 6,1 °C 95 % 993,3 hPa 0,0 mm 0,0 km/h (0 Bft) SW 217 ° 0 min 0,000 mm 0,0 UV-I 0 W/m² 5,4 °C 6,1 °C 0,0 km/h (0 Bft)
03.11.2019 02:15 6,1 °C 95 % 993,3 hPa 0,0 mm 0,0 km/h (0 Bft) SW 217 ° 0 min 0,000 mm 0,0 UV-I 0 W/m² 5,4 °C 6,1 °C 0,0 km/h (0 Bft)
03.11.2019 02:16 5,9 °C 94 % 993,2 hPa 0,0 mm 0,0 km/h (0 Bft) SW 217 ° 0 min 0,000 mm 0,0 UV-I 0 W/m² 5,0 °C 5,9 °C 0,0 km/h (0 Bft)
03.11.2019 02:17 5,9 °C 95 % 993,2 hPa 0,0 mm 0,0 km/h (0 Bft) SW 217 ° 0 min 0,000 mm 0,0 UV-I 0 W/m² 5,2 °C 5,9 °C 0,0 km/h (0 Bft)
03.11.2019 02:18 5,9 °C 95 % 993,1 hPa 0,0 mm 0,0 km/h (0 Bft) SW 217 ° 0 min 0,000 mm 0,0 UV-I 0 W/m² 5,2 °C 5,9 °C 0,0 km/h (0 Bft)
03.11.2019 02:19 5,9 °C 95 % 993,1 hPa 0,0 mm 0,0 km/h (0 Bft) SW 217 ° 0 min 0,000 mm 0,0 UV-I 0 W/m² 5,2 °C 5,9 °C 0,0 km/h (0 Bft)
03.11.2019 02:20 5,9 °C 95 % 993,2 hPa 0,0 mm 0,0 km/h (0 Bft) SW 217 ° 0 min 0,000 mm 0,0 UV-I 0 W/m² 5,2 °C 5,9 °C 0,0 km/h (0 Bft)
03.11.2019 02:21 5,9 °C 95 % 993,2 hPa 0,0 mm 0,0 km/h (0 Bft) SW 217 ° 0 min 0,000 mm 0,0 UV-I 0 W/m² 5,2 °C 5,9 °C 0,0 km/h (0 Bft)
03.11.2019 02:22 5,9 °C 95 % 993,2 hPa 0,0 mm 0,0 km/h (0 Bft) SW 217 ° 0 min 0,000 mm 0,0 UV-I 0 W/m² 5,2 °C 5,9 °C 0,0 km/h (0 Bft)
03.11.2019 02:23 5,9 °C 95 % 993,2 hPa 0,0 mm 0,0 km/h (0 Bft) SW 217 ° 0 min 0,000 mm 0,0 UV-I 0 W/m² 5,2 °C 5,9 °C 0,0 km/h (0 Bft)
03.11.2019 02:24 5,9 °C 95 % 993,2 hPa 0,0 mm 0,0 km/h (0 Bft) SW 217 ° 0 min 0,000 mm 0,0 UV-I 0 W/m² 5,2 °C 5,9 °C 0,0 km/h (0 Bft)
03.11.2019 02:25 5,8 °C 95 % 993,2 hPa 0,0 mm 0,0 km/h (0 Bft) SW 217 ° 0 min 0,000 mm 0,0 UV-I 0 W/m² 5,1 °C 5,8 °C 0,0 km/h (0 Bft)
03.11.2019 02:26 5,8 °C 95 % 993,1 hPa 0,0 mm 0,0 km/h (0 Bft) SW 217 ° 0 min 0,000 mm 0,0 UV-I 0 W/m² 5,1 °C 5,8 °C 0,0 km/h (0 Bft)
03.11.2019 02:27 5,8 °C 95 % 993,2 hPa 0,0 mm 0,0 km/h (0 Bft) SW 217 ° 0 min 0,000 mm 0,0 UV-I 0 W/m² 5,1 °C 5,8 °C 0,0 km/h (0 Bft)
03.11.2019 02:28 5,8 °C 95 % 993,2 hPa 0,0 mm 0,0 km/h (0 Bft) SW 217 ° 0 min 0,000 mm 0,0 UV-I 0 W/m² 5,1 °C 5,8 °C 0,0 km/h (0 Bft)
03.11.2019 02:29 5,8 °C 94 % 993,2 hPa 0,0 mm 0,0 km/h (0 Bft) SW 217 ° 0 min 0,000 mm 0,0 UV-I 0 W/m² 4,9 °C 5,8 °C 0,0 km/h (0 Bft)
03.11.2019 02:30 5,8 °C 94 % 993,2 hPa 0,0 mm 0,0 km/h (0 Bft) SW 217 ° 0 min 0,000 mm 0,0 UV-I 0 W/m² 4,9 °C 5,8 °C 0,0 km/h (0 Bft)
03.11.2019 02:31 5,8 °C 94 % 993,2 hPa 0,0 mm 0,0 km/h (0 Bft) SW 217 ° 0 min 0,000 mm 0,0 UV-I 0 W/m² 4,9 °C 5,8 °C 0,0 km/h (0 Bft)
03.11.2019 02:32 5,7 °C 94 % 993,2 hPa 0,0 mm 0,0 km/h (0 Bft) SW 217 ° 0 min 0,000 mm 0,0 UV-I 0 W/m² 4,8 °C 5,7 °C 0,0 km/h (0 Bft)
03.11.2019 02:33 5,7 °C 94 % 993,2 hPa 0,0 mm 0,0 km/h (0 Bft) SW 217 ° 0 min 0,000 mm 0,0 UV-I 0 W/m² 4,8 °C 5,7 °C 0,0 km/h (0 Bft)
03.11.2019 02:34 5,7 °C 94 % 993,2 hPa 0,0 mm 0,0 km/h (0 Bft) SW 217 ° 0 min 0,000 mm 0,0 UV-I 0 W/m² 4,8 °C 5,7 °C 0,0 km/h (0 Bft)
03.11.2019 02:35 5,7 °C 94 % 993,2 hPa 0,0 mm 0,0 km/h (0 Bft) SW 217 ° 0 min 0,000 mm 0,0 UV-I 0 W/m² 4,8 °C 5,7 °C 0,0 km/h (0 Bft)
03.11.2019 02:36 5,7 °C 95 % 993,2 hPa 0,0 mm 0,0 km/h (0 Bft) SW 217 ° 0 min 0,000 mm 0,0 UV-I 0 W/m² 5,0 °C 5,7 °C 0,0 km/h (0 Bft)
03.11.2019 02:37 5,6 °C 95 % 993,2 hPa 0,0 mm 0,9 km/h (0 Bft) SW 217 ° 0 min 0,000 mm 0,0 UV-I 0 W/m² 4,9 °C 5,6 °C 3,2 km/h (1 Bft)
03.11.2019 02:38 5,6 °C 95 % 993,2 hPa 0,0 mm 0,7 km/h (0 Bft) SW 217 ° 0 min 0,000 mm 0,0 UV-I 0 W/m² 4,9 °C 5,6 °C 1,6 km/h (1 Bft)
03.11.2019 02:39 5,6 °C 95 % 993,2 hPa 0,0 mm 0,7 km/h (0 Bft) SW 217 ° 0 min 0,000 mm 0,0 UV-I 0 W/m² 4,9 °C 5,6 °C 3,2 km/h (1 Bft)
03.11.2019 02:40 5,6 °C 95 % 993,2 hPa 0,0 mm 1,9 km/h (1 Bft) SW 217 ° 0 min 0,000 mm 0,0 UV-I 0 W/m² 4,9 °C 5,6 °C 4,8 km/h (1 Bft)
03.11.2019 02:41 5,6 °C 95 % 993,2 hPa 0,0 mm 2,7 km/h (1 Bft) SW 217 ° 0 min 0,000 mm 0,0 UV-I 0 W/m² 4,9 °C 5,6 °C 4,8 km/h (1 Bft)
03.11.2019 02:42 5,7 °C 95 % 993,3 hPa 0,0 mm 4,8 km/h (1 Bft) S 175 ° 0 min 0,000 mm 0,0 UV-I 0 W/m² 5,0 °C 5,0 °C 9,7 km/h (2 Bft)
03.11.2019 02:43 5,8 °C 95 % 993,3 hPa 0,0 mm 4,4 km/h (1 Bft) S-SW 213 ° 0 min 0,000 mm 0,0 UV-I 0 W/m² 5,1 °C 5,8 °C 9,7 km/h (2 Bft)
03.11.2019 02:44 5,8 °C 95 % 993,3 hPa 0,0 mm 3,0 km/h (1 Bft) SW 227 ° 0 min 0,000 mm 0,0 UV-I 0 W/m² 5,1 °C 5,8 °C 8,0 km/h (2 Bft)
03.11.2019 02:45 6,0 °C 95 % 993,2 hPa 0,0 mm 2,3 km/h (1 Bft) SW 227 ° 0 min 0,000 mm 0,0 UV-I 0 W/m² 5,3 °C 6,0 °C 4,8 km/h (1 Bft)
03.11.2019 02:46 6,1 °C 95 % 993,2 hPa 0,0 mm 2,7 km/h (1 Bft) SW 227 ° 0 min 0,000 mm 0,0 UV-I 0 W/m² 5,4 °C 6,1 °C 4,8 km/h (1 Bft)
03.11.2019 02:47 6,2 °C 95 % 993,2 hPa 0,0 mm 1,3 km/h (1 Bft) SW 227 ° 0 min 0,000 mm 0,0 UV-I 0 W/m² 5,5 °C 6,2 °C 3,2 km/h (1 Bft)
03.11.2019 02:48 6,3 °C 95 % 993,2 hPa 0,0 mm 0,6 km/h (0 Bft) SW 227 ° 0 min 0,000 mm 0,0 UV-I 0 W/m² 5,6 °C 6,3 °C 1,6 km/h (1 Bft)
03.11.2019 02:49 6,4 °C 95 % 993,2 hPa 0,0 mm 0,3 km/h (0 Bft) SW 227 ° 0 min 0,000 mm 0,0 UV-I 0 W/m² 5,7 °C 6,4 °C 3,2 km/h (1 Bft)
03.11.2019 02:50 6,5 °C 95 % 993,3 hPa 0,0 mm 2,6 km/h (1 Bft) SW 227 ° 0 min 0,000 mm 0,0 UV-I 0 W/m² 5,8 °C 6,5 °C 3,2 km/h (1 Bft)
03.11.2019 02:51 6,6 °C 95 % 993,3 hPa 0,0 mm 2,7 km/h (1 Bft) W-SW 249 ° 0 min 0,000 mm 0,0 UV-I 0 W/m² 5,9 °C 6,6 °C 6,4 km/h (2 Bft)
03.11.2019 02:52 6,7 °C 95 % 993,3 hPa 0,0 mm 4,4 km/h (1 Bft) W 263 ° 0 min 0,000 mm 0,0 UV-I 0 W/m² 6,0 °C 6,7 °C 9,7 km/h (2 Bft)
03.11.2019 02:53 6,7 °C 95 % 993,2 hPa 0,0 mm 2,8 km/h (1 Bft) W 263 ° 0 min 0,000 mm 0,0 UV-I 0 W/m² 6,0 °C 6,7 °C 3,2 km/h (1 Bft)
03.11.2019 02:54 6,7 °C 95 % 993,2 hPa 0,0 mm 2,9 km/h (1 Bft) W 263 ° 0 min 0,000 mm 0,0 UV-I 0 W/m² 6,0 °C 6,7 °C 3,2 km/h (1 Bft)
03.11.2019 02:55 6,7 °C 95 % 993,2 hPa 0,0 mm 0,4 km/h (0 Bft) W 263 ° 0 min 0,000 mm 0,0 UV-I 0 W/m² 6,0 °C 6,7 °C 3,2 km/h (1 Bft)
03.11.2019 02:56 6,7 °C 95 % 993,3 hPa 0,0 mm 0,0 km/h (0 Bft) W 263 ° 0 min 0,000 mm 0,0 UV-I 0 W/m² 6,0 °C 6,7 °C 0,0 km/h (0 Bft)
03.11.2019 02:57 6,7 °C 95 % 993,3 hPa 0,0 mm 1,3 km/h (1 Bft) W 263 ° 0 min 0,000 mm 0,0 UV-I 0 W/m² 6,0 °C 6,7 °C 4,8 km/h (1 Bft)
03.11.2019 02:58 6,7 °C 95 % 993,3 hPa 0,0 mm 1,8 km/h (1 Bft) W 263 ° 0 min 0,000 mm 0,0 UV-I 0 W/m² 6,0 °C 6,7 °C 4,8 km/h (1 Bft)
03.11.2019 02:59 6,7 °C 95 % 993,3 hPa 0,0 mm 4,8 km/h (1 Bft) W-SW 256 ° 0 min 0,000 mm 0,0 UV-I 0 W/m² 6,0 °C 6,1 °C 11,3 km/h (2 Bft)
03.11.2019 03:00 6,7 °C 95 % 993,3 hPa 0,0 mm 3,7 km/h (1 Bft) W-SW 256 ° 0 min 0,000 mm 0,0 UV-I 0 W/m² 6,0 °C 6,7 °C 6,4 km/h (2 Bft)
03.11.2019 03:01 6,7 °C 95 % 993,3 hPa 0,0 mm 2,5 km/h (1 Bft) W-SW 256 ° 0 min 0,000 mm 0,0 UV-I 0 W/m² 6,0 °C 6,7 °C 4,8 km/h (1 Bft)
03.11.2019 03:02 6,7 °C 95 % 993,3 hPa 0,0 mm 3,6 km/h (1 Bft) W-SW 255 ° 0 min 0,000 mm 0,0 UV-I 0 W/m² 6,0 °C 6,7 °C 8,0 km/h (2 Bft)
03.11.2019 03:03 6,8 °C 95 % 993,3 hPa 0,0 mm 5,0 km/h (1 Bft) W-SW 255 ° 0 min 0,000 mm 0,0 UV-I 0 W/m² 6,1 °C 6,1 °C 8,0 km/h (2 Bft)
03.11.2019 03:04 6,8 °C 95 % 993,4 hPa 0,0 mm 1,2 km/h (1 Bft) W-SW 255 ° 0 min 0,000 mm 0,0 UV-I 0 W/m² 6,1 °C 6,8 °C 3,2 km/h (1 Bft)
03.11.2019 03:05 6,9 °C 95 % 993,4 hPa 0,0 mm 1,8 km/h (1 Bft) W-SW 254 ° 0 min 0,000 mm 0,0 UV-I 0 W/m² 6,2 °C 6,9 °C 4,8 km/h (1 Bft)
03.11.2019 03:06 6,9 °C 95 % 993,4 hPa 0,0 mm 4,2 km/h (1 Bft) W-SW 241 ° 0 min 0,000 mm 0,0 UV-I 0 W/m² 6,2 °C 6,9 °C 8,0 km/h (2 Bft)
03.11.2019 03:07 7,0 °C 95 % 993,4 hPa 0,0 mm 2,5 km/h (1 Bft) W-SW 241 ° 0 min 0,000 mm 0,0 UV-I 0 W/m² 6,3 °C 7,0 °C 6,4 km/h (2 Bft)
03.11.2019 03:08 7,1 °C 95 % 993,4 hPa 0,0 mm 3,2 km/h (1 Bft) W-SW 241 ° 0 min 0,000 mm 0,0 UV-I 0 W/m² 6,4 °C 7,1 °C 6,4 km/h (2 Bft)
03.11.2019 03:09 7,2 °C 95 % 993,3 hPa 0,0 mm 4,6 km/h (1 Bft) W-SW 241 ° 0 min 0,000 mm 0,0 UV-I 0 W/m² 6,5 °C 6,7 °C 8,0 km/h (2 Bft)
03.11.2019 03:10 7,2 °C 95 % 993,4 hPa 0,0 mm 1,4 km/h (1 Bft) W-SW 241 ° 0 min 0,000 mm 0,0 UV-I 0 W/m² 6,5 °C 7,2 °C 3,2 km/h (1 Bft)
03.11.2019 03:11 7,2 °C 95 % 993,4 hPa 0,0 mm 2,3 km/h (1 Bft) W-SW 241 ° 0 min 0,000 mm 0,0 UV-I 0 W/m² 6,5 °C 7,2 °C 3,2 km/h (1 Bft)
03.11.2019 03:12 7,3 °C 95 % 993,4 hPa 0,0 mm 3,1 km/h (1 Bft) SW 236 ° 0 min 0,000 mm 0,0 UV-I 0 W/m² 6,6 °C 7,3 °C 8,0 km/h (2 Bft)
03.11.2019 03:13 7,4 °C 95 % 993,4 hPa 0,0 mm 4,3 km/h (1 Bft) W-SW 255 ° 0 min 0,000 mm 0,0 UV-I 0 W/m² 6,7 °C 7,4 °C 6,4 km/h (2 Bft)
03.11.2019 03:14 7,4 °C 96 % 993,4 hPa 0,0 mm 2,2 km/h (1 Bft) W-SW 240 ° 0 min 0,000 mm 0,0 UV-I 0 W/m² 6,8 °C 7,4 °C 4,8 km/h (1 Bft)
03.11.2019 03:15 7,5 °C 96 % 993,4 hPa 0,0 mm 5,3 km/h (1 Bft) W-SW 251 ° 0 min 0,000 mm 0,0 UV-I 0 W/m² 6,9 °C 6,8 °C 6,4 km/h (2 Bft)
03.11.2019 03:16 7,6 °C 95 % 993,4 hPa 0,0 mm 4,2 km/h (1 Bft) W-SW 241 ° 0 min 0,000 mm 0,0 UV-I 0 W/m² 6,9 °C 7,6 °C 6,4 km/h (2 Bft)
03.11.2019 03:17 7,6 °C 95 % 993,3 hPa 0,0 mm 5,4 km/h (1 Bft) SW 228 ° 0 min 0,000 mm 0,0 UV-I 0 W/m² 6,9 °C 6,9 °C 12,9 km/h (3 Bft)
03.11.2019 03:18 7,7 °C 95 % 993,3 hPa 0,0 mm 8,4 km/h (2 Bft) W 276 ° 0 min 0,000 mm 0,0 UV-I 0 W/m² 7,0 °C 6,2 °C 14,5 km/h (3 Bft)
03.11.2019 03:19 7,7 °C 95 % 993,3 hPa 0,0 mm 3,6 km/h (1 Bft) W 274 ° 0 min 0,000 mm 0,0 UV-I 0 W/m² 7,0 °C 7,7 °C 6,4 km/h (2 Bft)
03.11.2019 03:20 7,8 °C 96 % 993,3 hPa 0,0 mm 3,8 km/h (1 Bft) W 272 ° 0 min 0,000 mm 0,0 UV-I 0 W/m² 7,2 °C 7,8 °C 6,4 km/h (2 Bft)
03.11.2019 03:21 7,8 °C 96 % 993,3 hPa 0,0 mm 5,0 km/h (1 Bft) W-SW 246 ° 0 min 0,000 mm 0,0 UV-I 0 W/m² 7,2 °C 7,3 °C 6,4 km/h (2 Bft)
03.11.2019 03:22 7,8 °C 96 % 993,3 hPa 0,0 mm 3,6 km/h (1 Bft) W-SW 254 ° 0 min 0,000 mm 0,0 UV-I 0 W/m² 7,2 °C 7,8 °C 6,4 km/h (2 Bft)
03.11.2019 03:23 7,8 °C 96 % 993,3 hPa 0,0 mm 3,9 km/h (1 Bft) W 259 ° 0 min 0,000 mm 0,0 UV-I 0 W/m² 7,2 °C 7,8 °C 6,4 km/h (2 Bft)
03.11.2019 03:24 7,8 °C 96 % 993,3 hPa 0,0 mm 1,5 km/h (1 Bft) W 259 ° 0 min 0,000 mm 0,0 UV-I 0 W/m² 7,2 °C 7,8 °C 4,8 km/h (1 Bft)
03.11.2019 03:25 7,9 °C 96 % 993,3 hPa 0,0 mm 2,2 km/h (1 Bft) W-SW 244 ° 0 min 0,000 mm 0,0 UV-I 0 W/m² 7,3 °C 7,9 °C 4,8 km/h (1 Bft)
03.11.2019 03:26 7,9 °C 95 % 993,3 hPa 0,0 mm 4,8 km/h (1 Bft) W-SW 244 ° 0 min 0,000 mm 0,0 UV-I 0 W/m² 7,1 °C 7,4 °C 6,4 km/h (2 Bft)
03.11.2019 03:27 7,9 °C 95 % 993,3 hPa 0,0 mm 4,4 km/h (1 Bft) W-SW 243 ° 0 min 0,000 mm 0,0 UV-I 0 W/m² 7,1 °C 7,9 °C 4,8 km/h (1 Bft)
03.11.2019 03:28 8,0 °C 95 % 993,3 hPa 0,0 mm 3,1 km/h (1 Bft) W-SW 243 ° 0 min 0,000 mm 0,0 UV-I 0 W/m² 7,2 °C 8,0 °C 4,8 km/h (1 Bft)
03.11.2019 03:29 8,0 °C 95 % 993,3 hPa 0,0 mm 2,5 km/h (1 Bft) W-SW 243 ° 0 min 0,000 mm 0,0 UV-I 0 W/m² 7,2 °C 8,0 °C 4,8 km/h (1 Bft)
03.11.2019 03:30 8,1 °C 95 % 993,2 hPa 0,0 mm 3,0 km/h (1 Bft) W-SW 243 ° 0 min 0,000 mm 0,0 UV-I 0 W/m² 7,3 °C 8,1 °C 6,4 km/h (2 Bft)
03.11.2019 03:31 8,1 °C 95 % 993,2 hPa 0,0 mm 4,2 km/h (1 Bft) W-SW 242 ° 0 min 0,000 mm 0,0 UV-I 0 W/m² 7,3 °C 8,1 °C 8,0 km/h (2 Bft)
03.11.2019 03:32 8,1 °C 96 % 993,1 hPa 0,0 mm 4,8 km/h (1 Bft) W-SW 242 ° 0 min 0,000 mm 0,0 UV-I 0 W/m² 7,5 °C 7,7 °C 6,4 km/h (2 Bft)
03.11.2019 03:33 8,2 °C 96 % 993,1 hPa 0,0 mm 3,4 km/h (1 Bft) W-SW 242 ° 0 min 0,000 mm 0,0 UV-I 0 W/m² 7,6 °C 8,2 °C 4,8 km/h (1 Bft)
03.11.2019 03:34 8,2 °C 96 % 993,1 hPa 0,0 mm 6,4 km/h (2 Bft) S-SW 200 ° 0 min 0,000 mm 0,0 UV-I 0 W/m² 7,6 °C 7,3 °C 8,0 km/h (2 Bft)
03.11.2019 03:35 8,2 °C 96 % 993,0 hPa 0,0 mm 2,7 km/h (1 Bft) S-SW 200 ° 0 min 0,000 mm 0,0 UV-I 0 W/m² 7,6 °C 8,2 °C 4,8 km/h (1 Bft)
03.11.2019 03:36 8,3 °C 95 % 993,0 hPa 0,0 mm 1,1 km/h (1 Bft) S-SW 200 ° 0 min 0,000 mm 0,0 UV-I 0 W/m² 7,5 °C 8,3 °C 3,2 km/h (1 Bft)
03.11.2019 03:37 8,3 °C 95 % 993,0 hPa 0,0 mm 0,4 km/h (0 Bft) S-SW 200 ° 0 min 0,000 mm 0,0 UV-I 0 W/m² 7,5 °C 8,3 °C 3,2 km/h (1 Bft)
03.11.2019 03:38 8,3 °C 95 % 993,0 hPa 0,0 mm 5,3 km/h (1 Bft) W-SW 244 ° 0 min 0,000 mm 0,0 UV-I 0 W/m² 7,5 °C 7,7 °C 8,0 km/h (2 Bft)
03.11.2019 03:39 8,3 °C 95 % 993,0 hPa 0,0 mm 4,0 km/h (1 Bft) W-SW 240 ° 0 min 0,000 mm 0,0 UV-I 0 W/m² 7,5 °C 8,3 °C 8,0 km/h (2 Bft)
03.11.2019 03:40 8,3 °C 95 % 993,0 hPa 0,0 mm 2,3 km/h (1 Bft) W-SW 240 ° 0 min 0,000 mm 0,0 UV-I 0 W/m² 7,5 °C 8,3 °C 3,2 km/h (1 Bft)
03.11.2019 03:41 8,3 °C 95 % 992,9 hPa 0,0 mm 0,5 km/h (0 Bft) W-SW 240 ° 0 min 0,000 mm 0,0 UV-I 0 W/m² 7,5 °C 8,3 °C 1,6 km/h (1 Bft)
03.11.2019 03:42 8,4 °C 95 % 992,9 hPa 0,0 mm 0,0 km/h (0 Bft) W-SW 240 ° 0 min 0,000 mm 0,0 UV-I 0 W/m² 7,6 °C 8,4 °C 0,0 km/h (0 Bft)
03.11.2019 03:43 8,4 °C 95 % 992,9 hPa 0,0 mm 0,0 km/h (0 Bft) W-SW 240 ° 0 min 0,000 mm 0,0 UV-I 0 W/m² 7,6 °C 8,4 °C 0,0 km/h (0 Bft)
03.11.2019 03:44 8,4 °C 95 % 992,8 hPa 0,0 mm 0,0 km/h (0 Bft) W-SW 240 ° 0 min 0,000 mm 0,0 UV-I 0 W/m² 7,6 °C 8,4 °C 0,0 km/h (0 Bft)
03.11.2019 03:45 8,4 °C 95 % 992,8 hPa 0,0 mm 0,0 km/h (0 Bft) W-SW 240 ° 0 min 0,000 mm 0,0 UV-I 0 W/m² 7,6 °C 8,4 °C 0,0 km/h (0 Bft)
03.11.2019 03:46 8,4 °C 95 % 992,8 hPa 0,0 mm 0,0 km/h (0 Bft) W-SW 240 ° 0 min 0,000 mm 0,0 UV-I 0 W/m² 7,6 °C 8,4 °C 0,0 km/h (0 Bft)
03.11.2019 03:47 8,4 °C 95 % 992,7 hPa 0,0 mm 0,0 km/h (0 Bft) W-SW 240 ° 0 min 0,000 mm 0,0 UV-I 0 W/m² 7,6 °C 8,4 °C 0,0 km/h (0 Bft)
03.11.2019 03:48 8,4 °C 95 % 992,7 hPa 0,0 mm 0,0 km/h (0 Bft) W-SW 240 ° 0 min 0,000 mm 0,0 UV-I 0 W/m² 7,6 °C 8,4 °C 0,0 km/h (0 Bft)
03.11.2019 03:49 8,4 °C 95 % 992,7 hPa 0,0 mm 0,0 km/h (0 Bft) W-SW 240 ° 0 min 0,000 mm 0,0 UV-I 0 W/m² 7,6 °C 8,4 °C 0,0 km/h (0 Bft)
03.11.2019 03:50 8,4 °C 95 % 992,7 hPa 0,0 mm 0,0 km/h (0 Bft) W-SW 240 ° 0 min 0,000 mm 0,0 UV-I 0 W/m² 7,6 °C 8,4 °C 0,0 km/h (0 Bft)
03.11.2019 03:51 8,4 °C 95 % 992,8 hPa 0,0 mm 0,1 km/h (0 Bft) W-SW 240 ° 0 min 0,000 mm 0,0 UV-I 0 W/m² 7,6 °C 8,4 °C 1,6 km/h (1 Bft)
03.11.2019 03:52 8,3 °C 95 % 992,8 hPa 0,0 mm 3,0 km/h (1 Bft) W-SW 240 ° 0 min 0,000 mm 0,0 UV-I 0 W/m² 7,5 °C 8,3 °C 3,2 km/h (1 Bft)
03.11.2019 03:53 8,3 °C 95 % 992,8 hPa 0,0 mm 1,4 km/h (1 Bft) W-SW 240 ° 0 min 0,000 mm 0,0 UV-I 0 W/m² 7,5 °C 8,3 °C 3,2 km/h (1 Bft)
03.11.2019 03:54 8,3 °C 95 % 992,8 hPa 0,0 mm 2,3 km/h (1 Bft) W-SW 240 ° 0 min 0,000 mm 0,0 UV-I 0 W/m² 7,5 °C 8,3 °C 3,2 km/h (1 Bft)
03.11.2019 03:55 8,3 °C 95 % 992,8 hPa 0,0 mm 1,7 km/h (1 Bft) W-SW 240 ° 0 min 0,000 mm 0,0 UV-I 0 W/m² 7,5 °C 8,3 °C 3,2 km/h (1 Bft)
03.11.2019 03:56 8,3 °C 95 % 992,9 hPa 0,0 mm 0,0 km/h (0 Bft) W-SW 240 ° 0 min 0,000 mm 0,0 UV-I 0 W/m² 7,5 °C 8,3 °C 0,0 km/h (0 Bft)
03.11.2019 03:57 8,3 °C 95 % 992,9 hPa 0,0 mm 0,8 km/h (0 Bft) W-SW 240 ° 0 min 0,000 mm 0,0 UV-I 0 W/m² 7,5 °C 8,3 °C 4,8 km/h (1 Bft)
03.11.2019 03:58 8,4 °C 95 % 992,9 hPa 0,0 mm 4,4 km/h (1 Bft) W-SW 240 ° 0 min 0,000 mm 0,0 UV-I 0 W/m² 7,6 °C 8,4 °C 4,8 km/h (1 Bft)
03.11.2019 03:59 8,4 °C 95 % 992,9 hPa 0,0 mm 5,1 km/h (1 Bft) S-SW 209 ° 0 min 0,000 mm 0,0 UV-I 0 W/m² 7,6 °C 7,9 °C 8,0 km/h (2 Bft)
03.11.2019 04:00 8,4 °C 95 % 992,9 hPa 0,0 mm 4,4 km/h (1 Bft) W-SW 240 ° 0 min 0,000 mm 0,0 UV-I 0 W/m² 7,6 °C 8,4 °C 6,4 km/h (2 Bft)
03.11.2019 04:01 8,4 °C 95 % 992,9 hPa 0,0 mm 2,3 km/h (1 Bft) W-SW 239 ° 0 min 0,000 mm 0,0 UV-I 0 W/m² 7,6 °C 8,4 °C 4,8 km/h (1 Bft)
03.11.2019 04:02 8,4 °C 95 % 992,8 hPa 0,0 mm 0,5 km/h (0 Bft) W-SW 239 ° 0 min 0,000 mm 0,0 UV-I 0 W/m² 7,6 °C 8,4 °C 1,6 km/h (1 Bft)
03.11.2019 04:03 8,4 °C 95 % 992,8 hPa 0,0 mm 1,9 km/h (1 Bft) W-SW 239 ° 0 min 0,000 mm 0,0 UV-I 0 W/m² 7,6 °C 8,4 °C 3,2 km/h (1 Bft)
03.11.2019 04:04 8,4 °C 95 % 992,8 hPa 0,0 mm 2,3 km/h (1 Bft) W-SW 239 ° 0 min 0,000 mm 0,0 UV-I 0 W/m² 7,6 °C 8,4 °C 3,2 km/h (1 Bft)
03.11.2019 04:05 8,4 °C 95 % 992,7 hPa 0,0 mm 1,1 km/h (1 Bft) W-SW 239 ° 0 min 0,000 mm 0,0 UV-I 0 W/m² 7,6 °C 8,4 °C 3,2 km/h (1 Bft)
03.11.2019 04:06 8,4 °C 95 % 992,6 hPa 0,0 mm 2,1 km/h (1 Bft) W-SW 239 ° 0 min 0,000 mm 0,0 UV-I 0 W/m² 7,6 °C 8,4 °C 3,2 km/h (1 Bft)
03.11.2019 04:07 8,4 °C 95 % 992,7 hPa 0,0 mm 0,2 km/h (0 Bft) W-SW 239 ° 0 min 0,000 mm 0,0 UV-I 0 W/m² 7,6 °C 8,4 °C 1,6 km/h (1 Bft)
03.11.2019 04:08 8,4 °C 95 % 992,7 hPa 0,0 mm 0,0 km/h (0 Bft) W-SW 239 ° 0 min 0,000 mm 0,0 UV-I 0 W/m² 7,6 °C 8,4 °C 0,0 km/h (0 Bft)
03.11.2019 04:09 8,3 °C 95 % 992,7 hPa 0,0 mm 0,0 km/h (0 Bft) W-SW 239 ° 0 min 0,000 mm 0,0 UV-I 0 W/m² 7,5 °C 8,3 °C 0,0 km/h (0 Bft)
03.11.2019 04:10 8,3 °C 95 % 992,7 hPa 0,0 mm 0,0 km/h (0 Bft) W-SW 239 ° 0 min 0,000 mm 0,0 UV-I 0 W/m² 7,5 °C 8,3 °C 0,0 km/h (0 Bft)
03.11.2019 04:11 8,3 °C 95 % 992,6 hPa 0,0 mm 0,0 km/h (0 Bft) W-SW 239 ° 0 min 0,000 mm 0,0 UV-I 0 W/m² 7,5 °C 8,3 °C 0,0 km/h (0 Bft)
03.11.2019 04:12 8,3 °C 95 % 992,5 hPa 0,0 mm 0,0 km/h (0 Bft) W-SW 239 ° 0 min 0,000 mm 0,0 UV-I 0 W/m² 7,5 °C 8,3 °C 0,0 km/h (0 Bft)
03.11.2019 04:13 8,3 °C 95 % 992,5 hPa 0,0 mm 0,0 km/h (0 Bft) W-SW 239 ° 0 min 0,000 mm 0,0 UV-I 0 W/m² 7,5 °C 8,3 °C 0,0 km/h (0 Bft)
03.11.2019 04:14 8,3 °C 95 % 992,5 hPa 0,0 mm 0,0 km/h (0 Bft) W-SW 239 ° 0 min 0,000 mm 0,0 UV-I 0 W/m² 7,5 °C 8,3 °C 0,0 km/h (0 Bft)
03.11.2019 04:15 8,3 °C 95 % 992,4 hPa 0,0 mm 0,0 km/h (0 Bft) W-SW 239 ° 0 min 0,000 mm 0,0 UV-I 0 W/m² 7,5 °C 8,3 °C 0,0 km/h (0 Bft)
03.11.2019 04:16 8,3 °C 95 % 992,4 hPa 0,0 mm 0,0 km/h (0 Bft) W-SW 239 ° 0 min 0,000 mm 0,0 UV-I 0 W/m² 7,5 °C 8,3 °C 0,0 km/h (0 Bft)
03.11.2019 04:17 8,3 °C 95 % 992,4 hPa 0,0 mm 0,0 km/h (0 Bft) W-SW 239 ° 0 min 0,000 mm 0,0 UV-I 0 W/m² 7,5 °C 8,3 °C 0,0 km/h (0 Bft)
03.11.2019 04:18 8,3 °C 95 % 992,3 hPa 0,0 mm 0,0 km/h (0 Bft) W-SW 239 ° 0 min 0,000 mm 0,0 UV-I 0 W/m² 7,5 °C 8,3 °C 0,0 km/h (0 Bft)
03.11.2019 04:19 8,3 °C 95 % 992,3 hPa 0,0 mm 0,0 km/h (0 Bft) W-SW 239 ° 0 min 0,000 mm 0,0 UV-I 0 W/m² 7,5 °C 8,3 °C 0,0 km/h (0 Bft)
03.11.2019 04:20 8,3 °C 95 % 992,3 hPa 0,0 mm 0,0 km/h (0 Bft) W-SW 239 ° 0 min 0,000 mm 0,0 UV-I 0 W/m² 7,5 °C 8,3 °C 0,0 km/h (0 Bft)
03.11.2019 04:21 8,3 °C 95 % 992,3 hPa 0,0 mm 0,0 km/h (0 Bft) W-SW 239 ° 0 min 0,000 mm 0,0 UV-I 0 W/m² 7,5 °C 8,3 °C 0,0 km/h (0 Bft)
03.11.2019 04:22 8,3 °C 95 % 992,3 hPa 0,0 mm 0,0 km/h (0 Bft) W-SW 239 ° 0 min 0,000 mm 0,0 UV-I 0 W/m² 7,5 °C 8,3 °C 0,0 km/h (0 Bft)
03.11.2019 04:23 8,3 °C 95 % 992,3 hPa 0,0 mm 0,0 km/h (0 Bft) W-SW 239 ° 0 min 0,000 mm 0,0 UV-I 0 W/m² 7,5 °C 8,3 °C 0,0 km/h (0 Bft)
03.11.2019 04:24 8,3 °C 95 % 992,4 hPa 0,0 mm 0,0 km/h (0 Bft) W-SW 239 ° 0 min 0,000 mm 0,0 UV-I 0 W/m² 7,5 °C 8,3 °C 0,0 km/h (0 Bft)
03.11.2019 04:25 8,3 °C 95 % 992,3 hPa 0,0 mm 0,0 km/h (0 Bft) W-SW 239 ° 0 min 0,000 mm 0,0 UV-I 0 W/m² 7,5 °C 8,3 °C 0,0 km/h (0 Bft)
03.11.2019 04:26 8,3 °C 95 % 992,3 hPa 0,0 mm 0,0 km/h (0 Bft) W-SW 239 ° 0 min 0,000 mm 0,0 UV-I 0 W/m² 7,5 °C 8,3 °C 0,0 km/h (0 Bft)
03.11.2019 04:27 8,3 °C 95 % 992,3 hPa 0,0 mm 0,0 km/h (0 Bft) W-SW 239 ° 0 min 0,000 mm 0,0 UV-I 0 W/m² 7,5 °C 8,3 °C 0,0 km/h (0 Bft)
03.11.2019 04:28 8,3 °C 95 % 992,3 hPa 0,0 mm 0,0 km/h (0 Bft) W-SW 239 ° 0 min 0,000 mm 0,0 UV-I 0 W/m² 7,5 °C 8,3 °C 0,0 km/h (0 Bft)
03.11.2019 04:29 8,3 °C 95 % 992,2 hPa 0,0 mm 0,0 km/h (0 Bft) W-SW 239 ° 0 min 0,000 mm 0,0 UV-I 0 W/m² 7,5 °C 8,3 °C 0,0 km/h (0 Bft)
03.11.2019 04:30 8,3 °C 95 % 992,2 hPa 0,0 mm 0,0 km/h (0 Bft) W-SW 239 ° 0 min 0,000 mm 0,0 UV-I 0 W/m² 7,5 °C 8,3 °C 0,0 km/h (0 Bft)
03.11.2019 04:31 8,3 °C 95 % 992,2 hPa 0,0 mm 0,0 km/h (0 Bft) W-SW 239 ° 0 min 0,000 mm 0,0 UV-I 0 W/m² 7,5 °C 8,3 °C 0,0 km/h (0 Bft)
03.11.2019 04:32 8,3 °C 95 % 992,2 hPa 0,0 mm 0,0 km/h (0 Bft) W-SW 239 ° 0 min 0,000 mm 0,0 UV-I 0 W/m² 7,5 °C 8,3 °C 0,0 km/h (0 Bft)
03.11.2019 04:33 8,3 °C 95 % 992,2 hPa 0,0 mm 0,0 km/h (0 Bft) W-SW 239 ° 0 min 0,000 mm 0,0 UV-I 0 W/m² 7,5 °C 8,3 °C 0,0 km/h (0 Bft)
03.11.2019 04:34 8,3 °C 95 % 992,3 hPa 0,0 mm 0,0 km/h (0 Bft) W-SW 239 ° 0 min 0,000 mm 0,0 UV-I 0 W/m² 7,5 °C 8,3 °C 0,0 km/h (0 Bft)
03.11.2019 04:35 8,3 °C 95 % 992,3 hPa 0,0 mm 0,0 km/h (0 Bft) W-SW 239 ° 0 min 0,000 mm 0,0 UV-I 0 W/m² 7,5 °C 8,3 °C 0,0 km/h (0 Bft)
03.11.2019 04:36 8,3 °C 95 % 992,3 hPa 0,0 mm 0,0 km/h (0 Bft) W-SW 239 ° 0 min 0,000 mm 0,0 UV-I 0 W/m² 7,5 °C 8,3 °C 0,0 km/h (0 Bft)
03.11.2019 04:37 8,3 °C 95 % 992,3 hPa 0,0 mm 0,0 km/h (0 Bft) W-SW 239 ° 0 min 0,000 mm 0,0 UV-I 0 W/m² 7,5 °C 8,3 °C 0,0 km/h (0 Bft)
03.11.2019 04:38 8,3 °C 95 % 992,3 hPa 0,0 mm 0,0 km/h (0 Bft) W-SW 239 ° 0 min 0,000 mm 0,0 UV-I 0 W/m² 7,5 °C 8,3 °C 0,0 km/h (0 Bft)
03.11.2019 04:39 8,3 °C 95 % 992,3 hPa 0,0 mm 0,0 km/h (0 Bft) W-SW 239 ° 0 min 0,000 mm 0,0 UV-I 0 W/m² 7,5 °C 8,3 °C 0,0 km/h (0 Bft)
03.11.2019 04:40 8,3 °C 95 % 992,3 hPa 0,0 mm 0,0 km/h (0 Bft) W-SW 239 ° 0 min 0,000 mm 0,0 UV-I 0 W/m² 7,5 °C 8,3 °C 0,0 km/h (0 Bft)
03.11.2019 04:41 8,3 °C 95 % 992,3 hPa 0,0 mm 0,0 km/h (0 Bft) W-SW 239 ° 0 min 0,000 mm 0,0 UV-I 0 W/m² 7,5 °C 8,3 °C 0,0 km/h (0 Bft)
03.11.2019 04:42 8,3 °C 95 % 992,3 hPa 0,0 mm 0,0 km/h (0 Bft) W-SW 239 ° 0 min 0,000 mm 0,0 UV-I 0 W/m² 7,5 °C 8,3 °C 0,0 km/h (0 Bft)
03.11.2019 04:43 8,3 °C 95 % 992,3 hPa 0,0 mm 0,0 km/h (0 Bft) W-SW 239 ° 0 min 0,000 mm 0,0 UV-I 0 W/m² 7,5 °C 8,3 °C 0,0 km/h (0 Bft)
03.11.2019 04:44 8,3 °C 95 % 992,3 hPa 0,0 mm 0,0 km/h (0 Bft) W-SW 239 ° 0 min 0,000 mm 0,0 UV-I 0 W/m² 7,5 °C 8,3 °C 0,0 km/h (0 Bft)
03.11.2019 04:45 8,3 °C 95 % 992,3 hPa 0,0 mm 0,0 km/h (0 Bft) W-SW 239 ° 0 min 0,000 mm 0,0 UV-I 0 W/m² 7,5 °C 8,3 °C 0,0 km/h (0 Bft)
03.11.2019 04:46 8,3 °C 95 % 992,3 hPa 0,0 mm 0,0 km/h (0 Bft) W-SW 239 ° 0 min 0,000 mm 0,0 UV-I 0 W/m² 7,5 °C 8,3 °C 0,0 km/h (0 Bft)
03.11.2019 04:47 8,3 °C 95 % 992,3 hPa 0,0 mm 0,0 km/h (0 Bft) W-SW 239 ° 0 min 0,000 mm 0,0 UV-I 0 W/m² 7,5 °C 8,3 °C 0,0 km/h (0 Bft)
03.11.2019 04:48 8,3 °C 95 % 992,3 hPa 0,0 mm 0,0 km/h (0 Bft) W-SW 239 ° 0 min 0,000 mm 0,0 UV-I 0 W/m² 7,5 °C 8,3 °C 0,0 km/h (0 Bft)
03.11.2019 04:49 8,3 °C 95 % 992,3 hPa 0,0 mm 0,0 km/h (0 Bft) W-SW 239 ° 0 min 0,000 mm 0,0 UV-I 0 W/m² 7,5 °C 8,3 °C 0,0 km/h (0 Bft)
03.11.2019 04:50 8,3 °C 95 % 992,3 hPa 0,0 mm 0,0 km/h (0 Bft) W-SW 239 ° 0 min 0,000 mm 0,0 UV-I 0 W/m² 7,5 °C 8,3 °C 0,0 km/h (0 Bft)
03.11.2019 04:51 8,3 °C 95 % 992,3 hPa 0,0 mm 0,0 km/h (0 Bft) W-SW 239 ° 0 min 0,000 mm 0,0 UV-I 0 W/m² 7,5 °C 8,3 °C 0,0 km/h (0 Bft)
03.11.2019 04:52 8,3 °C 95 % 992,3 hPa 0,0 mm 0,0 km/h (0 Bft) W-SW 239 ° 0 min 0,000 mm 0,0 UV-I 0 W/m² 7,5 °C 8,3 °C 0,0 km/h (0 Bft)
03.11.2019 04:53 8,3 °C 95 % 992,2 hPa 0,0 mm 0,0 km/h (0 Bft) W-SW 239 ° 0 min 0,000 mm 0,0 UV-I 0 W/m² 7,5 °C 8,3 °C 0,0 km/h (0 Bft)
03.11.2019 04:54 8,3 °C 95 % 992,2 hPa 0,0 mm 0,0 km/h (0 Bft) W-SW 239 ° 0 min 0,000 mm 0,0 UV-I 0 W/m² 7,5 °C 8,3 °C 0,0 km/h (0 Bft)
03.11.2019 04:55 8,3 °C 95 % 992,1 hPa 0,0 mm 0,0 km/h (0 Bft) W-SW 239 ° 0 min 0,000 mm 0,0 UV-I 0 W/m² 7,5 °C 8,3 °C 0,0 km/h (0 Bft)
03.11.2019 04:56 8,3 °C 95 % 992,1 hPa 0,0 mm 0,0 km/h (0 Bft) W-SW 239 ° 0 min 0,000 mm 0,0 UV-I 0 W/m² 7,5 °C 8,3 °C 0,0 km/h (0 Bft)
03.11.2019 04:57 8,3 °C 95 % 992,1 hPa 0,0 mm 0,0 km/h (0 Bft) W-SW 239 ° 0 min 0,000 mm 0,0 UV-I 0 W/m² 7,5 °C 8,3 °C 0,0 km/h (0 Bft)
03.11.2019 04:58 8,3 °C 95 % 992,1 hPa 0,0 mm 0,0 km/h (0 Bft) W-SW 239 ° 0 min 0,000 mm 0,0 UV-I 0 W/m² 7,5 °C 8,3 °C 0,0 km/h (0 Bft)
03.11.2019 04:59 8,3 °C 95 % 992,0 hPa 0,0 mm 0,0 km/h (0 Bft) W-SW 239 ° 0 min 0,000 mm 0,0 UV-I 0 W/m² 7,5 °C 8,3 °C 0,0 km/h (0 Bft)
03.11.2019 05:00 8,3 °C 95 % 992,0 hPa 0,0 mm 0,0 km/h (0 Bft) W-SW 239 ° 0 min 0,000 mm 0,0 UV-I 0 W/m² 7,5 °C 8,3 °C 0,0 km/h (0 Bft)
03.11.2019 05:01 8,3 °C 95 % 992,0 hPa 0,0 mm 0,0 km/h (0 Bft) W-SW 239 ° 0 min 0,000 mm 0,0 UV-I 0 W/m² 7,5 °C 8,3 °C 0,0 km/h (0 Bft)
03.11.2019 05:02 8,3 °C 95 % 991,9 hPa 0,0 mm 0,0 km/h (0 Bft) W-SW 239 ° 0 min 0,000 mm 0,0 UV-I 0 W/m² 7,5 °C 8,3 °C 0,0 km/h (0 Bft)
03.11.2019 05:03 8,3 °C 95 % 991,9 hPa 0,0 mm 0,0 km/h (0 Bft) W-SW 239 ° 0 min 0,000 mm 0,0 UV-I 0 W/m² 7,5 °C 8,3 °C 0,0 km/h (0 Bft)
03.11.2019 05:04 8,3 °C 95 % 991,9 hPa 0,0 mm 0,0 km/h (0 Bft) W-SW 239 ° 0 min 0,000 mm 0,0 UV-I 0 W/m² 7,5 °C 8,3 °C 0,0 km/h (0 Bft)
03.11.2019 05:05 8,3 °C 95 % 991,9 hPa 0,0 mm 0,0 km/h (0 Bft) W-SW 239 ° 0 min 0,000 mm 0,0 UV-I 0 W/m² 7,5 °C 8,3 °C 0,0 km/h (0 Bft)
03.11.2019 05:06 8,3 °C 95 % 991,8 hPa 0,0 mm 0,0 km/h (0 Bft) W-SW 239 ° 0 min 0,000 mm 0,0 UV-I 0 W/m² 7,5 °C 8,3 °C 0,0 km/h (0 Bft)
03.11.2019 05:07 8,3 °C 95 % 991,7 hPa 0,0 mm 0,0 km/h (0 Bft) W-SW 239 ° 0 min 0,000 mm 0,0 UV-I 0 W/m² 7,5 °C 8,3 °C 0,0 km/h (0 Bft)
03.11.2019 05:08 8,3 °C 95 % 991,6 hPa 0,0 mm 0,0 km/h (0 Bft) W-SW 239 ° 0 min 0,000 mm 0,0 UV-I 0 W/m² 7,5 °C 8,3 °C 0,0 km/h (0 Bft)
03.11.2019 05:09 8,3 °C 95 % 991,6 hPa 0,0 mm 0,0 km/h (0 Bft) W-SW 239 ° 0 min 0,000 mm 0,0 UV-I 0 W/m² 7,5 °C 8,3 °C 0,0 km/h (0 Bft)
03.11.2019 05:10 8,3 °C 95 % 991,6 hPa 0,0 mm 0,0 km/h (0 Bft) W-SW 239 ° 0 min 0,000 mm 0,0 UV-I 0 W/m² 7,5 °C 8,3 °C 0,0 km/h (0 Bft)
03.11.2019 05:11 8,3 °C 95 % 991,6 hPa 0,0 mm 0,0 km/h (0 Bft) W-SW 239 ° 0 min 0,000 mm 0,0 UV-I 0 W/m² 7,5 °C 8,3 °C 0,0 km/h (0 Bft)
03.11.2019 05:12 8,3 °C 95 % 991,6 hPa 0,0 mm 0,0 km/h (0 Bft) W-SW 239 ° 0 min 0,000 mm 0,0 UV-I 0 W/m² 7,5 °C 8,3 °C 0,0 km/h (0 Bft)
03.11.2019 05:13 8,3 °C 95 % 991,5 hPa 0,0 mm 0,0 km/h (0 Bft) W-SW 239 ° 0 min 0,000 mm 0,0 UV-I 0 W/m² 7,5 °C 8,3 °C 0,0 km/h (0 Bft)
03.11.2019 05:14 8,3 °C 95 % 991,5 hPa 0,0 mm 0,0 km/h (0 Bft) W-SW 239 ° 0 min 0,000 mm 0,0 UV-I 0 W/m² 7,5 °C 8,3 °C 0,0 km/h (0 Bft)
03.11.2019 05:15 8,3 °C 95 % 991,5 hPa 0,0 mm 0,0 km/h (0 Bft) W-SW 239 ° 0 min 0,000 mm 0,0 UV-I 0 W/m² 7,5 °C 8,3 °C 0,0 km/h (0 Bft)
03.11.2019 05:16 8,3 °C 95 % 991,5 hPa 0,0 mm 0,0 km/h (0 Bft) W-SW 239 ° 0 min 0,000 mm 0,0 UV-I 0 W/m² 7,5 °C 8,3 °C 0,0 km/h (0 Bft)
03.11.2019 05:17 8,3 °C 95 % 991,5 hPa 0,0 mm 0,0 km/h (0 Bft) W-SW 239 ° 0 min 0,000 mm 0,0 UV-I 0 W/m² 7,5 °C 8,3 °C 0,0 km/h (0 Bft)
03.11.2019 05:18 8,3 °C 95 % 991,4 hPa 0,0 mm 0,0 km/h (0 Bft) W-SW 239 ° 0 min 0,000 mm 0,0 UV-I 0 W/m² 7,5 °C 8,3 °C 0,0 km/h (0 Bft)
03.11.2019 05:19 8,3 °C 95 % 991,4 hPa 0,0 mm 0,0 km/h (0 Bft) W-SW 239 ° 0 min 0,000 mm 0,0 UV-I 0 W/m² 7,5 °C 8,3 °C 0,0 km/h (0 Bft)
03.11.2019 05:20 8,3 °C 95 % 991,4 hPa 0,0 mm 0,0 km/h (0 Bft) W-SW 239 ° 0 min 0,000 mm 0,0 UV-I 0 W/m² 7,5 °C 8,3 °C 0,0 km/h (0 Bft)
03.11.2019 05:21 8,3 °C 95 % 991,4 hPa 0,0 mm 0,0 km/h (0 Bft) W-SW 239 ° 0 min 0,000 mm 0,0 UV-I 0 W/m² 7,5 °C 8,3 °C 0,0 km/h (0 Bft)
03.11.2019 05:22 8,3 °C 95 % 991,4 hPa 0,0 mm 0,0 km/h (0 Bft) W-SW 239 ° 0 min 0,000 mm 0,0 UV-I 0 W/m² 7,5 °C 8,3 °C 0,0 km/h (0 Bft)
03.11.2019 05:23 8,3 °C 95 % 991,3 hPa 0,0 mm 0,0 km/h (0 Bft) W-SW 239 ° 0 min 0,000 mm 0,0 UV-I 0 W/m² 7,5 °C 8,3 °C 0,0 km/h (0 Bft)
03.11.2019 05:24 8,3 °C 95 % 991,4 hPa 0,0 mm 0,0 km/h (0 Bft) W-SW 239 ° 0 min 0,000 mm 0,0 UV-I 0 W/m² 7,5 °C 8,3 °C 0,0 km/h (0 Bft)
03.11.2019 05:25 8,3 °C 95 % 991,3 hPa 0,0 mm 0,0 km/h (0 Bft) W-SW 239 ° 0 min 0,000 mm 0,0 UV-I 0 W/m² 7,5 °C 8,3 °C 0,0 km/h (0 Bft)
03.11.2019 05:26 8,3 °C 95 % 991,2 hPa 0,0 mm 0,0 km/h (0 Bft) W-SW 239 ° 0 min 0,000 mm 0,0 UV-I 0 W/m² 7,5 °C 8,3 °C 0,0 km/h (0 Bft)
03.11.2019 05:27 8,3 °C 95 % 991,2 hPa 0,0 mm 0,0 km/h (0 Bft) W-SW 239 ° 0 min 0,000 mm 0,0 UV-I 0 W/m² 7,5 °C 8,3 °C 0,0 km/h (0 Bft)
03.11.2019 05:28 8,3 °C 95 % 991,2 hPa 0,0 mm 0,0 km/h (0 Bft) W-SW 239 ° 0 min 0,000 mm 0,0 UV-I 0 W/m² 7,5 °C 8,3 °C 0,0 km/h (0 Bft)
03.11.2019 05:29 8,3 °C 95 % 991,1 hPa 0,0 mm 0,0 km/h (0 Bft) W-SW 239 ° 0 min 0,000 mm 0,0 UV-I 0 W/m² 7,5 °C 8,3 °C 0,0 km/h (0 Bft)
03.11.2019 05:30 8,3 °C 95 % 991,2 hPa 0,0 mm 0,0 km/h (0 Bft) W-SW 239 ° 0 min 0,000 mm 0,0 UV-I 0 W/m² 7,5 °C 8,3 °C 0,0 km/h (0 Bft)
03.11.2019 05:31 8,3 °C 95 % 991,2 hPa 0,0 mm 0,0 km/h (0 Bft) W-SW 239 ° 0 min 0,000 mm 0,0 UV-I 0 W/m² 7,5 °C 8,3 °C 0,0 km/h (0 Bft)
03.11.2019 05:32 8,3 °C 95 % 991,1 hPa 0,0 mm 0,0 km/h (0 Bft) W-SW 239 ° 0 min 0,000 mm 0,0 UV-I 0 W/m² 7,5 °C 8,3 °C 0,0 km/h (0 Bft)
03.11.2019 05:33 8,3 °C 95 % 991,1 hPa 0,0 mm 0,0 km/h (0 Bft) W-SW 239 ° 0 min 0,000 mm 0,0 UV-I 0 W/m² 7,5 °C 8,3 °C 0,0 km/h (0 Bft)
03.11.2019 05:34 8,3 °C 95 % 991,1 hPa 0,0 mm 0,0 km/h (0 Bft) W-SW 239 ° 0 min 0,000 mm 0,0 UV-I 0 W/m² 7,5 °C 8,3 °C 0,0 km/h (0 Bft)
03.11.2019 05:35 8,3 °C 95 % 991,1 hPa 0,0 mm 0,0 km/h (0 Bft) W-SW 239 ° 0 min 0,000 mm 0,0 UV-I 0 W/m² 7,5 °C 8,3 °C 0,0 km/h (0 Bft)
03.11.2019 05:36 8,3 °C 95 % 991,1 hPa 0,0 mm 0,0 km/h (0 Bft) W-SW 239 ° 0 min 0,000 mm 0,0 UV-I 0 W/m² 7,5 °C 8,3 °C 0,0 km/h (0 Bft)
03.11.2019 05:37 8,3 °C 95 % 991,0 hPa 0,0 mm 0,0 km/h (0 Bft) W-SW 239 ° 0 min 0,000 mm 0,0 UV-I 0 W/m² 7,5 °C 8,3 °C 0,0 km/h (0 Bft)
03.11.2019 05:38 8,3 °C 95 % 991,0 hPa 0,0 mm 0,0 km/h (0 Bft) W-SW 239 ° 0 min 0,000 mm 0,0 UV-I 0 W/m² 7,5 °C 8,3 °C 0,0 km/h (0 Bft)
03.11.2019 05:39 8,3 °C 95 % 991,0 hPa 0,0 mm 0,0 km/h (0 Bft) W-SW 239 ° 0 min 0,000 mm 0,0 UV-I 0 W/m² 7,5 °C 8,3 °C 0,0 km/h (0 Bft)
03.11.2019 05:40 8,3 °C 95 % 991,0 hPa 0,0 mm 0,0 km/h (0 Bft) W-SW 239 ° 0 min 0,000 mm 0,0 UV-I 0 W/m² 7,5 °C 8,3 °C 0,0 km/h (0 Bft)
03.11.2019 05:41 8,3 °C 95 % 991,0 hPa 0,0 mm 0,0 km/h (0 Bft) W-SW 239 ° 0 min 0,000 mm 0,0 UV-I 0 W/m² 7,5 °C 8,3 °C 0,0 km/h (0 Bft)
03.11.2019 05:42 8,3 °C 94 % 991,0 hPa 0,0 mm 0,0 km/h (0 Bft) W-SW 239 ° 0 min 0,000 mm 0,0 UV-I 0 W/m² 7,4 °C 8,3 °C 0,0 km/h (0 Bft)
03.11.2019 05:43 8,3 °C 95 % 991,0 hPa 0,0 mm 0,0 km/h (0 Bft) W-SW 239 ° 0 min 0,000 mm 0,0 UV-I 0 W/m² 7,5 °C 8,3 °C 0,0 km/h (0 Bft)
03.11.2019 05:44 8,3 °C 95 % 991,0 hPa 0,0 mm 0,0 km/h (0 Bft) W-SW 239 ° 0 min 0,000 mm 0,0 UV-I 0 W/m² 7,5 °C 8,3 °C 0,0 km/h (0 Bft)
03.11.2019 05:45 8,3 °C 95 % 991,1 hPa 0,0 mm 0,0 km/h (0 Bft) W-SW 239 ° 0 min 0,000 mm 0,0 UV-I 0 W/m² 7,5 °C 8,3 °C 0,0 km/h (0 Bft)
03.11.2019 05:46 8,3 °C 95 % 991,0 hPa 0,0 mm 0,0 km/h (0 Bft) W-SW 239 ° 0 min 0,000 mm 0,0 UV-I 0 W/m² 7,5 °C 8,3 °C 0,0 km/h (0 Bft)
03.11.2019 05:47 8,3 °C 95 % 990,9 hPa 0,0 mm 0,0 km/h (0 Bft) W-SW 239 ° 0 min 0,000 mm 0,0 UV-I 0 W/m² 7,5 °C 8,3 °C 0,0 km/h (0 Bft)
03.11.2019 05:48 8,2 °C 95 % 990,9 hPa 0,0 mm 0,0 km/h (0 Bft) W-SW 239 ° 0 min 0,000 mm 0,0 UV-I 0 W/m² 7,4 °C 8,2 °C 0,0 km/h (0 Bft)
03.11.2019 05:49 8,3 °C 95 % 990,9 hPa 0,0 mm 0,0 km/h (0 Bft) W-SW 239 ° 0 min 0,000 mm 0,0 UV-I 0 W/m² 7,5 °C 8,3 °C 0,0 km/h (0 Bft)
03.11.2019 05:50 8,2 °C 95 % 991,0 hPa 0,0 mm 0,0 km/h (0 Bft) W-SW 239 ° 0 min 0,000 mm 0,0 UV-I 0 W/m² 7,4 °C 8,2 °C 0,0 km/h (0 Bft)
03.11.2019 05:51 8,3 °C 95 % 991,0 hPa 0,0 mm 0,0 km/h (0 Bft) W-SW 239 ° 0 min 0,000 mm 0,0 UV-I 0 W/m² 7,5 °C 8,3 °C 0,0 km/h (0 Bft)
03.11.2019 05:52 8,3 °C 95 % 991,0 hPa 0,0 mm 0,0 km/h (0 Bft) W-SW 239 ° 0 min 0,000 mm 0,0 UV-I 0 W/m² 7,5 °C 8,3 °C 0,0 km/h (0 Bft)
03.11.2019 05:53 8,3 °C 95 % 990,9 hPa 0,0 mm 0,0 km/h (0 Bft) W-SW 239 ° 0 min 0,000 mm 0,0 UV-I 0 W/m² 7,5 °C 8,3 °C 0,0 km/h (0 Bft)
03.11.2019 05:54 8,3 °C 95 % 990,9 hPa 0,0 mm 0,0 km/h (0 Bft) W-SW 239 ° 0 min 0,000 mm 0,0 UV-I 0 W/m² 7,5 °C 8,3 °C 0,0 km/h (0 Bft)
03.11.2019 05:55 8,3 °C 95 % 990,9 hPa 0,0 mm 0,0 km/h (0 Bft) W-SW 239 ° 0 min 0,000 mm 0,0 UV-I 0 W/m² 7,5 °C 8,3 °C 0,0 km/h (0 Bft)
03.11.2019 05:56 8,3 °C 94 % 990,9 hPa 0,0 mm 0,0 km/h (0 Bft) W-SW 239 ° 0 min 0,000 mm 0,0 UV-I 0 W/m² 7,4 °C 8,3 °C 0,0 km/h (0 Bft)
03.11.2019 05:57 8,3 °C 95 % 990,9 hPa 0,0 mm 0,0 km/h (0 Bft) W-SW 239 ° 0 min 0,000 mm 0,0 UV-I 0 W/m² 7,5 °C 8,3 °C 0,0 km/h (0 Bft)
03.11.2019 05:58 8,3 °C 95 % 990,8 hPa 0,0 mm 0,0 km/h (0 Bft) W-SW 239 ° 0 min 0,000 mm 0,0 UV-I 0 W/m² 7,5 °C 8,3 °C 0,0 km/h (0 Bft)
03.11.2019 05:59 8,3 °C 95 % 990,8 hPa 0,0 mm 0,0 km/h (0 Bft) W-SW 239 ° 0 min 0,000 mm 0,0 UV-I 0 W/m² 7,5 °C 8,3 °C 0,0 km/h (0 Bft)
03.11.2019 06:00 8,3 °C 95 % 990,8 hPa 0,0 mm 0,0 km/h (0 Bft) W-SW 239 ° 0 min 0,000 mm 0,0 UV-I 0 W/m² 7,5 °C 8,3 °C 0,0 km/h (0 Bft)
03.11.2019 06:01 8,3 °C 95 % 990,7 hPa 0,0 mm 0,0 km/h (0 Bft) W-SW 239 ° 0 min 0,000 mm 0,0 UV-I 0 W/m² 7,5 °C 8,3 °C 0,0 km/h (0 Bft)
03.11.2019 06:02 8,3 °C 95 % 990,7 hPa 0,0 mm 0,0 km/h (0 Bft) W-SW 239 ° 0 min 0,000 mm 0,0 UV-I 0 W/m² 7,5 °C 8,3 °C 0,0 km/h (0 Bft)
03.11.2019 06:03 8,3 °C 95 % 990,7 hPa 0,0 mm 0,0 km/h (0 Bft) W-SW 239 ° 0 min 0,000 mm 0,0 UV-I 0 W/m² 7,5 °C 8,3 °C 0,0 km/h (0 Bft)
03.11.2019 06:04 8,3 °C 95 % 990,6 hPa 0,0 mm 0,0 km/h (0 Bft) W-SW 239 ° 0 min 0,000 mm 0,0 UV-I 0 W/m² 7,5 °C 8,3 °C 0,0 km/h (0 Bft)
03.11.2019 06:05 8,3 °C 95 % 990,6 hPa 0,0 mm 0,0 km/h (0 Bft) W-SW 239 ° 0 min 0,000 mm 0,0 UV-I 0 W/m² 7,5 °C 8,3 °C 0,0 km/h (0 Bft)
03.11.2019 06:06 8,3 °C 95 % 990,6 hPa 0,0 mm 0,0 km/h (0 Bft) W-SW 239 ° 0 min 0,000 mm 0,0 UV-I 0 W/m² 7,5 °C 8,3 °C 0,0 km/h (0 Bft)
03.11.2019 06:07 8,3 °C 95 % 990,7 hPa 0,0 mm 0,0 km/h (0 Bft) W-SW 239 ° 0 min 0,000 mm 0,0 UV-I 0 W/m² 7,5 °C 8,3 °C 0,0 km/h (0 Bft)
03.11.2019 06:08 8,3 °C 94 % 990,6 hPa 0,0 mm 0,0 km/h (0 Bft) W-SW 239 ° 0 min 0,000 mm 0,0 UV-I 0 W/m² 7,4 °C 8,3 °C 0,0 km/h (0 Bft)
03.11.2019 06:09 8,3 °C 95 % 990,6 hPa 0,0 mm 0,0 km/h (0 Bft) W-SW 239 ° 0 min 0,000 mm 0,0 UV-I 0 W/m² 7,5 °C 8,3 °C 0,0 km/h (0 Bft)
03.11.2019 06:10 8,3 °C 94 % 990,6 hPa 0,0 mm 0,0 km/h (0 Bft) W-SW 239 ° 0 min 0,000 mm 0,0 UV-I 0 W/m² 7,4 °C 8,3 °C 0,0 km/h (0 Bft)
03.11.2019 06:11 8,3 °C 95 % 990,5 hPa 0,0 mm 0,0 km/h (0 Bft) W-SW 239 ° 0 min 0,000 mm 0,0 UV-I 0 W/m² 7,5 °C 8,3 °C 0,0 km/h (0 Bft)
03.11.2019 06:12 8,3 °C 95 % 990,6 hPa 0,0 mm 0,0 km/h (0 Bft) W-SW 239 ° 0 min 0,000 mm 0,0 UV-I 0 W/m² 7,5 °C 8,3 °C 0,0 km/h (0 Bft)
03.11.2019 06:13 8,3 °C 94 % 990,6 hPa 0,0 mm 0,0 km/h (0 Bft) W-SW 239 ° 0 min 0,000 mm 0,0 UV-I 0 W/m² 7,4 °C 8,3 °C 0,0 km/h (0 Bft)
03.11.2019 06:14 8,3 °C 95 % 990,6 hPa 0,0 mm 0,0 km/h (0 Bft) W-SW 239 ° 0 min 0,000 mm 0,0 UV-I 0 W/m² 7,5 °C 8,3 °C 0,0 km/h (0 Bft)
03.11.2019 06:15 8,3 °C 94 % 990,6 hPa 0,0 mm 0,0 km/h (0 Bft) W-SW 239 ° 0 min 0,000 mm 0,0 UV-I 0 W/m² 7,4 °C 8,3 °C 0,0 km/h (0 Bft)
03.11.2019 06:16 8,3 °C 95 % 990,7 hPa 0,0 mm 0,0 km/h (0 Bft) W-SW 239 ° 0 min 0,000 mm 0,0 UV-I 0 W/m² 7,5 °C 8,3 °C 0,0 km/h (0 Bft)
03.11.2019 06:17 8,3 °C 95 % 990,7 hPa 0,0 mm 0,0 km/h (0 Bft) W-SW 239 ° 0 min 0,000 mm 0,0 UV-I 0 W/m² 7,5 °C 8,3 °C 0,0 km/h (0 Bft)
03.11.2019 06:18 8,3 °C 95 % 990,6 hPa 0,0 mm 0,0 km/h (0 Bft) W-SW 239 ° 0 min 0,000 mm 0,0 UV-I 0 W/m² 7,5 °C 8,3 °C 0,0 km/h (0 Bft)
03.11.2019 06:19 8,3 °C 94 % 990,6 hPa 0,0 mm 0,0 km/h (0 Bft) W-SW 239 ° 0 min 0,000 mm 0,0 UV-I 0 W/m² 7,4 °C 8,3 °C 0,0 km/h (0 Bft)
03.11.2019 06:20 8,3 °C 95 % 990,5 hPa 0,0 mm 0,0 km/h (0 Bft) W-SW 239 ° 0 min 0,000 mm 0,0 UV-I 0 W/m² 7,5 °C 8,3 °C 0,0 km/h (0 Bft)
03.11.2019 06:21 8,3 °C 94 % 990,5 hPa 0,0 mm 0,0 km/h (0 Bft) W-SW 239 ° 0 min 0,000 mm 0,0 UV-I 0 W/m² 7,4 °C 8,3 °C 0,0 km/h (0 Bft)
03.11.2019 06:22 8,3 °C 94 % 990,5 hPa 0,0 mm 0,0 km/h (0 Bft) W-SW 239 ° 0 min 0,000 mm 0,0 UV-I 0 W/m² 7,4 °C 8,3 °C 0,0 km/h (0 Bft)
03.11.2019 06:23 8,3 °C 94 % 990,5 hPa 0,0 mm 0,0 km/h (0 Bft) W-SW 239 ° 0 min 0,000 mm 0,0 UV-I 0 W/m² 7,4 °C 8,3 °C 0,0 km/h (0 Bft)
03.11.2019 06:24 8,3 °C 95 % 990,5 hPa 0,0 mm 0,0 km/h (0 Bft) W-SW 239 ° 0 min 0,000 mm 0,0 UV-I 0 W/m² 7,5 °C 8,3 °C 0,0 km/h (0 Bft)
03.11.2019 06:25 8,3 °C 94 % 990,5 hPa 0,0 mm 0,0 km/h (0 Bft) W-SW 239 ° 0 min 0,000 mm 0,0 UV-I 0 W/m² 7,4 °C 8,3 °C 0,0 km/h (0 Bft)
03.11.2019 06:26 8,3 °C 94 % 990,4 hPa 0,0 mm 0,0 km/h (0 Bft) W-SW 239 ° 0 min 0,000 mm 0,0 UV-I 0 W/m² 7,4 °C 8,3 °C 0,0 km/h (0 Bft)
03.11.2019 06:27 8,3 °C 94 % 990,3 hPa 0,0 mm 0,0 km/h (0 Bft) W-SW 239 ° 0 min 0,000 mm 0,0 UV-I 0 W/m² 7,4 °C 8,3 °C 0,0 km/h (0 Bft)
03.11.2019 06:28 8,3 °C 94 % 990,4 hPa 0,0 mm 0,0 km/h (0 Bft) W-SW 239 ° 0 min 0,000 mm 0,0 UV-I 0 W/m² 7,4 °C 8,3 °C 0,0 km/h (0 Bft)
03.11.2019 06:29 8,3 °C 94 % 990,3 hPa 0,0 mm 0,0 km/h (0 Bft) W-SW 239 ° 0 min 0,000 mm 0,0 UV-I 0 W/m² 7,4 °C 8,3 °C 0,0 km/h (0 Bft)
03.11.2019 06:30 8,3 °C 95 % 990,3 hPa 0,0 mm 0,0 km/h (0 Bft) W-SW 239 ° 0 min 0,000 mm 0,0 UV-I 0 W/m² 7,5 °C 8,3 °C 0,0 km/h (0 Bft)
03.11.2019 06:31 8,3 °C 94 % 990,3 hPa 0,0 mm 0,0 km/h (0 Bft) W-SW 239 ° 0 min 0,000 mm 0,0 UV-I 0 W/m² 7,4 °C 8,3 °C 0,0 km/h (0 Bft)
03.11.2019 06:32 8,3 °C 94 % 990,3 hPa 0,0 mm 0,0 km/h (0 Bft) W-SW 239 ° 0 min 0,000 mm 0,0 UV-I 0 W/m² 7,4 °C 8,3 °C 0,0 km/h (0 Bft)
03.11.2019 06:33 8,3 °C 94 % 990,2 hPa 0,0 mm 0,0 km/h (0 Bft) W-SW 239 ° 0 min 0,000 mm 0,0 UV-I 0 W/m² 7,4 °C 8,3 °C 0,0 km/h (0 Bft)
03.11.2019 06:34 8,3 °C 94 % 990,2 hPa 0,0 mm 0,0 km/h (0 Bft) W-SW 239 ° 0 min 0,000 mm 0,0 UV-I 0 W/m² 7,4 °C 8,3 °C 0,0 km/h (0 Bft)
03.11.2019 06:35 8,3 °C 94 % 990,2 hPa 0,0 mm 0,0 km/h (0 Bft) W-SW 239 ° 0 min 0,000 mm 0,0 UV-I 0 W/m² 7,4 °C 8,3 °C 0,0 km/h (0 Bft)
03.11.2019 06:36 8,3 °C 94 % 990,2 hPa 0,0 mm 0,0 km/h (0 Bft) W-SW 239 ° 0 min 0,000 mm 0,0 UV-I 0 W/m² 7,4 °C 8,3 °C 0,0 km/h (0 Bft)
03.11.2019 06:37 8,3 °C 94 % 990,2 hPa 0,0 mm 0,0 km/h (0 Bft) W-SW 239 ° 0 min 0,000 mm 0,0 UV-I 0 W/m² 7,4 °C 8,3 °C 0,0 km/h (0 Bft)
03.11.2019 06:38 8,3 °C 94 % 990,1 hPa 0,0 mm 0,0 km/h (0 Bft) W-SW 239 ° 0 min 0,000 mm 0,0 UV-I 0 W/m² 7,4 °C 8,3 °C 0,0 km/h (0 Bft)
03.11.2019 06:39 8,3 °C 94 % 990,1 hPa 0,0 mm 0,0 km/h (0 Bft) W-SW 239 ° 0 min 0,000 mm 0,0 UV-I 0 W/m² 7,4 °C 8,3 °C 0,0 km/h (0 Bft)
03.11.2019 06:40 8,3 °C 94 % 990,1 hPa 0,0 mm 0,0 km/h (0 Bft) W-SW 239 ° 0 min 0,000 mm 0,0 UV-I 0 W/m² 7,4 °C 8,3 °C 0,0 km/h (0 Bft)
03.11.2019 06:41 8,3 °C 94 % 990,0 hPa 0,0 mm 0,0 km/h (0 Bft) W-SW 239 ° 0 min 0,000 mm 0,0 UV-I 0 W/m² 7,4 °C 8,3 °C 0,0 km/h (0 Bft)
03.11.2019 06:42 8,3 °C 94 % 990,0 hPa 0,0 mm 0,0 km/h (0 Bft) W-SW 239 ° 0 min 0,000 mm 0,0 UV-I 0 W/m² 7,4 °C 8,3 °C 0,0 km/h (0 Bft)
03.11.2019 06:43 8,3 °C 94 % 990,0 hPa 0,0 mm 0,0 km/h (0 Bft) W-SW 239 ° 0 min 0,000 mm 0,0 UV-I 0 W/m² 7,4 °C 8,3 °C 0,0 km/h (0 Bft)
03.11.2019 06:44 8,3 °C 94 % 990,0 hPa 0,0 mm 0,0 km/h (0 Bft) W-SW 239 ° 0 min 0,000 mm 0,0 UV-I 0 W/m² 7,4 °C 8,3 °C 0,0 km/h (0 Bft)
03.11.2019 06:45 8,3 °C 94 % 990,0 hPa 0,0 mm 0,0 km/h (0 Bft) W-SW 239 ° 0 min 0,000 mm 0,0 UV-I 0 W/m² 7,4 °C 8,3 °C 0,0 km/h (0 Bft)
03.11.2019 06:46 8,3 °C 94 % 990,0 hPa 0,0 mm 0,0 km/h (0 Bft) W-SW 239 ° 0 min 0,000 mm 0,0 UV-I 0 W/m² 7,4 °C 8,3 °C 0,0 km/h (0 Bft)
03.11.2019 06:47 8,3 °C 94 % 990,0 hPa 0,0 mm 0,0 km/h (0 Bft) W-SW 239 ° 0 min 0,000 mm 0,0 UV-I 0 W/m² 7,4 °C 8,3 °C 0,0 km/h (0 Bft)
03.11.2019 06:48 8,3 °C 94 % 990,0 hPa 0,0 mm 0,0 km/h (0 Bft) W-SW 239 ° 0 min 0,000 mm 0,0 UV-I 0 W/m² 7,4 °C 8,3 °C 0,0 km/h (0 Bft)
03.11.2019 06:49 8,3 °C 94 % 990,0 hPa 0,0 mm 0,0 km/h (0 Bft) W-SW 239 ° 0 min 0,000 mm 0,0 UV-I 0 W/m² 7,4 °C 8,3 °C 0,0 km/h (0 Bft)
03.11.2019 06:50 8,3 °C 94 % 989,9 hPa 0,0 mm 0,0 km/h (0 Bft) W-SW 239 ° 0 min 0,000 mm 0,0 UV-I 0 W/m² 7,4 °C 8,3 °C 0,0 km/h (0 Bft)
03.11.2019 06:51 8,3 °C 94 % 989,9 hPa 0,0 mm 0,5 km/h (0 Bft) W-SW 239 ° 0 min 0,000 mm 0,0 UV-I 0 W/m² 7,4 °C 8,3 °C 3,2 km/h (1 Bft)
03.11.2019 06:52 8,2 °C 94 % 989,9 hPa 0,0 mm 2,0 km/h (1 Bft) W-SW 239 ° 0 min 0,000 mm 0,0 UV-I 0 W/m² 7,3 °C 8,2 °C 3,2 km/h (1 Bft)
03.11.2019 06:53 8,2 °C 94 % 989,9 hPa 0,0 mm 1,5 km/h (1 Bft) S-SW 192 ° 0 min 0,000 mm 0,0 UV-I 0 W/m² 7,3 °C 8,2 °C 3,2 km/h (1 Bft)
03.11.2019 06:54 8,2 °C 94 % 989,9 hPa 0,0 mm 1,9 km/h (1 Bft) S-SW 192 ° 0 min 0,000 mm 0,0 UV-I 0 W/m² 7,3 °C 8,2 °C 3,2 km/h (1 Bft)
03.11.2019 06:55 8,2 °C 94 % 989,8 hPa 0,0 mm 0,4 km/h (0 Bft) S-SW 192 ° 0 min 0,000 mm 0,0 UV-I 0 W/m² 7,3 °C 8,2 °C 1,6 km/h (1 Bft)
03.11.2019 06:56 8,2 °C 94 % 989,8 hPa 0,0 mm 2,2 km/h (1 Bft) S-SW 192 ° 0 min 0,000 mm 0,0 UV-I 0 W/m² 7,3 °C 8,2 °C 3,2 km/h (1 Bft)
03.11.2019 06:57 8,2 °C 94 % 989,8 hPa 0,0 mm 1,9 km/h (1 Bft) O 84 ° 0 min 0,000 mm 0,0 UV-I 5 W/m² 7,3 °C 8,2 °C 3,2 km/h (1 Bft)
03.11.2019 06:58 8,2 °C 94 % 989,8 hPa 0,0 mm 3,4 km/h (1 Bft) O 84 ° 0 min 0,000 mm 0,0 UV-I 9 W/m² 7,3 °C 8,2 °C 4,8 km/h (1 Bft)
03.11.2019 06:59 8,2 °C 94 % 989,8 hPa 0,0 mm 0,2 km/h (0 Bft) O 84 ° 0 min 0,000 mm 0,0 UV-I 11 W/m² 7,3 °C 8,2 °C 1,6 km/h (1 Bft)
03.11.2019 07:00 8,2 °C 94 % 989,9 hPa 0,0 mm 0,0 km/h (0 Bft) O 84 ° 0 min 0,000 mm 0,0 UV-I 11 W/m² 7,3 °C 8,2 °C 0,0 km/h (0 Bft)
03.11.2019 07:01 8,2 °C 94 % 989,9 hPa 0,0 mm 0,2 km/h (0 Bft) O 84 ° 0 min 0,000 mm 0,0 UV-I 11 W/m² 7,3 °C 8,2 °C 3,2 km/h (1 Bft)
03.11.2019 07:02 8,2 °C 94 % 989,9 hPa 0,0 mm 2,6 km/h (1 Bft) O 84 ° 0 min 0,000 mm 0,0 UV-I 11 W/m² 7,3 °C 8,2 °C 4,8 km/h (1 Bft)
03.11.2019 07:03 8,2 °C 94 % 989,9 hPa 0,0 mm 2,6 km/h (1 Bft) O 84 ° 0 min 0,000 mm 0,0 UV-I 12 W/m² 7,3 °C 8,2 °C 3,2 km/h (1 Bft)
03.11.2019 07:04 8,2 °C 94 % 989,9 hPa 0,0 mm 3,2 km/h (1 Bft) O 84 ° 0 min 0,000 mm 0,0 UV-I 12 W/m² 7,3 °C 8,2 °C 4,8 km/h (1 Bft)
03.11.2019 07:05 8,2 °C 94 % 990,0 hPa 0,0 mm 2,7 km/h (1 Bft) O 84 ° 0 min 0,000 mm 0,0 UV-I 11 W/m² 7,3 °C 8,2 °C 3,2 km/h (1 Bft)
03.11.2019 07:06 8,2 °C 94 % 990,0 hPa 0,0 mm 3,0 km/h (1 Bft) O 84 ° 0 min 0,000 mm 0,0 UV-I 9 W/m² 7,3 °C 8,2 °C 3,2 km/h (1 Bft)
03.11.2019 07:07 8,2 °C 94 % 990,0 hPa 0,0 mm 3,6 km/h (1 Bft) O 84 ° 0 min 0,000 mm 0,0 UV-I 0 W/m² 7,3 °C 8,2 °C 4,8 km/h (1 Bft)
03.11.2019 07:08 8,2 °C 94 % 990,0 hPa 0,0 mm 3,2 km/h (1 Bft) O 84 ° 0 min 0,000 mm 0,0 UV-I 0 W/m² 7,3 °C 8,2 °C 4,8 km/h (1 Bft)
03.11.2019 07:09 8,2 °C 94 % 989,9 hPa 0,0 mm 2,8 km/h (1 Bft) O 84 ° 0 min 0,000 mm 0,0 UV-I 0 W/m² 7,3 °C 8,2 °C 4,8 km/h (1 Bft)
03.11.2019 07:10 8,2 °C 94 % 989,9 hPa 0,0 mm 1,9 km/h (1 Bft) O 84 ° 0 min 0,000 mm 0,0 UV-I 0 W/m² 7,3 °C 8,2 °C 3,2 km/h (1 Bft)
03.11.2019 07:11 8,1 °C 94 % 989,9 hPa 0,0 mm 2,9 km/h (1 Bft) O 84 ° 0 min 0,000 mm 0,0 UV-I 0 W/m² 7,2 °C 8,1 °C 4,8 km/h (1 Bft)
03.11.2019 07:12 8,1 °C 94 % 989,9 hPa 0,0 mm 1,9 km/h (1 Bft) O 84 ° 0 min 0,000 mm 0,0 UV-I 0 W/m² 7,2 °C 8,1 °C 3,2 km/h (1 Bft)
03.11.2019 07:13 8,1 °C 94 % 989,9 hPa 0,0 mm 2,5 km/h (1 Bft) O 84 ° 0 min 0,000 mm 0,0 UV-I 0 W/m² 7,2 °C 8,1 °C 4,8 km/h (1 Bft)
03.11.2019 07:14 8,1 °C 94 % 989,9 hPa 0,0 mm 3,7 km/h (1 Bft) O 84 ° 0 min 0,000 mm 0,0 UV-I 0 W/m² 7,2 °C 8,1 °C 4,8 km/h (1 Bft)
03.11.2019 07:15 8,1 °C 94 % 989,9 hPa 0,0 mm 3,2 km/h (1 Bft) O 84 ° 0 min 0,000 mm 0,0 UV-I 5 W/m² 7,2 °C 8,1 °C 4,8 km/h (1 Bft)
03.11.2019 07:16 8,1 °C 94 % 989,9 hPa 0,0 mm 3,8 km/h (1 Bft) O 84 ° 0 min 0,000 mm 0,0 UV-I 5 W/m² 7,2 °C 8,1 °C 4,8 km/h (1 Bft)
03.11.2019 07:17 8,1 °C 94 % 989,8 hPa 0,0 mm 3,5 km/h (1 Bft) O 84 ° 0 min 0,000 mm 0,0 UV-I 5 W/m² 7,2 °C 8,1 °C 4,8 km/h (1 Bft)
03.11.2019 07:18 8,1 °C 94 % 989,8 hPa 0,0 mm 3,4 km/h (1 Bft) O 84 ° 0 min 0,000 mm 0,0 UV-I 5 W/m² 7,2 °C 8,1 °C 4,8 km/h (1 Bft)
03.11.2019 07:19 8,1 °C 94 % 989,8 hPa 0,0 mm 3,8 km/h (1 Bft) O 83 ° 0 min 0,000 mm 0,0 UV-I 9 W/m² 7,2 °C 8,1 °C 6,4 km/h (2 Bft)
03.11.2019 07:20 8,1 °C 94 % 989,7 hPa 0,0 mm 4,5 km/h (1 Bft) O 82 ° 0 min 0,000 mm 0,0 UV-I 11 W/m² 7,2 °C 8,1 °C 6,4 km/h (2 Bft)
03.11.2019 07:21 8,1 °C 94 % 989,7 hPa 0,0 mm 2,4 km/h (1 Bft) O 82 ° 0 min 0,000 mm 0,0 UV-I 11 W/m² 7,2 °C 8,1 °C 4,8 km/h (1 Bft)
03.11.2019 07:22 8,1 °C 94 % 989,7 hPa 0,0 mm 1,7 km/h (1 Bft) O 82 ° 0 min 0,000 mm 0,0 UV-I 12 W/m² 7,2 °C 8,1 °C 3,2 km/h (1 Bft)
03.11.2019 07:23 8,1 °C 94 % 989,6 hPa 0,0 mm 3,2 km/h (1 Bft) O-NO 61 ° 0 min 0,000 mm 0,0 UV-I 12 W/m² 7,2 °C 8,1 °C 6,4 km/h (2 Bft)
03.11.2019 07:24 8,1 °C 94 % 989,7 hPa 0,0 mm 4,6 km/h (1 Bft) O 93 ° 0 min 0,000 mm 0,0 UV-I 14 W/m² 7,2 °C 7,7 °C 6,4 km/h (2 Bft)
03.11.2019 07:25 8,1 °C 94 % 989,8 hPa 0,0 mm 3,4 km/h (1 Bft) O 91 ° 0 min 0,000 mm 0,0 UV-I 16 W/m² 7,2 °C 8,1 °C 6,4 km/h (2 Bft)
03.11.2019 07:26 8,1 °C 94 % 989,8 hPa 0,0 mm 2,1 km/h (1 Bft) O 91 ° 0 min 0,000 mm 0,0 UV-I 21 W/m² 7,2 °C 8,1 °C 4,8 km/h (1 Bft)
03.11.2019 07:27 8,1 °C 94 % 989,8 hPa 0,0 mm 2,3 km/h (1 Bft) O 91 ° 0 min 0,000 mm 0,0 UV-I 25 W/m² 7,2 °C 8,1 °C 3,2 km/h (1 Bft)
03.11.2019 07:28 8,1 °C 94 % 989,8 hPa 0,0 mm 0,1 km/h (0 Bft) O 91 ° 0 min 0,000 mm 0,0 UV-I 25 W/m² 7,2 °C 8,1 °C 1,6 km/h (1 Bft)
03.11.2019 07:29 8,1 °C 94 % 989,7 hPa 0,0 mm 2,9 km/h (1 Bft) O 91 ° 0 min 0,000 mm 0,0 UV-I 23 W/m² 7,2 °C 8,1 °C 3,2 km/h (1 Bft)
03.11.2019 07:30 8,1 °C 94 % 989,7 hPa 0,0 mm 4,8 km/h (1 Bft) SO 130 ° 0 min 0,000 mm 0,0 UV-I 19 W/m² 7,2 °C 7,7 °C 9,7 km/h (2 Bft)
03.11.2019 07:31 8,1 °C 94 % 989,7 hPa 0,0 mm 3,5 km/h (1 Bft) O-NO 78 ° 0 min 0,000 mm 0,0 UV-I 18 W/m² 7,2 °C 8,1 °C 6,4 km/h (2 Bft)
03.11.2019 07:32 8,1 °C 94 % 989,6 hPa 0,0 mm 3,6 km/h (1 Bft) O-NO 57 ° 0 min 0,000 mm 0,0 UV-I 18 W/m² 7,2 °C 8,1 °C 6,4 km/h (2 Bft)
03.11.2019 07:33 8,2 °C 94 % 989,6 hPa 0,0 mm 2,3 km/h (1 Bft) O-NO 57 ° 0 min 0,000 mm 0,0 UV-I 18 W/m² 7,3 °C 8,2 °C 3,2 km/h (1 Bft)
03.11.2019 07:34 8,1 °C 94 % 989,6 hPa 0,0 mm 1,7 km/h (1 Bft) O-NO 57 ° 0 min 0,000 mm 0,0 UV-I 18 W/m² 7,2 °C 8,1 °C 3,2 km/h (1 Bft)
03.11.2019 07:35 8,1 °C 94 % 989,6 hPa 0,0 mm 1,3 km/h (1 Bft) O-NO 57 ° 0 min 0,000 mm 0,0 UV-I 19 W/m² 7,2 °C 8,1 °C 3,2 km/h (1 Bft)
03.11.2019 07:36 8,2 °C 94 % 989,7 hPa 0,0 mm 0,5 km/h (0 Bft) O-NO 57 ° 0 min 0,000 mm 0,0 UV-I 19 W/m² 7,3 °C 8,2 °C 3,2 km/h (1 Bft)
03.11.2019 07:37 8,2 °C 94 % 989,6 hPa 0,0 mm 0,3 km/h (0 Bft) O-NO 57 ° 0 min 0,000 mm 0,0 UV-I 21 W/m² 7,3 °C 8,2 °C 1,6 km/h (1 Bft)
03.11.2019 07:38 8,2 °C 94 % 989,6 hPa 0,0 mm 1,0 km/h (0 Bft) O-NO 57 ° 0 min 0,000 mm 0,0 UV-I 23 W/m² 7,3 °C 8,2 °C 1,6 km/h (1 Bft)
03.11.2019 07:39 8,2 °C 94 % 989,6 hPa 0,0 mm 0,0 km/h (0 Bft) O-NO 57 ° 0 min 0,000 mm 0,0 UV-I 25 W/m² 7,3 °C 8,2 °C 0,0 km/h (0 Bft)
03.11.2019 07:40 8,2 °C 94 % 989,6 hPa 0,0 mm 0,0 km/h (0 Bft) O-NO 57 ° 0 min 0,000 mm 0,0 UV-I 25 W/m² 7,3 °C 8,2 °C 0,0 km/h (0 Bft)
03.11.2019 07:41 8,2 °C 94 % 989,6 hPa 0,0 mm 0,7 km/h (0 Bft) O-NO 57 ° 0 min 0,000 mm 0,0 UV-I 26 W/m² 7,3 °C 8,2 °C 3,2 km/h (1 Bft)
03.11.2019 07:42 8,2 °C 94 % 989,6 hPa 0,0 mm 0,0 km/h (0 Bft) O-NO 57 ° 0 min 0,000 mm 0,0 UV-I 26 W/m² 7,3 °C 8,2 °C 0,0 km/h (0 Bft)
03.11.2019 07:43 8,2 °C 94 % 989,7 hPa 0,0 mm 0,0 km/h (0 Bft) O-NO 57 ° 0 min 0,000 mm 0,0 UV-I 25 W/m² 7,3 °C 8,2 °C 0,0 km/h (0 Bft)
03.11.2019 07:44 8,2 °C 94 % 989,7 hPa 0,0 mm 0,1 km/h (0 Bft) O-NO 57 ° 0 min 0,000 mm 0,0 UV-I 26 W/m² 7,3 °C 8,2 °C 1,6 km/h (1 Bft)
03.11.2019 07:45 8,2 °C 94 % 989,7 hPa 0,0 mm 1,1 km/h (1 Bft) O-NO 57 ° 0 min 0,000 mm 0,0 UV-I 26 W/m² 7,3 °C 8,2 °C 4,8 km/h (1 Bft)
03.11.2019 07:46 8,2 °C 94 % 989,7 hPa 0,0 mm 2,0 km/h (1 Bft) O-NO 57 ° 0 min 0,000 mm 0,0 UV-I 30 W/m² 7,3 °C 8,2 °C 3,2 km/h (1 Bft)
03.11.2019 07:47 8,2 °C 94 % 989,7 hPa 0,0 mm 0,2 km/h (0 Bft) O-NO 57 ° 0 min 0,000 mm 0,0 UV-I 32 W/m² 7,3 °C 8,2 °C 1,6 km/h (1 Bft)
03.11.2019 07:48 8,2 °C 94 % 989,7 hPa 0,0 mm 0,1 km/h (0 Bft) O-NO 57 ° 0 min 0,000 mm 0,0 UV-I 44 W/m² 7,3 °C 8,2 °C 1,6 km/h (1 Bft)
03.11.2019 07:49 8,2 °C 94 % 989,7 hPa 0,0 mm 4,0 km/h (1 Bft) O-NO 57 ° 0 min 0,000 mm 0,0 UV-I 54 W/m² 7,3 °C 8,2 °C 4,8 km/h (1 Bft)
03.11.2019 07:50 8,2 °C 94 % 989,7 hPa 0,0 mm 3,1 km/h (1 Bft) O-NO 57 ° 0 min 0,000 mm 0,0 UV-I 58 W/m² 7,3 °C 8,2 °C 4,8 km/h (1 Bft)
03.11.2019 07:51 8,2 °C 94 % 989,7 hPa 0,0 mm 3,6 km/h (1 Bft) O 99 ° 0 min 0,000 mm 0,0 UV-I 63 W/m² 7,3 °C 8,2 °C 4,8 km/h (1 Bft)
03.11.2019 07:52 8,2 °C 94 % 989,7 hPa 0,0 mm 1,5 km/h (1 Bft) O 99 ° 0 min 0,000 mm 0,0 UV-I 63 W/m² 7,3 °C 8,2 °C 3,2 km/h (1 Bft)
03.11.2019 07:53 8,3 °C 94 % 989,7 hPa 0,0 mm 0,1 km/h (0 Bft) O 99 ° 0 min 0,000 mm 0,0 UV-I 53 W/m² 7,4 °C 8,3 °C 1,6 km/h (1 Bft)
03.11.2019 07:54 8,2 °C 94 % 989,7 hPa 0,0 mm 0,0 km/h (0 Bft) O 99 ° 0 min 0,000 mm 0,0 UV-I 54 W/m² 7,3 °C 8,2 °C 0,0 km/h (0 Bft)
03.11.2019 07:55 8,3 °C 94 % 989,7 hPa 0,0 mm 1,1 km/h (1 Bft) O 99 ° 0 min 0,000 mm 0,0 UV-I 56 W/m² 7,4 °C 8,3 °C 3,2 km/h (1 Bft)
03.11.2019 07:56 8,3 °C 94 % 989,7 hPa 0,0 mm 1,0 km/h (0 Bft) O 99 ° 0 min 0,000 mm 0,0 UV-I 58 W/m² 7,4 °C 8,3 °C 3,2 km/h (1 Bft)
03.11.2019 07:57 8,3 °C 94 % 989,8 hPa 0,0 mm 1,5 km/h (1 Bft) O 99 ° 0 min 0,000 mm 0,0 UV-I 60 W/m² 7,4 °C 8,3 °C 3,2 km/h (1 Bft)
03.11.2019 07:58 8,3 °C 94 % 989,8 hPa 0,0 mm 2,2 km/h (1 Bft) O 99 ° 0 min 0,000 mm 0,0 UV-I 63 W/m² 7,4 °C 8,3 °C 3,2 km/h (1 Bft)
03.11.2019 07:59 8,3 °C 94 % 989,7 hPa 0,0 mm 4,0 km/h (1 Bft) NO 53 ° 0 min 0,000 mm 0,0 UV-I 79 W/m² 7,4 °C 8,3 °C 8,0 km/h (2 Bft)
03.11.2019 08:00 8,3 °C 94 % 989,7 hPa 0,0 mm 4,2 km/h (1 Bft) O-NO 59 ° 0 min 0,025 mm 0,0 UV-I 81 W/m² 7,4 °C 8,3 °C 8,0 km/h (2 Bft)
03.11.2019 08:01 8,3 °C 94 % 989,8 hPa 0,0 mm 2,0 km/h (1 Bft) O-NO 59 ° 0 min 0,000 mm 0,0 UV-I 72 W/m² 7,4 °C 8,3 °C 3,2 km/h (1 Bft)
03.11.2019 08:02 8,3 °C 94 % 989,7 hPa 0,0 mm 2,9 km/h (1 Bft) O-NO 59 ° 0 min 0,000 mm 0,0 UV-I 67 W/m² 7,4 °C 8,3 °C 4,8 km/h (1 Bft)
03.11.2019 08:03 8,3 °C 94 % 989,8 hPa 0,0 mm 2,8 km/h (1 Bft) O-SO 111 ° 0 min 0,000 mm 0,0 UV-I 63 W/m² 7,4 °C 8,3 °C 4,8 km/h (1 Bft)
03.11.2019 08:04 8,3 °C 94 % 989,8 hPa 0,0 mm 1,5 km/h (1 Bft) O 97 ° 0 min 0,000 mm 0,0 UV-I 62 W/m² 7,4 °C 8,3 °C 3,2 km/h (1 Bft)
03.11.2019 08:05 8,3 °C 94 % 989,8 hPa 0,0 mm 1,7 km/h (1 Bft) O 97 ° 0 min 0,000 mm 0,0 UV-I 58 W/m² 7,4 °C 8,3 °C 4,8 km/h (1 Bft)
03.11.2019 08:06 8,4 °C 94 % 989,9 hPa 0,0 mm 3,6 km/h (1 Bft) O 97 ° 0 min 0,000 mm 0,0 UV-I 58 W/m² 7,5 °C 8,4 °C 4,8 km/h (1 Bft)
03.11.2019 08:07 8,4 °C 94 % 989,9 hPa 0,0 mm 1,7 km/h (1 Bft) O 97 ° 0 min 0,000 mm 0,0 UV-I 56 W/m² 7,5 °C 8,4 °C 3,2 km/h (1 Bft)
03.11.2019 08:08 8,3 °C 94 % 989,8 hPa 0,0 mm 0,1 km/h (0 Bft) O 97 ° 0 min 0,000 mm 0,0 UV-I 53 W/m² 7,4 °C 8,3 °C 1,6 km/h (1 Bft)
03.11.2019 08:09 8,4 °C 94 % 989,9 hPa 0,0 mm 0,0 km/h (0 Bft) O 97 ° 0 min 0,000 mm 0,0 UV-I 49 W/m² 7,5 °C 8,4 °C 0,0 km/h (0 Bft)
03.11.2019 08:10 8,4 °C 94 % 989,8 hPa 0,0 mm 0,7 km/h (0 Bft) O 97 ° 0 min 0,000 mm 0,0 UV-I 49 W/m² 7,5 °C 8,4 °C 1,6 km/h (1 Bft)
03.11.2019 08:11 8,4 °C 94 % 989,8 hPa 0,0 mm 0,0 km/h (0 Bft) O 97 ° 0 min 0,000 mm 0,0 UV-I 49 W/m² 7,5 °C 8,4 °C 0,0 km/h (0 Bft)
03.11.2019 08:12 8,4 °C 94 % 989,8 hPa 0,0 mm 1,2 km/h (1 Bft) O 97 ° 0 min 0,000 mm 0,0 UV-I 49 W/m² 7,5 °C 8,4 °C 3,2 km/h (1 Bft)
03.11.2019 08:13 8,4 °C 94 % 989,9 hPa 0,0 mm 2,1 km/h (1 Bft) O 97 ° 0 min 0,000 mm 0,0 UV-I 46 W/m² 7,5 °C 8,4 °C 3,2 km/h (1 Bft)
03.11.2019 08:14 8,4 °C 94 % 989,9 hPa 0,0 mm 0,1 km/h (0 Bft) O 97 ° 0 min 0,000 mm 0,0 UV-I 44 W/m² 7,5 °C 8,4 °C 1,6 km/h (1 Bft)
03.11.2019 08:15 8,4 °C 94 % 989,9 hPa 0,0 mm 0,7 km/h (0 Bft) O 97 ° 0 min 0,000 mm 0,0 UV-I 42 W/m² 7,5 °C 8,4 °C 1,6 km/h (1 Bft)
03.11.2019 08:16 8,4 °C 94 % 989,9 hPa 0,0 mm 0,0 km/h (0 Bft) O 97 ° 0 min 0,000 mm 0,0 UV-I 37 W/m² 7,5 °C 8,4 °C 0,0 km/h (0 Bft)
03.11.2019 08:17 8,4 °C 94 % 989,9 hPa 0,0 mm 1,3 km/h (1 Bft) O 97 ° 0 min 0,000 mm 0,0 UV-I 35 W/m² 7,5 °C 8,4 °C 3,2 km/h (1 Bft)
03.11.2019 08:18 8,4 °C 94 % 989,9 hPa 0,0 mm 0,7 km/h (0 Bft) O 97 ° 0 min 0,000 mm 0,0 UV-I 35 W/m² 7,5 °C 8,4 °C 1,6 km/h (1 Bft)
03.11.2019 08:19 8,4 °C 94 % 989,9 hPa 0,0 mm 1,7 km/h (1 Bft) O 97 ° 0 min 0,000 mm 0,0 UV-I 37 W/m² 7,5 °C 8,4 °C 3,2 km/h (1 Bft)
03.11.2019 08:20 8,5 °C 94 % 989,9 hPa 0,0 mm 1,0 km/h (0 Bft) O 98 ° 0 min 0,000 mm 0,0 UV-I 35 W/m² 7,6 °C 8,5 °C 3,2 km/h (1 Bft)
03.11.2019 08:21 8,5 °C 94 % 989,8 hPa 0,0 mm 0,6 km/h (0 Bft) O 97 ° 0 min 0,000 mm 0,0 UV-I 33 W/m² 7,6 °C 8,5 °C 3,2 km/h (1 Bft)
03.11.2019 08:22 8,5 °C 94 % 989,9 hPa 0,0 mm 2,4 km/h (1 Bft) O 97 ° 0 min 0,000 mm 0,0 UV-I 32 W/m² 7,6 °C 8,5 °C 4,8 km/h (1 Bft)
03.11.2019 08:23 8,6 °C 94 % 989,9 hPa 0,0 mm 4,2 km/h (1 Bft) O 94 ° 0 min 0,000 mm 0,0 UV-I 33 W/m² 7,7 °C 8,6 °C 6,4 km/h (2 Bft)
03.11.2019 08:24 8,6 °C 94 % 989,9 hPa 0,0 mm 2,7 km/h (1 Bft) O 94 ° 0 min 0,000 mm 0,0 UV-I 35 W/m² 7,7 °C 8,6 °C 4,8 km/h (1 Bft)
03.11.2019 08:25 8,6 °C 94 % 989,8 hPa 0,0 mm 2,7 km/h (1 Bft) O 94 ° 0 min 0,000 mm 0,0 UV-I 40 W/m² 7,7 °C 8,6 °C 4,8 km/h (1 Bft)
03.11.2019 08:26 8,6 °C 94 % 989,8 hPa 0,0 mm 3,3 km/h (1 Bft) O 86 ° 0 min 0,000 mm 0,0 UV-I 46 W/m² 7,7 °C 8,6 °C 4,8 km/h (1 Bft)
03.11.2019 08:27 8,6 °C 94 % 989,8 hPa 0,0 mm 4,1 km/h (1 Bft) O-NO 71 ° 0 min 0,000 mm 0,0 UV-I 47 W/m² 7,7 °C 8,6 °C 8,0 km/h (2 Bft)
03.11.2019 08:28 8,6 °C 94 % 989,8 hPa 0,0 mm 3,3 km/h (1 Bft) O-NO 65 ° 0 min 0,000 mm 0,0 UV-I 37 W/m² 7,7 °C 8,6 °C 4,8 km/h (1 Bft)
03.11.2019 08:29 8,6 °C 94 % 989,8 hPa 0,0 mm 2,4 km/h (1 Bft) O-NO 69 ° 0 min 0,000 mm 0,0 UV-I 33 W/m² 7,7 °C 8,6 °C 4,8 km/h (1 Bft)
03.11.2019 08:30 8,6 °C 94 % 989,8 hPa 0,0 mm 1,0 km/h (0 Bft) O-NO 69 ° 0 min 0,000 mm 0,0 UV-I 33 W/m² 7,7 °C 8,6 °C 3,2 km/h (1 Bft)
03.11.2019 08:31 8,6 °C 94 % 989,8 hPa 0,0 mm 0,9 km/h (0 Bft) O-NO 69 ° 0 min 0,000 mm 0,0 UV-I 33 W/m² 7,7 °C 8,6 °C 3,2 km/h (1 Bft)
03.11.2019 08:32 8,6 °C 94 % 989,8 hPa 0,0 mm 0,0 km/h (0 Bft) O-NO 69 ° 0 min 0,000 mm 0,0 UV-I 33 W/m² 7,7 °C 8,6 °C 0,0 km/h (0 Bft)
03.11.2019 08:33 8,6 °C 94 % 989,8 hPa 0,0 mm 3,6 km/h (1 Bft) O-NO 69 ° 0 min 0,000 mm 0,0 UV-I 35 W/m² 7,7 °C 8,6 °C 4,8 km/h (1 Bft)
03.11.2019 08:34 8,6 °C 94 % 989,8 hPa 0,0 mm 4,0 km/h (1 Bft) O-NO 67 ° 0 min 0,000 mm 0,0 UV-I 37 W/m² 7,7 °C 8,6 °C 4,8 km/h (1 Bft)
03.11.2019 08:35 8,6 °C 94 % 989,8 hPa 0,0 mm 4,8 km/h (1 Bft) O-NO 66 ° 0 min 0,000 mm 0,0 UV-I 39 W/m² 7,7 °C 8,2 °C 6,4 km/h (2 Bft)
03.11.2019 08:36 8,7 °C 94 % 989,7 hPa 0,0 mm 4,6 km/h (1 Bft) O-NO 65 ° 0 min 0,000 mm 0,0 UV-I 39 W/m² 7,8 °C 8,4 °C 6,4 km/h (2 Bft)
03.11.2019 08:37 8,7 °C 94 % 989,8 hPa 0,0 mm 3,3 km/h (1 Bft) O-NO 62 ° 0 min 0,000 mm 0,0 UV-I 40 W/m² 7,8 °C 8,7 °C 4,8 km/h (1 Bft)
03.11.2019 08:38 8,7 °C 94 % 989,8 hPa 0,0 mm 3,4 km/h (1 Bft) O-NO 65 ° 0 min 0,000 mm 0,0 UV-I 40 W/m² 7,8 °C 8,7 °C 4,8 km/h (1 Bft)
03.11.2019 08:39 8,7 °C 94 % 989,6 hPa 0,2 mm 4,4 km/h (1 Bft) O-NO 71 ° 0 min 0,000 mm 0,0 UV-I 42 W/m² 7,8 °C 8,7 °C 6,4 km/h (2 Bft)
03.11.2019 08:40 8,7 °C 93 % 989,6 hPa 0,0 mm 2,8 km/h (1 Bft) O 87 ° 0 min 0,000 mm 0,0 UV-I 42 W/m² 7,6 °C 8,7 °C 4,8 km/h (1 Bft)
03.11.2019 08:41 8,7 °C 93 % 989,7 hPa 0,0 mm 1,7 km/h (1 Bft) NO 45 ° 0 min 0,000 mm 0,0 UV-I 42 W/m² 7,6 °C 8,7 °C 4,8 km/h (1 Bft)
03.11.2019 08:42 8,7 °C 93 % 989,6 hPa 0,0 mm 0,3 km/h (0 Bft) NO 45 ° 0 min 0,000 mm 0,0 UV-I 42 W/m² 7,6 °C 8,7 °C 1,6 km/h (1 Bft)
03.11.2019 08:43 8,7 °C 93 % 989,6 hPa 0,0 mm 3,7 km/h (1 Bft) O-NO 59 ° 0 min 0,000 mm 0,0 UV-I 40 W/m² 7,6 °C 8,7 °C 6,4 km/h (2 Bft)
03.11.2019 08:44 8,7 °C 94 % 989,6 hPa 0,0 mm 2,1 km/h (1 Bft) O-NO 59 ° 0 min 0,000 mm 0,0 UV-I 40 W/m² 7,8 °C 8,7 °C 4,8 km/h (1 Bft)
03.11.2019 08:45 8,7 °C 94 % 989,6 hPa 0,0 mm 1,7 km/h (1 Bft) O-NO 59 ° 0 min 0,000 mm 0,0 UV-I 40 W/m² 7,8 °C 8,7 °C 4,8 km/h (1 Bft)
03.11.2019 08:46 8,7 °C 94 % 989,6 hPa 0,0 mm 3,9 km/h (1 Bft) O-NO 67 ° 0 min 0,000 mm 0,0 UV-I 39 W/m² 7,8 °C 8,7 °C 6,4 km/h (2 Bft)
03.11.2019 08:47 8,7 °C 94 % 989,6 hPa 0,0 mm 3,6 km/h (1 Bft) O-NO 66 ° 0 min 0,000 mm 0,0 UV-I 39 W/m² 7,8 °C 8,7 °C 4,8 km/h (1 Bft)
03.11.2019 08:48 8,7 °C 94 % 989,6 hPa 0,0 mm 3,1 km/h (1 Bft) O-NO 65 ° 0 min 0,000 mm 0,0 UV-I 40 W/m² 7,8 °C 8,7 °C 6,4 km/h (2 Bft)
03.11.2019 08:49 8,7 °C 93 % 989,5 hPa 0,0 mm 3,8 km/h (1 Bft) O-NO 65 ° 0 min 0,000 mm 0,0 UV-I 40 W/m² 7,6 °C 8,7 °C 8,0 km/h (2 Bft)
03.11.2019 08:50 8,7 °C 93 % 989,5 hPa 0,0 mm 2,9 km/h (1 Bft) O-NO 67 ° 0 min 0,000 mm 0,0 UV-I 40 W/m² 7,6 °C 8,7 °C 4,8 km/h (1 Bft)
03.11.2019 08:51 8,7 °C 93 % 989,5 hPa 0,0 mm 3,6 km/h (1 Bft) O-NO 66 ° 0 min 0,000 mm 0,0 UV-I 40 W/m² 7,6 °C 8,7 °C 4,8 km/h (1 Bft)
03.11.2019 08:52 8,7 °C 93 % 989,5 hPa 0,0 mm 3,4 km/h (1 Bft) O-NO 67 ° 0 min 0,000 mm 0,0 UV-I 40 W/m² 7,6 °C 8,7 °C 4,8 km/h (1 Bft)
03.11.2019 08:53 8,7 °C 93 % 989,5 hPa 0,0 mm 1,2 km/h (1 Bft) O-NO 73 ° 0 min 0,000 mm 0,0 UV-I 40 W/m² 7,6 °C 8,7 °C 3,2 km/h (1 Bft)
03.11.2019 08:54 8,7 °C 93 % 989,5 hPa 0,0 mm 3,8 km/h (1 Bft) O 81 ° 0 min 0,000 mm 0,0 UV-I 40 W/m² 7,6 °C 8,7 °C 4,8 km/h (1 Bft)
03.11.2019 08:55 8,7 °C 93 % 989,4 hPa 0,0 mm 3,5 km/h (1 Bft) O 82 ° 0 min 0,000 mm 0,0 UV-I 40 W/m² 7,6 °C 8,7 °C 6,4 km/h (2 Bft)
03.11.2019 08:56 8,7 °C 93 % 989,4 hPa 0,0 mm 0,8 km/h (0 Bft) O 82 ° 0 min 0,000 mm 0,0 UV-I 40 W/m² 7,6 °C 8,7 °C 3,2 km/h (1 Bft)
03.11.2019 08:57 8,7 °C 93 % 989,4 hPa 0,0 mm 1,5 km/h (1 Bft) O 82 ° 0 min 0,000 mm 0,0 UV-I 40 W/m² 7,6 °C 8,7 °C 1,6 km/h (1 Bft)
03.11.2019 08:58 8,8 °C 93 % 989,4 hPa 0,0 mm 3,2 km/h (1 Bft) NO 56 ° 0 min 0,000 mm 0,0 UV-I 42 W/m² 7,7 °C 8,8 °C 6,4 km/h (2 Bft)
03.11.2019 08:59 8,8 °C 93 % 989,4 hPa 0,0 mm 2,5 km/h (1 Bft) O 88 ° 0 min 0,000 mm 0,0 UV-I 42 W/m² 7,7 °C 8,8 °C 4,8 km/h (1 Bft)
03.11.2019 09:00 8,8 °C 93 % 989,4 hPa 0,0 mm 1,2 km/h (1 Bft) O 86 ° 0 min 0,000 mm 0,0 UV-I 42 W/m² 7,7 °C 8,8 °C 3,2 km/h (1 Bft)
03.11.2019 09:01 8,8 °C 93 % 989,4 hPa 0,0 mm 2,2 km/h (1 Bft) O 86 ° 0 min 0,026 mm 0,0 UV-I 42 W/m² 7,7 °C 8,8 °C 4,8 km/h (1 Bft)
03.11.2019 09:02 8,8 °C 93 % 989,4 hPa 0,0 mm 1,2 km/h (1 Bft) O 86 ° 0 min 0,000 mm 0,0 UV-I 42 W/m² 7,7 °C 8,8 °C 3,2 km/h (1 Bft)
03.11.2019 09:03 8,8 °C 93 % 989,4 hPa 0,0 mm 2,7 km/h (1 Bft) O 86 ° 0 min 0,000 mm 0,0 UV-I 42 W/m² 7,7 °C 8,8 °C 4,8 km/h (1 Bft)
03.11.2019 09:04 8,8 °C 93 % 989,4 hPa 0,0 mm 1,9 km/h (1 Bft) O 90 ° 0 min 0,000 mm 0,0 UV-I 42 W/m² 7,7 °C 8,8 °C 3,2 km/h (1 Bft)
03.11.2019 09:05 8,8 °C 93 % 989,3 hPa 0,0 mm 2,0 km/h (1 Bft) NO 56 ° 0 min 0,000 mm 0,0 UV-I 44 W/m² 7,7 °C 8,8 °C 8,0 km/h (2 Bft)
03.11.2019 09:06 8,8 °C 93 % 989,3 hPa 0,0 mm 5,2 km/h (1 Bft) NO 52 ° 0 min 0,000 mm 0,0 UV-I 44 W/m² 7,7 °C 8,3 °C 9,7 km/h (2 Bft)
03.11.2019 09:07 8,8 °C 93 % 989,2 hPa 0,0 mm 2,8 km/h (1 Bft) NO 53 ° 0 min 0,000 mm 0,0 UV-I 44 W/m² 7,7 °C 8,8 °C 4,8 km/h (1 Bft)
03.11.2019 09:08 8,8 °C 93 % 989,2 hPa 0,0 mm 3,0 km/h (1 Bft) NO 53 ° 0 min 0,000 mm 0,0 UV-I 44 W/m² 7,7 °C 8,8 °C 4,8 km/h (1 Bft)
03.11.2019 09:09 8,8 °C 93 % 989,3 hPa 0,0 mm 2,6 km/h (1 Bft) NO 53 ° 0 min 0,000 mm 0,0 UV-I 46 W/m² 7,7 °C 8,8 °C 4,8 km/h (1 Bft)
03.11.2019 09:10 8,8 °C 93 % 989,2 hPa 0,0 mm 1,9 km/h (1 Bft) O 92 ° 0 min 0,000 mm 0,0 UV-I 46 W/m² 7,7 °C 8,8 °C 4,8 km/h (1 Bft)
03.11.2019 09:11 8,8 °C 93 % 989,2 hPa 0,0 mm 3,1 km/h (1 Bft) O-NO 70 ° 0 min 0,000 mm 0,0 UV-I 46 W/m² 7,7 °C 8,8 °C 4,8 km/h (1 Bft)
03.11.2019 09:12 8,8 °C 93 % 989,2 hPa 0,0 mm 2,8 km/h (1 Bft) O-NO 70 ° 0 min 0,000 mm 0,0 UV-I 46 W/m² 7,7 °C 8,8 °C 4,8 km/h (1 Bft)
03.11.2019 09:13 8,8 °C 93 % 989,2 hPa 0,0 mm 5,3 km/h (1 Bft) N 5 ° 0 min 0,000 mm 0,0 UV-I 46 W/m² 7,7 °C 8,3 °C 9,7 km/h (2 Bft)
03.11.2019 09:14 8,9 °C 93 % 989,1 hPa 0,0 mm 5,1 km/h (1 Bft) O 101 ° 0 min 0,000 mm 0,0 UV-I 44 W/m² 7,8 °C 8,5 °C 9,7 km/h (2 Bft)
03.11.2019 09:15 8,9 °C 93 % 989,2 hPa 0,0 mm 0,6 km/h (0 Bft) O 101 ° 0 min 0,000 mm 0,0 UV-I 44 W/m² 7,8 °C 8,9 °C 3,2 km/h (1 Bft)
03.11.2019 09:16 8,9 °C 93 % 989,1 hPa 0,0 mm 2,2 km/h (1 Bft) NO 38 ° 0 min 0,000 mm 0,0 UV-I 44 W/m² 7,8 °C 8,9 °C 6,4 km/h (2 Bft)
03.11.2019 09:17 8,9 °C 93 % 989,2 hPa 0,0 mm 7,1 km/h (2 Bft) O-NO 70 ° 0 min 0,000 mm 0,0 UV-I 44 W/m² 7,8 °C 7,9 °C 12,9 km/h (3 Bft)
03.11.2019 09:18 8,9 °C 93 % 989,1 hPa 0,0 mm 2,6 km/h (1 Bft) O-NO 70 ° 0 min 0,000 mm 0,0 UV-I 44 W/m² 7,8 °C 8,9 °C 4,8 km/h (1 Bft)
03.11.2019 09:19 8,9 °C 93 % 989,1 hPa 0,0 mm 2,0 km/h (1 Bft) NO 56 ° 0 min 0,000 mm 0,0 UV-I 44 W/m² 7,8 °C 8,9 °C 4,8 km/h (1 Bft)
03.11.2019 09:20 8,9 °C 93 % 989,1 hPa 0,0 mm 1,0 km/h (0 Bft) NO 56 ° 0 min 0,000 mm 0,0 UV-I 46 W/m² 7,8 °C 8,9 °C 4,8 km/h (1 Bft)
03.11.2019 09:21 8,9 °C 93 % 989,1 hPa 0,0 mm 0,0 km/h (0 Bft) NO 56 ° 0 min 0,000 mm 0,0 UV-I 47 W/m² 7,8 °C 8,9 °C 0,0 km/h (0 Bft)
03.11.2019 09:22 8,9 °C 93 % 989,1 hPa 0,0 mm 2,9 km/h (1 Bft) NO 56 ° 0 min 0,000 mm 0,0 UV-I 47 W/m² 7,8 °C 8,9 °C 9,7 km/h (2 Bft)
03.11.2019 09:23 8,9 °C 92 % 989,1 hPa 0,0 mm 3,4 km/h (1 Bft) O-NO 65 ° 0 min 0,000 mm 0,0 UV-I 49 W/m² 7,7 °C 8,9 °C 6,4 km/h (2 Bft)
03.11.2019 09:24 8,9 °C 92 % 989,1 hPa 0,0 mm 5,8 km/h (2 Bft) O-NO 59 ° 0 min 0,000 mm 0,0 UV-I 49 W/m² 7,7 °C 8,3 °C 8,0 km/h (2 Bft)
03.11.2019 09:25 8,9 °C 92 % 989,2 hPa 0,0 mm 5,6 km/h (1 Bft) NO 52 ° 0 min 0,000 mm 0,0 UV-I 51 W/m² 7,7 °C 8,3 °C 9,7 km/h (2 Bft)
03.11.2019 09:26 8,9 °C 92 % 989,2 hPa 0,0 mm 4,5 km/h (1 Bft) NO 44 ° 0 min 0,000 mm 0,0 UV-I 51 W/m² 7,7 °C 8,9 °C 6,4 km/h (2 Bft)
03.11.2019 09:27 8,9 °C 92 % 989,2 hPa 0,0 mm 2,7 km/h (1 Bft) NO 44 ° 0 min 0,000 mm 0,0 UV-I 53 W/m² 7,7 °C 8,9 °C 3,2 km/h (1 Bft)
03.11.2019 09:28 8,9 °C 92 % 989,2 hPa 0,0 mm 2,1 km/h (1 Bft) NO 50 ° 0 min 0,000 mm 0,0 UV-I 53 W/m² 7,7 °C 8,9 °C 6,4 km/h (2 Bft)
03.11.2019 09:29 8,9 °C 92 % 989,2 hPa 0,0 mm 6,2 km/h (2 Bft) O-NO 72 ° 0 min 0,000 mm 0,0 UV-I 53 W/m² 7,7 °C 8,2 °C 9,7 km/h (2 Bft)
03.11.2019 09:30 8,9 °C 92 % 989,3 hPa 0,0 mm 3,0 km/h (1 Bft) O-NO 72 ° 0 min 0,000 mm 0,0 UV-I 54 W/m² 7,7 °C 8,9 °C 4,8 km/h (1 Bft)
03.11.2019 09:31 8,9 °C 92 % 989,2 hPa 0,0 mm 0,1 km/h (0 Bft) O-NO 72 ° 0 min 0,000 mm 0,0 UV-I 54 W/m² 7,7 °C 8,9 °C 1,6 km/h (1 Bft)
03.11.2019 09:32 8,9 °C 92 % 989,2 hPa 0,0 mm 4,3 km/h (1 Bft) O-NO 67 ° 0 min 0,000 mm 0,0 UV-I 53 W/m² 7,7 °C 8,9 °C 8,0 km/h (2 Bft)
03.11.2019 09:33 8,9 °C 92 % 989,2 hPa 0,0 mm 2,5 km/h (1 Bft) O-NO 67 ° 0 min 0,000 mm 0,0 UV-I 51 W/m² 7,7 °C 8,9 °C 4,8 km/h (1 Bft)
03.11.2019 09:34 9,0 °C 92 % 989,2 hPa 0,0 mm 4,6 km/h (1 Bft) O-NO 57 ° 0 min 0,000 mm 0,0 UV-I 51 W/m² 7,8 °C 8,8 °C 6,4 km/h (2 Bft)
03.11.2019 09:35 9,0 °C 92 % 989,2 hPa 0,0 mm 5,2 km/h (1 Bft) O-NO 67 ° 0 min 0,000 mm 0,0 UV-I 51 W/m² 7,8 °C 8,6 °C 8,0 km/h (2 Bft)
03.11.2019 09:36 9,0 °C 92 % 989,2 hPa 0,0 mm 1,5 km/h (1 Bft) O-NO 67 ° 0 min 0,000 mm 0,0 UV-I 51 W/m² 7,8 °C 9,0 °C 3,2 km/h (1 Bft)
03.11.2019 09:37 9,0 °C 92 % 989,3 hPa 0,0 mm 2,0 km/h (1 Bft) O-NO 65 ° 0 min 0,000 mm 0,0 UV-I 51 W/m² 7,8 °C 9,0 °C 4,8 km/h (1 Bft)
03.11.2019 09:38 9,0 °C 92 % 989,3 hPa 0,0 mm 2,5 km/h (1 Bft) O-NO 65 ° 0 min 0,000 mm 0,0 UV-I 51 W/m² 7,8 °C 9,0 °C 4,8 km/h (1 Bft)
03.11.2019 09:39 9,0 °C 92 % 989,3 hPa 0,0 mm 2,2 km/h (1 Bft) O-NO 65 ° 0 min 0,000 mm 0,0 UV-I 49 W/m² 7,8 °C 9,0 °C 4,8 km/h (1 Bft)
03.11.2019 09:40 9,0 °C 92 % 989,3 hPa 0,0 mm 4,7 km/h (1 Bft) O-SO 115 ° 0 min 0,000 mm 0,0 UV-I 49 W/m² 7,8 °C 8,7 °C 9,7 km/h (2 Bft)
03.11.2019 09:41 9,0 °C 92 % 989,4 hPa 0,0 mm 4,5 km/h (1 Bft) S-SO 149 ° 0 min 0,000 mm 0,0 UV-I 47 W/m² 7,8 °C 9,0 °C 6,4 km/h (2 Bft)
03.11.2019 09:42 9,1 °C 92 % 989,3 hPa 0,0 mm 2,4 km/h (1 Bft) S-SO 150 ° 0 min 0,000 mm 0,0 UV-I 47 W/m² 7,9 °C 9,1 °C 6,4 km/h (2 Bft)
03.11.2019 09:43 9,1 °C 91 % 989,3 hPa 0,0 mm 1,8 km/h (1 Bft) O-NO 70 ° 0 min 0,000 mm 0,0 UV-I 47 W/m² 7,7 °C 9,1 °C 6,4 km/h (2 Bft)
03.11.2019 09:44 9,1 °C 91 % 989,3 hPa 0,0 mm 3,0 km/h (1 Bft) O-NO 70 ° 0 min 0,000 mm 0,0 UV-I 47 W/m² 7,7 °C 9,1 °C 4,8 km/h (1 Bft)
03.11.2019 09:45 9,1 °C 91 % 989,3 hPa 0,0 mm 3,2 km/h (1 Bft) O-NO 78 ° 0 min 0,000 mm 0,0 UV-I 47 W/m² 7,7 °C 9,1 °C 6,4 km/h (2 Bft)
03.11.2019 09:46 9,1 °C 91 % 989,2 hPa 0,0 mm 4,4 km/h (1 Bft) O-NO 74 ° 0 min 0,000 mm 0,0 UV-I 49 W/m² 7,7 °C 9,1 °C 6,4 km/h (2 Bft)
03.11.2019 09:47 9,1 °C 91 % 989,2 hPa 0,0 mm 3,0 km/h (1 Bft) O-NO 57 ° 0 min 0,000 mm 0,0 UV-I 51 W/m² 7,7 °C 9,1 °C 6,4 km/h (2 Bft)
03.11.2019 09:48 9,1 °C 91 % 989,2 hPa 0,0 mm 2,4 km/h (1 Bft) O-NO 59 ° 0 min 0,000 mm 0,0 UV-I 49 W/m² 7,7 °C 9,1 °C 4,8 km/h (1 Bft)
03.11.2019 09:49 9,1 °C 91 % 989,3 hPa 0,0 mm 1,0 km/h (0 Bft) O-NO 59 ° 0 min 0,000 mm 0,0 UV-I 49 W/m² 7,7 °C 9,1 °C 3,2 km/h (1 Bft)
03.11.2019 09:50 9,1 °C 91 % 989,3 hPa 0,0 mm 0,4 km/h (0 Bft) O-NO 59 ° 0 min 0,000 mm 0,0 UV-I 47 W/m² 7,7 °C 9,1 °C 1,6 km/h (1 Bft)
03.11.2019 09:51 9,1 °C 91 % 989,4 hPa 0,0 mm 0,0 km/h (0 Bft) O-NO 59 ° 0 min 0,000 mm 0,0 UV-I 47 W/m² 7,7 °C 9,1 °C 0,0 km/h (0 Bft)
03.11.2019 09:52 9,1 °C 91 % 989,4 hPa 0,0 mm 1,9 km/h (1 Bft) O-NO 59 ° 0 min 0,000 mm 0,0 UV-I 49 W/m² 7,7 °C 9,1 °C 3,2 km/h (1 Bft)
03.11.2019 09:53 9,1 °C 91 % 989,4 hPa 0,0 mm 1,5 km/h (1 Bft) O-NO 59 ° 0 min 0,000 mm 0,0 UV-I 51 W/m² 7,7 °C 9,1 °C 3,2 km/h (1 Bft)
03.11.2019 09:54 9,1 °C 91 % 989,4 hPa 0,0 mm 0,0 km/h (0 Bft) O-NO 59 ° 0 min 0,000 mm 0,0 UV-I 51 W/m² 7,7 °C 9,1 °C 0,0 km/h (0 Bft)
03.11.2019 09:55 9,1 °C 91 % 989,4 hPa 0,0 mm 0,1 km/h (0 Bft) O-NO 59 ° 0 min 0,000 mm 0,0 UV-I 51 W/m² 7,7 °C 9,1 °C 1,6 km/h (1 Bft)
03.11.2019 09:56 9,1 °C 91 % 989,4 hPa 0,0 mm 2,4 km/h (1 Bft) O-NO 59 ° 0 min 0,000 mm 0,0 UV-I 51 W/m² 7,7 °C 9,1 °C 3,2 km/h (1 Bft)
03.11.2019 09:57 9,2 °C 91 % 989,4 hPa 0,0 mm 1,5 km/h (1 Bft) O-NO 59 ° 0 min 0,000 mm 0,0 UV-I 51 W/m² 7,8 °C 9,2 °C 3,2 km/h (1 Bft)
03.11.2019 09:58 9,2 °C 91 % 989,4 hPa 0,0 mm 1,8 km/h (1 Bft) O-NO 59 ° 0 min 0,000 mm 0,0 UV-I 53 W/m² 7,8 °C 9,2 °C 3,2 km/h (1 Bft)
03.11.2019 09:59 9,2 °C 91 % 989,5 hPa 0,0 mm 3,3 km/h (1 Bft) O-NO 61 ° 0 min 0,000 mm 0,0 UV-I 54 W/m² 7,8 °C 9,2 °C 4,8 km/h (1 Bft)
03.11.2019 10:00 9,2 °C 91 % 989,5 hPa 0,0 mm 3,2 km/h (1 Bft) O-NO 64 ° 0 min 0,000 mm 0,0 UV-I 56 W/m² 7,8 °C 9,2 °C 4,8 km/h (1 Bft)
03.11.2019 10:01 9,2 °C 91 % 989,4 hPa 0,0 mm 2,1 km/h (1 Bft) O-NO 65 ° 0 min 0,025 mm 0,0 UV-I 56 W/m² 7,8 °C 9,2 °C 3,2 km/h (1 Bft)
03.11.2019 10:02 9,2 °C 91 % 989,5 hPa 0,0 mm 3,8 km/h (1 Bft) O-NO 63 ° 0 min 0,000 mm 0,0 UV-I 56 W/m² 7,8 °C 9,2 °C 6,4 km/h (2 Bft)
03.11.2019 10:03 9,2 °C 91 % 989,5 hPa 0,0 mm 3,0 km/h (1 Bft) O-SO 120 ° 0 min 0,000 mm 0,0 UV-I 56 W/m² 7,8 °C 9,2 °C 8,0 km/h (2 Bft)
03.11.2019 10:04 9,2 °C 91 % 989,4 hPa 0,0 mm 4,6 km/h (1 Bft) O-NO 63 ° 0 min 0,000 mm 0,0 UV-I 56 W/m² 7,8 °C 9,0 °C 8,0 km/h (2 Bft)
03.11.2019 10:05 9,2 °C 91 % 989,4 hPa 0,0 mm 4,0 km/h (1 Bft) O-NO 63 ° 0 min 0,000 mm 0,0 UV-I 56 W/m² 7,8 °C 9,2 °C 6,4 km/h (2 Bft)
03.11.2019 10:06 9,2 °C 91 % 989,4 hPa 0,0 mm 1,1 km/h (1 Bft) O-NO 63 ° 0 min 0,000 mm 0,0 UV-I 56 W/m² 7,8 °C 9,2 °C 3,2 km/h (1 Bft)
03.11.2019 10:07 9,2 °C 91 % 989,5 hPa 0,0 mm 0,5 km/h (0 Bft) O-NO 63 ° 0 min 0,000 mm 0,0 UV-I 54 W/m² 7,8 °C 9,2 °C 3,2 km/h (1 Bft)
03.11.2019 10:08 9,2 °C 90 % 989,6 hPa 0,0 mm 2,1 km/h (1 Bft) O 82 ° 0 min 0,000 mm 0,0 UV-I 53 W/m² 7,6 °C 9,2 °C 4,8 km/h (1 Bft)
03.11.2019 10:09 9,3 °C 90 % 989,5 hPa 0,0 mm 3,4 km/h (1 Bft) O-NO 64 ° 0 min 0,000 mm 0,0 UV-I 53 W/m² 7,7 °C 9,3 °C 4,8 km/h (1 Bft)
03.11.2019 10:10 9,3 °C 90 % 989,4 hPa 0,0 mm 4,2 km/h (1 Bft) O-NO 67 ° 0 min 0,000 mm 0,0 UV-I 53 W/m² 7,7 °C 9,3 °C 4,8 km/h (1 Bft)
03.11.2019 10:11 9,3 °C 90 % 989,3 hPa 0,0 mm 6,8 km/h (2 Bft) O 90 ° 0 min 0,000 mm 0,0 UV-I 53 W/m² 7,7 °C 8,5 °C 14,5 km/h (3 Bft)
03.11.2019 10:12 9,3 °C 90 % 989,3 hPa 0,0 mm 0,9 km/h (0 Bft) O 90 ° 0 min 0,000 mm 0,0 UV-I 53 W/m² 7,7 °C 9,3 °C 3,2 km/h (1 Bft)
03.11.2019 10:13 9,3 °C 90 % 989,4 hPa 0,0 mm 3,1 km/h (1 Bft) SO 126 ° 0 min 0,000 mm 0,0 UV-I 53 W/m² 7,7 °C 9,3 °C 6,4 km/h (2 Bft)
03.11.2019 10:14 9,3 °C 90 % 989,4 hPa 0,0 mm 3,4 km/h (1 Bft) O-NO 65 ° 0 min 0,000 mm 0,0 UV-I 54 W/m² 7,7 °C 9,3 °C 6,4 km/h (2 Bft)
03.11.2019 10:15 9,3 °C 90 % 989,2 hPa 0,0 mm 3,5 km/h (1 Bft) O-NO 65 ° 0 min 0,000 mm 0,0 UV-I 54 W/m² 7,7 °C 9,3 °C 6,4 km/h (2 Bft)
03.11.2019 10:16 9,3 °C 90 % 989,2 hPa 0,0 mm 3,4 km/h (1 Bft) SO 125 ° 0 min 0,000 mm 0,0 UV-I 56 W/m² 7,7 °C 9,3 °C 9,7 km/h (2 Bft)
03.11.2019 10:17 9,3 °C 89 % 989,3 hPa 0,0 mm 3,2 km/h (1 Bft) O-NO 68 ° 0 min 0,000 mm 0,0 UV-I 56 W/m² 7,6 °C 9,3 °C 6,4 km/h (2 Bft)
03.11.2019 10:18 9,3 °C 89 % 989,4 hPa 0,0 mm 1,2 km/h (1 Bft) O-NO 68 ° 0 min 0,000 mm 0,0 UV-I 58 W/m² 7,6 °C 9,3 °C 3,2 km/h (1 Bft)
03.11.2019 10:19 9,3 °C 89 % 989,4 hPa 0,0 mm 1,1 km/h (1 Bft) O-NO 68 ° 0 min 0,000 mm 0,0 UV-I 60 W/m² 7,6 °C 9,3 °C 4,8 km/h (1 Bft)
03.11.2019 10:20 9,3 °C 89 % 989,3 hPa 0,0 mm 3,4 km/h (1 Bft) O-NO 68 ° 0 min 0,000 mm 0,0 UV-I 62 W/m² 7,6 °C 9,3 °C 6,4 km/h (2 Bft)
03.11.2019 10:21 9,3 °C 89 % 989,2 hPa 0,0 mm 2,8 km/h (1 Bft) O-NO 66 ° 0 min 0,000 mm 0,0 UV-I 62 W/m² 7,6 °C 9,3 °C 4,8 km/h (1 Bft)
03.11.2019 10:22 9,3 °C 89 % 989,2 hPa 0,0 mm 1,2 km/h (1 Bft) O-NO 66 ° 0 min 0,000 mm 0,0 UV-I 62 W/m² 7,6 °C 9,3 °C 3,2 km/h (1 Bft)
03.11.2019 10:23 9,4 °C 89 % 989,2 hPa 0,0 mm 5,3 km/h (1 Bft) O 88 ° 0 min 0,000 mm 0,5 UV-I 62 W/m² 7,7 °C 9,0 °C 11,3 km/h (2 Bft)
03.11.2019 10:24 9,3 °C 89 % 989,2 hPa 0,0 mm 6,9 km/h (2 Bft) O-NO 67 ° 0 min 0,000 mm 0,5 UV-I 63 W/m² 7,6 °C 8,4 °C 11,3 km/h (2 Bft)
03.11.2019 10:25 9,4 °C 89 % 989,1 hPa 0,0 mm 5,9 km/h (2 Bft) O-NO 64 ° 0 min 0,000 mm 0,5 UV-I 65 W/m² 7,7 °C 8,8 °C 11,3 km/h (2 Bft)
03.11.2019 10:26 9,4 °C 89 % 989,1 hPa 0,0 mm 5,4 km/h (1 Bft) O-NO 76 ° 0 min 0,000 mm 0,5 UV-I 69 W/m² 7,7 °C 9,0 °C 9,7 km/h (2 Bft)
03.11.2019 10:27 9,4 °C 89 % 989,1 hPa 0,0 mm 1,9 km/h (1 Bft) O-NO 66 ° 0 min 0,000 mm 0,5 UV-I 70 W/m² 7,7 °C 9,4 °C 4,8 km/h (1 Bft)
03.11.2019 10:28 9,4 °C 88 % 989,2 hPa 0,0 mm 5,8 km/h (2 Bft) NO 48 ° 0 min 0,000 mm 0,5 UV-I 70 W/m² 7,5 °C 8,8 °C 9,7 km/h (2 Bft)
03.11.2019 10:29 9,4 °C 88 % 989,2 hPa 0,0 mm 5,2 km/h (1 Bft) O 84 ° 0 min 0,000 mm 0,5 UV-I 72 W/m² 7,5 °C 9,0 °C 8,0 km/h (2 Bft)
03.11.2019 10:30 9,4 °C 88 % 989,2 hPa 0,0 mm 3,7 km/h (1 Bft) O-NO 67 ° 0 min 0,000 mm 0,5 UV-I 74 W/m² 7,5 °C 9,4 °C 6,4 km/h (2 Bft)
03.11.2019 10:31 9,4 °C 88 % 989,2 hPa 0,0 mm 3,3 km/h (1 Bft) O-SO 123 ° 0 min 0,000 mm 0,6 UV-I 79 W/m² 7,5 °C 9,4 °C 6,4 km/h (2 Bft)
03.11.2019 10:32 9,4 °C 88 % 989,2 hPa 0,0 mm 5,3 km/h (1 Bft) O-NO 59 ° 0 min 0,000 mm 0,6 UV-I 81 W/m² 7,5 °C 9,0 °C 9,7 km/h (2 Bft)
03.11.2019 10:33 9,4 °C 88 % 989,1 hPa 0,0 mm 6,1 km/h (2 Bft) O-NO 68 ° 0 min 0,000 mm 0,6 UV-I 84 W/m² 7,5 °C 8,8 °C 8,0 km/h (2 Bft)
03.11.2019 10:34 9,4 °C 88 % 989,1 hPa 0,0 mm 4,3 km/h (1 Bft) O 94 ° 0 min 0,000 mm 0,6 UV-I 86 W/m² 7,5 °C 9,4 °C 14,5 km/h (3 Bft)
03.11.2019 10:35 9,4 °C 88 % 989,1 hPa 0,0 mm 5,0 km/h (1 Bft) NO 51 ° 0 min 0,000 mm 0,7 UV-I 86 W/m² 7,5 °C 9,1 °C 12,9 km/h (3 Bft)
03.11.2019 10:36 9,5 °C 88 % 989,1 hPa 0,0 mm 2,4 km/h (1 Bft) O-NO 58 ° 0 min 0,000 mm 0,7 UV-I 88 W/m² 7,6 °C 9,5 °C 8,0 km/h (2 Bft)
03.11.2019 10:37 9,5 °C 88 % 989,1 hPa 0,0 mm 5,9 km/h (2 Bft) NO 49 ° 0 min 0,000 mm 0,7 UV-I 88 W/m² 7,6 °C 8,9 °C 9,7 km/h (2 Bft)
03.11.2019 10:38 9,5 °C 88 % 989,1 hPa 0,0 mm 4,3 km/h (1 Bft) O 92 ° 0 min 0,000 mm 0,7 UV-I 90 W/m² 7,6 °C 9,5 °C 6,4 km/h (2 Bft)
03.11.2019 10:39 9,5 °C 87 % 989,1 hPa 0,0 mm 4,4 km/h (1 Bft) O-NO 67 ° 0 min 0,000 mm 0,7 UV-I 91 W/m² 7,4 °C 9,5 °C 6,4 km/h (2 Bft)
03.11.2019 10:40 9,6 °C 88 % 989,1 hPa 0,0 mm 5,0 km/h (1 Bft) O-NO 77 ° 0 min 0,000 mm 0,7 UV-I 93 W/m² 7,7 °C 9,3 °C 8,0 km/h (2 Bft)
03.11.2019 10:41 9,6 °C 87 % 989,0 hPa 0,0 mm 3,4 km/h (1 Bft) N-NO 25 ° 0 min 0,000 mm 0,7 UV-I 95 W/m² 7,5 °C 9,6 °C 4,8 km/h (1 Bft)
03.11.2019 10:42 9,6 °C 87 % 989,0 hPa 0,0 mm 3,5 km/h (1 Bft) NO 50 ° 0 min 0,000 mm 0,7 UV-I 97 W/m² 7,5 °C 9,6 °C 4,8 km/h (1 Bft)
03.11.2019 10:43 9,6 °C 87 % 989,0 hPa 0,0 mm 5,7 km/h (1 Bft) O 92 ° 0 min 0,000 mm 0,7 UV-I 102 W/m² 7,5 °C 9,1 °C 9,7 km/h (2 Bft)
03.11.2019 10:44 9,6 °C 88 % 989,0 hPa 0,0 mm 6,2 km/h (2 Bft) O-NO 74 ° 0 min 0,000 mm 0,7 UV-I 104 W/m² 7,7 °C 9,0 °C 9,7 km/h (2 Bft)
03.11.2019 10:45 9,6 °C 88 % 989,0 hPa 0,0 mm 4,4 km/h (1 Bft) O-NO 62 ° 0 min 0,000 mm 0,8 UV-I 107 W/m² 7,7 °C 9,6 °C 6,4 km/h (2 Bft)
03.11.2019 10:46 9,6 °C 87 % 989,0 hPa 0,0 mm 5,9 km/h (2 Bft) O-NO 73 ° 0 min 0,000 mm 0,8 UV-I 109 W/m² 7,5 °C 9,0 °C 6,4 km/h (2 Bft)
03.11.2019 10:47 9,7 °C 88 % 989,0 hPa 0,0 mm 8,1 km/h (2 Bft) O-NO 61 ° 0 min 0,000 mm 0,8 UV-I 109 W/m² 7,8 °C 8,6 °C 12,9 km/h (3 Bft)
03.11.2019 10:48 9,7 °C 88 % 988,9 hPa 0,0 mm 8,0 km/h (2 Bft) O-NO 59 ° 0 min 0,000 mm 0,8 UV-I 109 W/m² 7,8 °C 8,7 °C 12,9 km/h (3 Bft)
03.11.2019 10:49 9,7 °C 88 % 988,8 hPa 0,0 mm 8,5 km/h (2 Bft) O-NO 66 ° 0 min 0,000 mm 0,8 UV-I 104 W/m² 7,8 °C 8,6 °C 14,5 km/h (3 Bft)
03.11.2019 10:50 9,7 °C 88 % 988,8 hPa 0,0 mm 8,4 km/h (2 Bft) O-NO 58 ° 0 min 0,000 mm 0,8 UV-I 102 W/m² 7,8 °C 8,6 °C 12,9 km/h (3 Bft)
03.11.2019 10:51 9,7 °C 88 % 988,8 hPa 0,0 mm 5,8 km/h (2 Bft) O 88 ° 0 min 0,000 mm 0,8 UV-I 102 W/m² 7,8 °C 9,2 °C 8,0 km/h (2 Bft)
03.11.2019 10:52 9,7 °C 88 % 988,8 hPa 0,0 mm 5,0 km/h (1 Bft) O-NO 65 ° 0 min 0,000 mm 0,8 UV-I 104 W/m² 7,8 °C 9,4 °C 8,0 km/h (2 Bft)
03.11.2019 10:53 9,7 °C 88 % 988,8 hPa 0,0 mm 4,3 km/h (1 Bft) O-NO 63 ° 0 min 0,000 mm 0,8 UV-I 105 W/m² 7,8 °C 9,7 °C 8,0 km/h (2 Bft)
03.11.2019 10:54 9,8 °C 88 % 988,8 hPa 0,0 mm 5,0 km/h (1 Bft) O 81 ° 0 min 0,000 mm 0,8 UV-I 107 W/m² 7,9 °C 9,5 °C 6,4 km/h (2 Bft)
03.11.2019 10:55 9,8 °C 88 % 988,8 hPa 0,0 mm 2,3 km/h (1 Bft) O-NO 73 ° 0 min 0,000 mm 0,8 UV-I 105 W/m² 7,9 °C 9,8 °C 4,8 km/h (1 Bft)
03.11.2019 10:56 9,8 °C 88 % 988,8 hPa 0,0 mm 3,4 km/h (1 Bft) O-NO 73 ° 0 min 0,000 mm 0,8 UV-I 105 W/m² 7,9 °C 9,8 °C 4,8 km/h (1 Bft)
03.11.2019 10:57 9,8 °C 88 % 988,9 hPa 0,0 mm 6,1 km/h (2 Bft) O-NO 69 ° 0 min 0,000 mm 0,8 UV-I 109 W/m² 7,9 °C 9,2 °C 9,7 km/h (2 Bft)
03.11.2019 10:58 9,8 °C 88 % 988,8 hPa 0,0 mm 2,6 km/h (1 Bft) O-NO 68 ° 0 min 0,000 mm 0,9 UV-I 114 W/m² 7,9 °C 9,8 °C 4,8 km/h (1 Bft)
03.11.2019 10:59 9,8 °C 88 % 988,8 hPa 0,0 mm 4,4 km/h (1 Bft) O 95 ° 0 min 0,000 mm 0,9 UV-I 121 W/m² 7,9 °C 9,8 °C 8,0 km/h (2 Bft)
03.11.2019 11:00 9,8 °C 88 % 988,8 hPa 0,0 mm 4,5 km/h (1 Bft) NO 54 ° 0 min 0,000 mm 1,0 UV-I 130 W/m² 7,9 °C 9,8 °C 6,4 km/h (2 Bft)
03.11.2019 11:01 9,9 °C 87 % 988,7 hPa 0,0 mm 7,0 km/h (2 Bft) O-NO 70 ° 0 min 0,051 mm 1,0 UV-I 146 W/m² 7,8 °C 9,1 °C 12,9 km/h (3 Bft)
03.11.2019 11:02 9,9 °C 88 % 988,7 hPa 0,0 mm 6,8 km/h (2 Bft) O-NO 68 ° 0 min 0,000 mm 1,1 UV-I 155 W/m² 8,0 °C 9,2 °C 9,7 km/h (2 Bft)
03.11.2019 11:03 9,9 °C 88 % 988,7 hPa 0,0 mm 8,4 km/h (2 Bft) O-NO 72 ° 0 min 0,000 mm 1,1 UV-I 160 W/m² 8,0 °C 8,8 °C 12,9 km/h (3 Bft)
03.11.2019 11:04 10,0 °C 87 % 988,7 hPa 0,0 mm 7,2 km/h (2 Bft) O-NO 64 ° 0 min 0,000 mm 1,1 UV-I 165 W/m² 7,9 °C 9,2 °C 11,3 km/h (2 Bft)
03.11.2019 11:05 10,0 °C 88 % 988,7 hPa 0,0 mm 7,6 km/h (2 Bft) O 84 ° 0 min 0,000 mm 1,2 UV-I 169 W/m² 8,1 °C 9,1 °C 9,7 km/h (2 Bft)
03.11.2019 11:06 10,0 °C 87 % 988,6 hPa 0,0 mm 9,7 km/h (2 Bft) O 86 ° 0 min 0,000 mm 1,2 UV-I 174 W/m² 7,9 °C 8,7 °C 17,7 km/h (3 Bft)
03.11.2019 11:07 10,1 °C 88 % 988,6 hPa 0,0 mm 8,2 km/h (2 Bft) O-NO 62 ° 0 min 0,000 mm 1,2 UV-I 174 W/m² 8,2 °C 10,1 °C 14,5 km/h (3 Bft)
03.11.2019 11:08 10,1 °C 87 % 988,6 hPa 0,0 mm 8,6 km/h (2 Bft) O 87 ° 0 min 0,000 mm 1,2 UV-I 172 W/m² 8,0 °C 10,1 °C 14,5 km/h (3 Bft)
03.11.2019 11:09 10,1 °C 87 % 988,6 hPa 0,0 mm 6,7 km/h (2 Bft) O-NO 65 ° 0 min 0,000 mm 1,2 UV-I 172 W/m² 8,0 °C 10,1 °C 8,0 km/h (2 Bft)
03.11.2019 11:10 10,1 °C 87 % 988,5 hPa 0,0 mm 5,8 km/h (2 Bft) NO 45 ° 0 min 0,000 mm 1,2 UV-I 174 W/m² 8,0 °C 10,1 °C 9,7 km/h (2 Bft)
03.11.2019 11:11 10,1 °C 87 % 988,5 hPa 0,0 mm 6,5 km/h (2 Bft) NO 36 ° 0 min 0,000 mm 1,2 UV-I 174 W/m² 8,0 °C 10,1 °C 8,0 km/h (2 Bft)
03.11.2019 11:12 10,1 °C 87 % 988,5 hPa 0,0 mm 5,7 km/h (1 Bft) NO 44 ° 0 min 0,000 mm 1,2 UV-I 171 W/m² 8,0 °C 10,1 °C 8,0 km/h (2 Bft)
03.11.2019 11:13 10,2 °C 87 % 988,5 hPa 0,0 mm 6,7 km/h (2 Bft) O-NO 64 ° 0 min 0,000 mm 1,2 UV-I 165 W/m² 8,1 °C 10,2 °C 9,7 km/h (2 Bft)
03.11.2019 11:14 10,2 °C 87 % 988,4 hPa 0,0 mm 6,1 km/h (2 Bft) N-NO 25 ° 0 min 0,000 mm 1,2 UV-I 165 W/m² 8,1 °C 10,2 °C 12,9 km/h (3 Bft)
03.11.2019 11:15 10,2 °C 87 % 988,4 hPa 0,0 mm 10,7 km/h (2 Bft) NO 42 ° 0 min 0,000 mm 1,2 UV-I 163 W/m² 8,1 °C 10,2 °C 16,1 km/h (3 Bft)
03.11.2019 11:16 10,2 °C 87 % 988,4 hPa 0,0 mm 6,6 km/h (2 Bft) NO 39 ° 0 min 0,000 mm 1,2 UV-I 160 W/m² 8,1 °C 10,2 °C 9,7 km/h (2 Bft)
03.11.2019 11:17 10,2 °C 87 % 988,4 hPa 0,0 mm 5,7 km/h (1 Bft) NO 36 ° 0 min 0,000 mm 1,2 UV-I 156 W/m² 8,1 °C 10,2 °C 8,0 km/h (2 Bft)
03.11.2019 11:18 10,2 °C 87 % 988,4 hPa 0,0 mm 3,6 km/h (1 Bft) NO 38 ° 0 min 0,000 mm 1,2 UV-I 144 W/m² 8,1 °C 10,2 °C 6,4 km/h (2 Bft)
03.11.2019 11:19 10,2 °C 87 % 988,5 hPa 0,0 mm 1,9 km/h (1 Bft) NO 38 ° 0 min 0,000 mm 1,1 UV-I 144 W/m² 8,1 °C 10,2 °C 3,2 km/h (1 Bft)
03.11.2019 11:20 10,2 °C 87 % 988,4 hPa 0,0 mm 5,0 km/h (1 Bft) NO 38 ° 0 min 0,000 mm 1,1 UV-I 137 W/m² 8,1 °C 10,2 °C 6,4 km/h (2 Bft)
03.11.2019 11:21 10,2 °C 87 % 988,4 hPa 0,0 mm 4,1 km/h (1 Bft) NO 38 ° 0 min 0,000 mm 1,1 UV-I 137 W/m² 8,1 °C 10,2 °C 6,4 km/h (2 Bft)
03.11.2019 11:22 10,2 °C 87 % 988,3 hPa 0,0 mm 3,8 km/h (1 Bft) NO 44 ° 0 min 0,000 mm 1,1 UV-I 142 W/m² 8,1 °C 10,2 °C 8,0 km/h (2 Bft)
03.11.2019 11:23 10,2 °C 87 % 988,3 hPa 0,0 mm 4,6 km/h (1 Bft) O-NO 58 ° 0 min 0,000 mm 1,2 UV-I 151 W/m² 8,1 °C 10,2 °C 8,0 km/h (2 Bft)
03.11.2019 11:24 10,2 °C 87 % 988,3 hPa 0,0 mm 3,9 km/h (1 Bft) O-NO 57 ° 0 min 0,000 mm 1,2 UV-I 165 W/m² 8,1 °C 10,2 °C 6,4 km/h (2 Bft)
03.11.2019 11:25 10,3 °C 88 % 988,2 hPa 0,0 mm 2,1 km/h (1 Bft) NO 48 ° 0 min 0,000 mm 1,2 UV-I 165 W/m² 8,4 °C 10,3 °C 4,8 km/h (1 Bft)
03.11.2019 11:26 10,3 °C 88 % 988,1 hPa 0,0 mm 5,6 km/h (1 Bft) NO 43 ° 0 min 0,000 mm 1,2 UV-I 160 W/m² 8,4 °C 10,3 °C 6,4 km/h (2 Bft)
03.11.2019 11:27 10,3 °C 88 % 988,1 hPa 0,0 mm 3,0 km/h (1 Bft) NO 43 ° 0 min 0,000 mm 1,1 UV-I 149 W/m² 8,4 °C 10,3 °C 4,8 km/h (1 Bft)
03.11.2019 11:28 10,3 °C 87 % 988,1 hPa 0,0 mm 5,1 km/h (1 Bft) NO 49 ° 0 min 0,000 mm 1,1 UV-I 139 W/m² 8,2 °C 10,3 °C 8,0 km/h (2 Bft)
03.11.2019 11:29 10,3 °C 87 % 988,0 hPa 0,0 mm 4,1 km/h (1 Bft) NO 42 ° 0 min 0,000 mm 1,1 UV-I 134 W/m² 8,2 °C 10,3 °C 4,8 km/h (1 Bft)
03.11.2019 11:30 10,3 °C 87 % 988,1 hPa 0,0 mm 6,0 km/h (2 Bft) NO 50 ° 0 min 0,000 mm 1,0 UV-I 134 W/m² 8,2 °C 10,3 °C 8,0 km/h (2 Bft)
03.11.2019 11:31 10,4 °C 87 % 988,0 hPa 0,0 mm 4,4 km/h (1 Bft) NO 53 ° 0 min 0,000 mm 1,0 UV-I 137 W/m² 8,3 °C 10,4 °C 8,0 km/h (2 Bft)
03.11.2019 11:32 10,4 °C 87 % 988,1 hPa 0,0 mm 6,6 km/h (2 Bft) O-NO 77 ° 0 min 0,000 mm 1,0 UV-I 139 W/m² 8,3 °C 10,4 °C 8,0 km/h (2 Bft)
03.11.2019 11:33 10,4 °C 87 % 988,1 hPa 0,0 mm 2,4 km/h (1 Bft) O-NO 77 ° 0 min 0,000 mm 1,0 UV-I 142 W/m² 8,3 °C 10,4 °C 4,8 km/h (1 Bft)
03.11.2019 11:34 10,4 °C 87 % 988,1 hPa 0,0 mm 2,8 km/h (1 Bft) O-NO 77 ° 0 min 0,000 mm 1,0 UV-I 144 W/m² 8,3 °C 10,4 °C 4,8 km/h (1 Bft)
03.11.2019 11:35 10,4 °C 87 % 988,1 hPa 0,0 mm 4,7 km/h (1 Bft) NO 46 ° 0 min 0,000 mm 1,0 UV-I 144 W/m² 8,3 °C 10,4 °C 6,4 km/h (2 Bft)
03.11.2019 11:36 10,4 °C 87 % 988,1 hPa 0,0 mm 5,0 km/h (1 Bft) O-NO 72 ° 0 min 0,000 mm 1,0 UV-I 141 W/m² 8,3 °C 10,4 °C 8,0 km/h (2 Bft)
03.11.2019 11:37 10,4 °C 87 % 988,1 hPa 0,0 mm 4,8 km/h (1 Bft) NO 46 ° 0 min 0,000 mm 1,0 UV-I 141 W/m² 8,3 °C 10,4 °C 6,4 km/h (2 Bft)
03.11.2019 11:38 10,4 °C 87 % 988,1 hPa 0,0 mm 6,9 km/h (2 Bft) O 80 ° 0 min 0,000 mm 1,0 UV-I 142 W/m² 8,3 °C 10,4 °C 11,3 km/h (2 Bft)
03.11.2019 11:39 10,5 °C 87 % 988,0 hPa 0,0 mm 6,0 km/h (2 Bft) NO 53 ° 0 min 0,000 mm 1,0 UV-I 144 W/m² 8,4 °C 10,5 °C 8,0 km/h (2 Bft)
03.11.2019 11:40 10,5 °C 87 % 988,0 hPa 0,0 mm 5,1 km/h (1 Bft) NO 37 ° 0 min 0,000 mm 1,0 UV-I 146 W/m² 8,4 °C 10,5 °C 8,0 km/h (2 Bft)
03.11.2019 11:41 10,5 °C 87 % 988,0 hPa 0,0 mm 6,9 km/h (2 Bft) O-NO 76 ° 0 min 0,000 mm 1,0 UV-I 146 W/m² 8,4 °C 10,5 °C 9,7 km/h (2 Bft)
03.11.2019 11:42 10,5 °C 87 % 987,9 hPa 0,0 mm 7,8 km/h (2 Bft) O-NO 64 ° 0 min 0,000 mm 0,9 UV-I 137 W/m² 8,4 °C 10,5 °C 12,9 km/h (3 Bft)
03.11.2019 11:43 10,5 °C 87 % 987,9 hPa 0,0 mm 8,3 km/h (2 Bft) O-NO 57 ° 0 min 0,000 mm 0,9 UV-I 128 W/m² 8,4 °C 10,5 °C 14,5 km/h (3 Bft)
03.11.2019 11:44 10,5 °C 87 % 987,9 hPa 0,0 mm 7,7 km/h (2 Bft) N-NO 32 ° 0 min 0,000 mm 0,8 UV-I 121 W/m² 8,4 °C 10,5 °C 9,7 km/h (2 Bft)
03.11.2019 11:45 10,5 °C 87 % 987,9 hPa 0,0 mm 6,4 km/h (2 Bft) O 80 ° 0 min 0,000 mm 0,8 UV-I 113 W/m² 8,4 °C 10,5 °C 9,7 km/h (2 Bft)
03.11.2019 11:46 10,5 °C 87 % 987,8 hPa 0,0 mm 7,7 km/h (2 Bft) N-NO 27 ° 0 min 0,000 mm 0,8 UV-I 109 W/m² 8,4 °C 10,5 °C 14,5 km/h (3 Bft)
03.11.2019 11:47 10,4 °C 87 % 987,8 hPa 0,0 mm 8,1 km/h (2 Bft) NO 44 ° 0 min 0,000 mm 0,7 UV-I 105 W/m² 8,3 °C 10,4 °C 14,5 km/h (3 Bft)
03.11.2019 11:48 10,4 °C 87 % 987,8 hPa 0,0 mm 8,9 km/h (2 Bft) O-NO 74 ° 0 min 0,000 mm 0,7 UV-I 105 W/m² 8,3 °C 10,4 °C 12,9 km/h (3 Bft)
03.11.2019 11:49 10,4 °C 87 % 987,9 hPa 0,0 mm 8,9 km/h (2 Bft) O-NO 70 ° 0 min 0,000 mm 0,7 UV-I 105 W/m² 8,3 °C 10,4 °C 16,1 km/h (3 Bft)
03.11.2019 11:50 10,4 °C 87 % 987,8 hPa 0,0 mm 10,7 km/h (2 Bft) O-NO 78 ° 0 min 0,000 mm 0,7 UV-I 105 W/m² 8,3 °C 10,4 °C 17,7 km/h (3 Bft)
03.11.2019 11:51 10,3 °C 87 % 987,8 hPa 0,0 mm 6,0 km/h (2 Bft) NO 44 ° 0 min 0,000 mm 0,7 UV-I 105 W/m² 8,2 °C 10,3 °C 8,0 km/h (2 Bft)
03.11.2019 11:52 10,3 °C 88 % 987,7 hPa 0,0 mm 6,9 km/h (2 Bft) NO 36 ° 0 min 0,000 mm 0,7 UV-I 104 W/m² 8,4 °C 10,3 °C 9,7 km/h (2 Bft)
03.11.2019 11:53 10,3 °C 88 % 987,7 hPa 0,0 mm 5,9 km/h (2 Bft) O 83 ° 0 min 0,000 mm 0,7 UV-I 100 W/m² 8,4 °C 10,3 °C 11,3 km/h (2 Bft)
03.11.2019 11:54 10,3 °C 88 % 987,7 hPa 0,0 mm 9,6 km/h (2 Bft) N-NO 25 ° 0 min 0,000 mm 0,7 UV-I 98 W/m² 8,4 °C 10,3 °C 16,1 km/h (3 Bft)
03.11.2019 11:55 10,3 °C 88 % 987,6 hPa 0,0 mm 7,9 km/h (2 Bft) NO 49 ° 0 min 0,000 mm 0,7 UV-I 98 W/m² 8,4 °C 10,3 °C 12,9 km/h (3 Bft)
03.11.2019 11:56 10,3 °C 88 % 987,6 hPa 0,0 mm 7,5 km/h (2 Bft) O-NO 70 ° 0 min 0,000 mm 0,7 UV-I 102 W/m² 8,4 °C 10,3 °C 11,3 km/h (2 Bft)
03.11.2019 11:57 10,3 °C 88 % 987,6 hPa 0,0 mm 4,2 km/h (1 Bft) O-NO 65 ° 0 min 0,000 mm 0,7 UV-I 104 W/m² 8,4 °C 10,3 °C 8,0 km/h (2 Bft)
03.11.2019 11:58 10,3 °C 88 % 987,6 hPa 0,0 mm 5,4 km/h (1 Bft) NO 38 ° 0 min 0,000 mm 0,7 UV-I 107 W/m² 8,4 °C 10,3 °C 9,7 km/h (2 Bft)
03.11.2019 11:59 10,3 °C 88 % 987,6 hPa 0,0 mm 7,2 km/h (2 Bft) NO 53 ° 0 min 0,000 mm 0,7 UV-I 113 W/m² 8,4 °C 10,3 °C 11,3 km/h (2 Bft)
03.11.2019 12:00 10,3 °C 88 % 987,6 hPa 0,0 mm 4,6 km/h (1 Bft) O-NO 59 ° 0 min 0,000 mm 0,7 UV-I 111 W/m² 8,4 °C 10,3 °C 9,7 km/h (2 Bft)
03.11.2019 12:01 10,3 °C 88 % 987,6 hPa 0,0 mm 7,2 km/h (2 Bft) O 84 ° 0 min 0,076 mm 0,7 UV-I 107 W/m² 8,4 °C 10,3 °C 9,7 km/h (2 Bft)
03.11.2019 12:02 10,3 °C 88 % 987,6 hPa 0,0 mm 6,1 km/h (2 Bft) NO 53 ° 0 min 0,000 mm 0,7 UV-I 104 W/m² 8,4 °C 10,3 °C 9,7 km/h (2 Bft)
03.11.2019 12:03 10,2 °C 88 % 987,6 hPa 0,0 mm 5,4 km/h (1 Bft) NO 46 ° 0 min 0,000 mm 0,7 UV-I 100 W/m² 8,3 °C 10,2 °C 6,4 km/h (2 Bft)
03.11.2019 12:04 10,2 °C 88 % 987,6 hPa 0,0 mm 6,2 km/h (2 Bft) O-NO 57 ° 0 min 0,000 mm 0,7 UV-I 97 W/m² 8,3 °C 10,2 °C 12,9 km/h (3 Bft)
03.11.2019 12:05 10,2 °C 88 % 987,6 hPa 0,0 mm 7,7 km/h (2 Bft) NO 55 ° 0 min 0,000 mm 0,7 UV-I 93 W/m² 8,3 °C 10,2 °C 14,5 km/h (3 Bft)
03.11.2019 12:06 10,2 °C 88 % 987,5 hPa 0,0 mm 7,3 km/h (2 Bft) O-NO 67 ° 0 min 0,000 mm 0,6 UV-I 91 W/m² 8,3 °C 10,2 °C 11,3 km/h (2 Bft)
03.11.2019 12:07 10,2 °C 88 % 987,5 hPa 0,0 mm 10,8 km/h (2 Bft) NO 55 ° 0 min 0,000 mm 0,6 UV-I 88 W/m² 8,3 °C 10,2 °C 14,5 km/h (3 Bft)
03.11.2019 12:08 10,2 °C 88 % 987,5 hPa 0,0 mm 6,7 km/h (2 Bft) O-NO 60 ° 0 min 0,000 mm 0,6 UV-I 84 W/m² 8,3 °C 10,2 °C 9,7 km/h (2 Bft)
03.11.2019 12:09 10,2 °C 88 % 987,5 hPa 0,0 mm 5,6 km/h (1 Bft) O-NO 66 ° 0 min 0,000 mm 0,6 UV-I 81 W/m² 8,3 °C 10,2 °C 9,7 km/h (2 Bft)
03.11.2019 12:10 10,2 °C 88 % 987,5 hPa 0,0 mm 6,3 km/h (2 Bft) NO 48 ° 0 min 0,000 mm 0,6 UV-I 77 W/m² 8,3 °C 10,2 °C 11,3 km/h (2 Bft)
03.11.2019 12:11 10,2 °C 88 % 987,5 hPa 0,0 mm 7,7 km/h (2 Bft) NO 38 ° 0 min 0,000 mm 0,5 UV-I 74 W/m² 8,3 °C 10,2 °C 11,3 km/h (2 Bft)
03.11.2019 12:12 10,1 °C 88 % 987,4 hPa 0,0 mm 5,3 km/h (1 Bft) O 88 ° 0 min 0,000 mm 0,5 UV-I 72 W/m² 8,2 °C 10,1 °C 6,4 km/h (2 Bft)
03.11.2019 12:13 10,1 °C 88 % 987,4 hPa 0,0 mm 4,0 km/h (1 Bft) O-NO 63 ° 0 min 0,000 mm 0,5 UV-I 70 W/m² 8,2 °C 10,1 °C 6,4 km/h (2 Bft)
03.11.2019 12:14 10,1 °C 88 % 987,4 hPa 0,0 mm 6,2 km/h (2 Bft) NO 42 ° 0 min 0,000 mm 0,5 UV-I 70 W/m² 8,2 °C 10,1 °C 8,0 km/h (2 Bft)
03.11.2019 12:15 10,1 °C 89 % 987,4 hPa 0,0 mm 6,9 km/h (2 Bft) N-NO 33 ° 0 min 0,000 mm 0,5 UV-I 70 W/m² 8,4 °C 10,1 °C 8,0 km/h (2 Bft)
03.11.2019 12:16 10,1 °C 89 % 987,4 hPa 0,0 mm 5,2 km/h (1 Bft) O-NO 59 ° 0 min 0,000 mm 0,5 UV-I 69 W/m² 8,4 °C 10,1 °C 6,4 km/h (2 Bft)
03.11.2019 12:17 10,1 °C 89 % 987,3 hPa 0,0 mm 5,7 km/h (1 Bft) NO 37 ° 0 min 0,000 mm 0,5 UV-I 69 W/m² 8,4 °C 10,1 °C 12,9 km/h (3 Bft)
03.11.2019 12:18 10,1 °C 89 % 987,4 hPa 0,0 mm 5,2 km/h (1 Bft) O 87 ° 0 min 0,000 mm 0,5 UV-I 70 W/m² 8,4 °C 10,1 °C 8,0 km/h (2 Bft)
03.11.2019 12:19 10,1 °C 89 % 987,4 hPa 0,0 mm 2,9 km/h (1 Bft) O 86 ° 0 min 0,000 mm 0,5 UV-I 70 W/m² 8,4 °C 10,1 °C 4,8 km/h (1 Bft)
03.11.2019 12:20 10,0 °C 89 % 987,4 hPa 0,0 mm 5,1 km/h (1 Bft) O 86 ° 0 min 0,000 mm 0,5 UV-I 72 W/m² 8,3 °C 9,7 °C 8,0 km/h (2 Bft)
03.11.2019 12:21 10,0 °C 89 % 987,4 hPa 0,0 mm 4,8 km/h (1 Bft) O-NO 67 ° 0 min 0,000 mm 0,5 UV-I 72 W/m² 8,3 °C 9,8 °C 8,0 km/h (2 Bft)
03.11.2019 12:22 10,0 °C 89 % 987,3 hPa 0,0 mm 1,3 km/h (1 Bft) N-NO 21 ° 0 min 0,000 mm 0,5 UV-I 72 W/m² 8,3 °C 10,0 °C 4,8 km/h (1 Bft)
03.11.2019 12:23 10,0 °C 89 % 987,4 hPa 0,0 mm 3,0 km/h (1 Bft) O 82 ° 0 min 0,000 mm 0,5 UV-I 72 W/m² 8,3 °C 10,0 °C 4,8 km/h (1 Bft)
03.11.2019 12:24 10,0 °C 89 % 987,4 hPa 0,0 mm 3,1 km/h (1 Bft) O 82 ° 0 min 0,000 mm 0,5 UV-I 70 W/m² 8,3 °C 10,0 °C 4,8 km/h (1 Bft)
03.11.2019 12:25 9,9 °C 89 % 987,4 hPa 0,0 mm 2,6 km/h (1 Bft) O 82 ° 0 min 0,000 mm 0,5 UV-I 69 W/m² 8,2 °C 9,9 °C 4,8 km/h (1 Bft)
03.11.2019 12:26 10,0 °C 89 % 987,4 hPa 0,0 mm 4,8 km/h (1 Bft) O-NO 74 ° 0 min 0,000 mm 0,5 UV-I 69 W/m² 8,3 °C 9,8 °C 8,0 km/h (2 Bft)
03.11.2019 12:27 10,0 °C 89 % 987,3 hPa 0,0 mm 5,3 km/h (1 Bft) O-NO 61 ° 0 min 0,000 mm 0,5 UV-I 69 W/m² 8,3 °C 9,7 °C 8,0 km/h (2 Bft)
03.11.2019 12:28 10,0 °C 89 % 987,2 hPa 0,0 mm 3,0 km/h (1 Bft) O-NO 61 ° 0 min 0,000 mm 0,5 UV-I 67 W/m² 8,3 °C 10,0 °C 4,8 km/h (1 Bft)
03.11.2019 12:29 10,0 °C 89 % 987,2 hPa 0,0 mm 3,4 km/h (1 Bft) O-NO 68 ° 0 min 0,000 mm 0,5 UV-I 67 W/m² 8,3 °C 10,0 °C 6,4 km/h (2 Bft)
03.11.2019 12:30 9,9 °C 89 % 987,2 hPa 0,0 mm 5,9 km/h (2 Bft) NO 55 ° 0 min 0,000 mm 0,5 UV-I 67 W/m² 8,2 °C 9,4 °C 9,7 km/h (2 Bft)
03.11.2019 12:31 9,9 °C 89 % 987,2 hPa 0,0 mm 3,5 km/h (1 Bft) O-NO 74 ° 0 min 0,000 mm 0,5 UV-I 67 W/m² 8,2 °C 9,9 °C 8,0 km/h (2 Bft)
03.11.2019 12:32 9,9 °C 89 % 987,2 hPa 0,0 mm 2,1 km/h (1 Bft) O-NO 74 ° 0 min 0,000 mm 0,5 UV-I 65 W/m² 8,2 °C 9,9 °C 3,2 km/h (1 Bft)
03.11.2019 12:33 9,9 °C 89 % 987,2 hPa 0,0 mm 7,1 km/h (2 Bft) O-NO 68 ° 0 min 0,000 mm 0,0 UV-I 63 W/m² 8,2 °C 9,1 °C 12,9 km/h (3 Bft)
03.11.2019 12:34 9,9 °C 89 % 987,2 hPa 0,0 mm 4,2 km/h (1 Bft) O-NO 74 ° 0 min 0,000 mm 0,0 UV-I 62 W/m² 8,2 °C 9,9 °C 11,3 km/h (2 Bft)
03.11.2019 12:35 9,9 °C 89 % 987,2 hPa 0,0 mm 4,5 km/h (1 Bft) O-NO 76 ° 0 min 0,000 mm 0,0 UV-I 60 W/m² 8,2 °C 9,9 °C 16,1 km/h (3 Bft)
03.11.2019 12:36 9,9 °C 89 % 987,2 hPa 0,0 mm 9,2 km/h (2 Bft) O-NO 76 ° 0 min 0,000 mm 0,0 UV-I 62 W/m² 8,2 °C 8,7 °C 14,5 km/h (3 Bft)
03.11.2019 12:37 9,9 °C 89 % 987,2 hPa 0,0 mm 10,7 km/h (2 Bft) O-NO 64 ° 0 min 0,000 mm 0,0 UV-I 62 W/m² 8,2 °C 8,4 °C 16,1 km/h (3 Bft)
03.11.2019 12:38 9,9 °C 89 % 987,1 hPa 0,0 mm 8,0 km/h (2 Bft) NO 55 ° 0 min 0,000 mm 0,0 UV-I 62 W/m² 8,2 °C 8,9 °C 12,9 km/h (3 Bft)
03.11.2019 12:39 9,9 °C 89 % 987,1 hPa 0,0 mm 9,0 km/h (2 Bft) O 94 ° 0 min 0,000 mm 0,0 UV-I 62 W/m² 8,2 °C 8,7 °C 14,5 km/h (3 Bft)
03.11.2019 12:40 9,9 °C 90 % 987,2 hPa 0,0 mm 5,5 km/h (1 Bft) O-SO 115 ° 0 min 0,000 mm 0,0 UV-I 62 W/m² 8,3 °C 9,5 °C 9,7 km/h (2 Bft)
03.11.2019 12:41 9,9 °C 90 % 987,3 hPa 0,0 mm 8,6 km/h (2 Bft) O-NO 65 ° 0 min 0,000 mm 0,0 UV-I 62 W/m² 8,3 °C 8,8 °C 12,9 km/h (3 Bft)
03.11.2019 12:42 9,9 °C 90 % 987,2 hPa 0,0 mm 8,4 km/h (2 Bft) NO 42 ° 0 min 0,000 mm 0,0 UV-I 62 W/m² 8,3 °C 8,8 °C 12,9 km/h (3 Bft)
03.11.2019 12:43 9,8 °C 90 % 987,2 hPa 0,0 mm 9,3 km/h (2 Bft) N-NO 28 ° 0 min 0,000 mm 0,0 UV-I 62 W/m² 8,2 °C 8,5 °C 14,5 km/h (3 Bft)
03.11.2019 12:44 9,8 °C 90 % 987,2 hPa 0,0 mm 9,5 km/h (2 Bft) O-NO 65 ° 0 min 0,000 mm 0,0 UV-I 63 W/m² 8,2 °C 8,5 °C 14,5 km/h (3 Bft)
03.11.2019 12:45 9,8 °C 90 % 987,3 hPa 0,0 mm 7,3 km/h (2 Bft) O-NO 75 ° 0 min 0,000 mm 0,0 UV-I 63 W/m² 8,2 °C 8,9 °C 12,9 km/h (3 Bft)
03.11.2019 12:46 9,8 °C 90 % 987,3 hPa 0,0 mm 5,3 km/h (1 Bft) NO 54 ° 0 min 0,000 mm 0,5 UV-I 65 W/m² 8,2 °C 9,4 °C 12,9 km/h (3 Bft)
03.11.2019 12:47 9,8 °C 90 % 987,3 hPa 0,0 mm 12,1 km/h (2 Bft) O-NO 69 ° 0 min 0,000 mm 0,5 UV-I 65 W/m² 8,2 °C 8,1 °C 22,5 km/h (4 Bft)
03.11.2019 12:48 9,8 °C 90 % 987,4 hPa 0,0 mm 8,1 km/h (2 Bft) O-NO 63 ° 0 min 0,000 mm 0,5 UV-I 65 W/m² 8,2 °C 8,8 °C 12,9 km/h (3 Bft)
03.11.2019 12:49 9,8 °C 90 % 987,3 hPa 0,0 mm 6,8 km/h (2 Bft) N-NO 26 ° 0 min 0,000 mm 0,5 UV-I 67 W/m² 8,2 °C 9,0 °C 12,9 km/h (3 Bft)
03.11.2019 12:50 9,8 °C 90 % 987,2 hPa 0,0 mm 5,6 km/h (1 Bft) O-NO 69 ° 0 min 0,000 mm 0,5 UV-I 69 W/m² 8,2 °C 9,4 °C 9,7 km/h (2 Bft)
03.11.2019 12:51 9,8 °C 90 % 987,2 hPa 0,0 mm 6,7 km/h (2 Bft) NO 44 ° 0 min 0,000 mm 0,5 UV-I 69 W/m² 8,2 °C 9,1 °C 9,7 km/h (2 Bft)
03.11.2019 12:52 9,7 °C 90 % 987,2 hPa 0,0 mm 4,9 km/h (1 Bft) O 99 ° 0 min 0,000 mm 0,5 UV-I 74 W/m² 8,1 °C 9,4 °C 12,9 km/h (3 Bft)
03.11.2019 12:53 9,7 °C 90 % 987,2 hPa 0,0 mm 4,6 km/h (1 Bft) O 94 ° 0 min 0,000 mm 0,5 UV-I 76 W/m² 8,1 °C 9,5 °C 9,7 km/h (2 Bft)
03.11.2019 12:54 9,8 °C 91 % 987,2 hPa 0,0 mm 4,4 km/h (1 Bft) O-NO 57 ° 0 min 0,000 mm 0,5 UV-I 79 W/m² 8,4 °C 9,8 °C 6,4 km/h (2 Bft)
03.11.2019 12:55 9,7 °C 91 % 987,1 hPa 0,0 mm 8,1 km/h (2 Bft) O-NO 71 ° 0 min 0,000 mm 0,6 UV-I 81 W/m² 8,3 °C 8,6 °C 12,9 km/h (3 Bft)
03.11.2019 12:56 9,7 °C 91 % 987,1 hPa 0,0 mm 6,8 km/h (2 Bft) O-NO 63 ° 0 min 0,000 mm 0,6 UV-I 84 W/m² 8,3 °C 8,9 °C 8,0 km/h (2 Bft)
03.11.2019 12:57 9,7 °C 91 % 987,1 hPa 0,0 mm 7,4 km/h (2 Bft) O 89 ° 0 min 0,000 mm 0,6 UV-I 84 W/m² 8,3 °C 8,8 °C 12,9 km/h (3 Bft)
03.11.2019 12:58 9,7 °C 91 % 987,1 hPa 0,0 mm 6,7 km/h (2 Bft) O-NO 67 ° 0 min 0,000 mm 0,6 UV-I 88 W/m² 8,3 °C 8,9 °C 11,3 km/h (2 Bft)
03.11.2019 12:59 9,7 °C 91 % 987,1 hPa 0,0 mm 7,5 km/h (2 Bft) NO 55 ° 0 min 0,000 mm 0,6 UV-I 90 W/m² 8,3 °C 8,8 °C 9,7 km/h (2 Bft)
03.11.2019 13:00 9,7 °C 91 % 987,1 hPa 0,0 mm 8,9 km/h (2 Bft) O-NO 57 ° 0 min 0,000 mm 0,6 UV-I 91 W/m² 8,3 °C 8,5 °C 12,9 km/h (3 Bft)
03.11.2019 13:01 9,7 °C 91 % 987,0 hPa 0,0 mm 6,4 km/h (2 Bft) O-NO 59 ° 0 min 0,051 mm 0,6 UV-I 90 W/m² 8,3 °C 9,0 °C 12,9 km/h (3 Bft)
03.11.2019 13:02 9,7 °C 91 % 987,0 hPa 0,0 mm 8,8 km/h (2 Bft) O 79 ° 0 min 0,000 mm 0,6 UV-I 90 W/m² 8,3 °C 8,5 °C 12,9 km/h (3 Bft)
03.11.2019 13:03 9,7 °C 91 % 987,0 hPa 0,0 mm 8,0 km/h (2 Bft) O-NO 78 ° 0 min 0,000 mm 0,6 UV-I 88 W/m² 8,3 °C 8,7 °C 12,9 km/h (3 Bft)
03.11.2019 13:04 9,7 °C 91 % 986,9 hPa 0,0 mm 7,7 km/h (2 Bft) O 88 ° 0 min 0,000 mm 0,6 UV-I 86 W/m² 8,3 °C 8,7 °C 12,9 km/h (3 Bft)
03.11.2019 13:05 9,7 °C 91 % 986,9 hPa 0,0 mm 8,5 km/h (2 Bft) O 86 ° 0 min 0,000 mm 0,6 UV-I 88 W/m² 8,3 °C 8,6 °C 12,9 km/h (3 Bft)
03.11.2019 13:06 9,7 °C 91 % 986,8 hPa 0,0 mm 9,8 km/h (2 Bft) O-NO 65 ° 0 min 0,000 mm 0,6 UV-I 90 W/m² 8,3 °C 8,3 °C 14,5 km/h (3 Bft)
03.11.2019 13:07 9,7 °C 91 % 986,8 hPa 0,0 mm 7,5 km/h (2 Bft) NO 55 ° 0 min 0,000 mm 0,6 UV-I 91 W/m² 8,3 °C 8,8 °C 11,3 km/h (2 Bft)
03.11.2019 13:08 9,7 °C 91 % 986,8 hPa 0,0 mm 7,9 km/h (2 Bft) O-NO 71 ° 0 min 0,000 mm 0,6 UV-I 95 W/m² 8,3 °C 8,7 °C 12,9 km/h (3 Bft)
03.11.2019 13:09 9,7 °C 91 % 986,8 hPa 0,0 mm 6,1 km/h (2 Bft) O-NO 67 ° 0 min 0,000 mm 0,6 UV-I 100 W/m² 8,3 °C 9,1 °C 8,0 km/h (2 Bft)
03.11.2019 13:10 9,7 °C 91 % 986,7 hPa 0,0 mm 6,6 km/h (2 Bft) O-NO 72 ° 0 min 0,000 mm 0,7 UV-I 102 W/m² 8,3 °C 9,0 °C 12,9 km/h (3 Bft)
03.11.2019 13:11 9,7 °C 91 % 986,6 hPa 0,0 mm 9,2 km/h (2 Bft) O-NO 77 ° 0 min 0,000 mm 0,7 UV-I 105 W/m² 8,3 °C 8,4 °C 14,5 km/h (3 Bft)
03.11.2019 13:12 9,7 °C 91 % 986,6 hPa 0,0 mm 9,3 km/h (2 Bft) O-NO 67 ° 0 min 0,000 mm 0,7 UV-I 109 W/m² 8,3 °C 8,4 °C 12,9 km/h (3 Bft)
03.11.2019 13:13 9,8 °C 92 % 986,6 hPa 0,0 mm 6,8 km/h (2 Bft) O-NO 67 ° 0 min 0,000 mm 0,7 UV-I 113 W/m² 8,6 °C 9,0 °C 11,3 km/h (2 Bft)
03.11.2019 13:14 9,8 °C 92 % 986,6 hPa 0,0 mm 9,3 km/h (2 Bft) O-NO 76 ° 0 min 0,000 mm 0,8 UV-I 116 W/m² 8,6 °C 8,5 °C 16,1 km/h (3 Bft)
03.11.2019 13:15 9,8 °C 92 % 986,6 hPa 0,0 mm 3,6 km/h (1 Bft) NO 51 ° 0 min 0,000 mm 0,8 UV-I 116 W/m² 8,6 °C 9,8 °C 6,4 km/h (2 Bft)
03.11.2019 13:16 9,8 °C 91 % 986,6 hPa 0,0 mm 8,8 km/h (2 Bft) O 80 ° 0 min 0,000 mm 0,8 UV-I 114 W/m² 8,4 °C 8,6 °C 14,5 km/h (3 Bft)
03.11.2019 13:17 9,8 °C 92 % 986,6 hPa 0,0 mm 8,8 km/h (2 Bft) NO 53 ° 0 min 0,000 mm 0,7 UV-I 113 W/m² 8,6 °C 8,6 °C 16,1 km/h (3 Bft)
03.11.2019 13:18 9,8 °C 91 % 986,5 hPa 0,0 mm 8,8 km/h (2 Bft) O-NO 67 ° 0 min 0,000 mm 0,7 UV-I 111 W/m² 8,4 °C 8,6 °C 12,9 km/h (3 Bft)
03.11.2019 13:19 9,8 °C 91 % 986,5 hPa 0,0 mm 9,0 km/h (2 Bft) O-NO 60 ° 0 min 0,000 mm 0,8 UV-I 113 W/m² 8,4 °C 8,6 °C 12,9 km/h (3 Bft)
03.11.2019 13:20 9,8 °C 91 % 986,5 hPa 0,0 mm 8,8 km/h (2 Bft) O 82 ° 0 min 0,000 mm 0,8 UV-I 114 W/m² 8,4 °C 8,6 °C 12,9 km/h (3 Bft)
03.11.2019 13:21 9,8 °C 91 % 986,5 hPa 0,0 mm 10,6 km/h (2 Bft) O-SO 111 ° 0 min 0,000 mm 0,8 UV-I 121 W/m² 8,4 °C 8,3 °C 17,7 km/h (3 Bft)
03.11.2019 13:22 9,9 °C 91 % 986,5 hPa 0,0 mm 9,0 km/h (2 Bft) O-NO 58 ° 0 min 0,000 mm 0,8 UV-I 123 W/m² 8,5 °C 8,7 °C 12,9 km/h (3 Bft)
03.11.2019 13:23 9,9 °C 91 % 986,5 hPa 0,0 mm 7,8 km/h (2 Bft) O 88 ° 0 min 0,000 mm 0,8 UV-I 123 W/m² 8,5 °C 8,9 °C 12,9 km/h (3 Bft)
03.11.2019 13:24 9,9 °C 91 % 986,4 hPa 0,0 mm 7,0 km/h (2 Bft) O-NO 61 ° 0 min 0,000 mm 0,8 UV-I 123 W/m² 8,5 °C 9,1 °C 12,9 km/h (3 Bft)
03.11.2019 13:25 9,9 °C 91 % 986,4 hPa 0,0 mm 8,7 km/h (2 Bft) O-NO 66 ° 0 min 0,000 mm 0,8 UV-I 120 W/m² 8,5 °C 8,7 °C 12,9 km/h (3 Bft)
03.11.2019 13:26 9,9 °C 91 % 986,3 hPa 0,0 mm 6,6 km/h (2 Bft) O-NO 65 ° 0 min 0,000 mm 0,8 UV-I 118 W/m² 8,5 °C 9,2 °C 11,3 km/h (2 Bft)
03.11.2019 13:27 9,9 °C 91 % 986,3 hPa 0,0 mm 8,2 km/h (2 Bft) O-NO 59 ° 0 min 0,000 mm 0,8 UV-I 113 W/m² 8,5 °C 8,8 °C 12,9 km/h (3 Bft)
03.11.2019 13:28 9,9 °C 91 % 986,4 hPa 0,0 mm 5,0 km/h (1 Bft) O-NO 58 ° 0 min 0,000 mm 0,7 UV-I 109 W/m² 8,5 °C 9,6 °C 9,7 km/h (2 Bft)
03.11.2019 13:29 9,9 °C 91 % 986,4 hPa 0,0 mm 5,3 km/h (1 Bft) O-NO 61 ° 0 min 0,000 mm 0,7 UV-I 107 W/m² 8,5 °C 9,6 °C 8,0 km/h (2 Bft)
03.11.2019 13:30 10,0 °C 91 % 986,4 hPa 0,0 mm 3,1 km/h (1 Bft) O-NO 65 ° 0 min 0,000 mm 0,7 UV-I 107 W/m² 8,6 °C 10,0 °C 9,7 km/h (2 Bft)
03.11.2019 13:31 10,0 °C 91 % 986,4 hPa 0,0 mm 8,2 km/h (2 Bft) O-NO 59 ° 0 min 0,000 mm 0,7 UV-I 105 W/m² 8,6 °C 9,0 °C 12,9 km/h (3 Bft)
03.11.2019 13:32 10,0 °C 91 % 986,4 hPa 0,0 mm 7,7 km/h (2 Bft) O 86 ° 0 min 0,000 mm 0,7 UV-I 104 W/m² 8,6 °C 9,1 °C 12,9 km/h (3 Bft)
03.11.2019 13:33 10,1 °C 91 % 986,4 hPa 0,0 mm 4,8 km/h (1 Bft) O-NO 66 ° 0 min 0,000 mm 0,7 UV-I 98 W/m² 8,7 °C 10,1 °C 8,0 km/h (2 Bft)
03.11.2019 13:34 10,1 °C 91 % 986,4 hPa 0,0 mm 5,5 km/h (1 Bft) O 80 ° 0 min 0,000 mm 0,6 UV-I 97 W/m² 8,7 °C 10,1 °C 9,7 km/h (2 Bft)
03.11.2019 13:35 10,1 °C 91 % 986,4 hPa 0,0 mm 5,1 km/h (1 Bft) NO 49 ° 0 min 0,000 mm 0,6 UV-I 95 W/m² 8,7 °C 10,1 °C 8,0 km/h (2 Bft)
03.11.2019 13:36 10,1 °C 91 % 986,4 hPa 0,0 mm 4,5 km/h (1 Bft) O-NO 70 ° 0 min 0,000 mm 0,6 UV-I 95 W/m² 8,7 °C 10,1 °C 6,4 km/h (2 Bft)
03.11.2019 13:37 10,1 °C 90 % 986,4 hPa 0,0 mm 5,8 km/h (2 Bft) O-NO 71 ° 0 min 0,000 mm 0,6 UV-I 95 W/m² 8,5 °C 10,1 °C 9,7 km/h (2 Bft)
03.11.2019 13:38 10,1 °C 90 % 986,4 hPa 0,0 mm 4,7 km/h (1 Bft) O 91 ° 0 min 0,000 mm 0,6 UV-I 95 W/m² 8,5 °C 10,1 °C 6,4 km/h (2 Bft)
03.11.2019 13:39 10,1 °C 90 % 986,3 hPa 0,0 mm 4,5 km/h (1 Bft) NO 42 ° 0 min 0,000 mm 0,6 UV-I 90 W/m² 8,5 °C 10,1 °C 8,0 km/h (2 Bft)
03.11.2019 13:40 10,1 °C 90 % 986,3 hPa 0,0 mm 9,3 km/h (2 Bft) O-NO 57 ° 0 min 0,000 mm 0,6 UV-I 86 W/m² 8,5 °C 10,1 °C 12,9 km/h (3 Bft)
03.11.2019 13:41 10,1 °C 90 % 986,4 hPa 0,0 mm 6,9 km/h (2 Bft) O-NO 67 ° 0 min 0,000 mm 0,6 UV-I 84 W/m² 8,5 °C 10,1 °C 9,7 km/h (2 Bft)
03.11.2019 13:42 10,1 °C 90 % 986,3 hPa 0,0 mm 6,9 km/h (2 Bft) O-NO 69 ° 0 min 0,000 mm 0,6 UV-I 83 W/m² 8,5 °C 10,1 °C 9,7 km/h (2 Bft)
03.11.2019 13:43 10,1 °C 90 % 986,3 hPa 0,0 mm 5,7 km/h (1 Bft) O-NO 62 ° 0 min 0,000 mm 0,6 UV-I 83 W/m² 8,5 °C 10,1 °C 8,0 km/h (2 Bft)
03.11.2019 13:44 10,1 °C 90 % 986,3 hPa 0,0 mm 3,8 km/h (1 Bft) O-SO 105 ° 0 min 0,000 mm 0,6 UV-I 84 W/m² 8,5 °C 10,1 °C 6,4 km/h (2 Bft)
03.11.2019 13:45 10,1 °C 90 % 986,3 hPa 0,0 mm 7,4 km/h (2 Bft) NO 34 ° 0 min 0,000 mm 0,6 UV-I 88 W/m² 8,5 °C 10,1 °C 12,9 km/h (3 Bft)
03.11.2019 13:46 10,1 °C 90 % 986,3 hPa 0,0 mm 7,1 km/h (2 Bft) O 82 ° 0 min 0,000 mm 0,6 UV-I 86 W/m² 8,5 °C 10,1 °C 11,3 km/h (2 Bft)
03.11.2019 13:47 10,0 °C 90 % 986,2 hPa 0,0 mm 6,8 km/h (2 Bft) O-NO 57 ° 0 min 0,000 mm 0,5 UV-I 84 W/m² 8,4 °C 9,3 °C 9,7 km/h (2 Bft)
03.11.2019 13:48 10,1 °C 90 % 986,2 hPa 0,0 mm 4,7 km/h (1 Bft) O-NO 77 ° 0 min 0,000 mm 0,5 UV-I 83 W/m² 8,5 °C 10,1 °C 6,4 km/h (2 Bft)
03.11.2019 13:49 10,1 °C 90 % 986,3 hPa 0,0 mm 4,6 km/h (1 Bft) N-NO 24 ° 0 min 0,000 mm 0,5 UV-I 79 W/m² 8,5 °C 10,1 °C 6,4 km/h (2 Bft)
03.11.2019 13:50 10,1 °C 90 % 986,2 hPa 0,0 mm 8,9 km/h (2 Bft) O 83 ° 0 min 0,000 mm 0,5 UV-I 74 W/m² 8,5 °C 10,1 °C 12,9 km/h (3 Bft)
03.11.2019 13:51 10,1 °C 90 % 986,3 hPa 0,0 mm 7,3 km/h (2 Bft) O 87 ° 0 min 0,000 mm 0,5 UV-I 72 W/m² 8,5 °C 10,1 °C 11,3 km/h (2 Bft)
03.11.2019 13:52 10,0 °C 90 % 986,2 hPa 0,0 mm 3,6 km/h (1 Bft) NO 55 ° 0 min 0,000 mm 0,5 UV-I 70 W/m² 8,4 °C 10,0 °C 8,0 km/h (2 Bft)
03.11.2019 13:53 10,0 °C 90 % 986,3 hPa 0,0 mm 6,8 km/h (2 Bft) O-NO 75 ° 0 min 0,000 mm 0,5 UV-I 70 W/m² 8,4 °C 9,3 °C 12,9 km/h (3 Bft)
03.11.2019 13:54 10,0 °C 90 % 986,2 hPa 0,0 mm 5,2 km/h (1 Bft) O-NO 69 ° 0 min 0,000 mm 0,5 UV-I 70 W/m² 8,4 °C 9,7 °C 8,0 km/h (2 Bft)
03.11.2019 13:55 10,0 °C 90 % 986,1 hPa 0,0 mm 6,2 km/h (2 Bft) O 86 ° 0 min 0,000 mm 0,5 UV-I 69 W/m² 8,4 °C 9,4 °C 8,0 km/h (2 Bft)
03.11.2019 13:56 10,0 °C 90 % 986,1 hPa 0,0 mm 7,0 km/h (2 Bft) NO 44 ° 0 min 0,000 mm 0,0 UV-I 69 W/m² 8,4 °C 9,2 °C 11,3 km/h (2 Bft)
03.11.2019 13:57 10,0 °C 90 % 986,1 hPa 0,0 mm 8,0 km/h (2 Bft) O 79 ° 0 min 0,000 mm 0,0 UV-I 69 W/m² 8,4 °C 9,0 °C 12,9 km/h (3 Bft)
03.11.2019 13:58 10,0 °C 90 % 986,1 hPa 0,0 mm 5,6 km/h (1 Bft) O 90 ° 0 min 0,000 mm 0,0 UV-I 67 W/m² 8,4 °C 9,6 °C 11,3 km/h (2 Bft)
03.11.2019 13:59 10,0 °C 90 % 986,0 hPa 0,0 mm 5,9 km/h (2 Bft) NO 43 ° 0 min 0,000 mm 0,0 UV-I 67 W/m² 8,4 °C 9,5 °C 8,0 km/h (2 Bft)
03.11.2019 14:00 10,0 °C 90 % 986,1 hPa 0,0 mm 10,0 km/h (2 Bft) O-NO 63 ° 0 min 0,000 mm 0,0 UV-I 65 W/m² 8,4 °C 8,6 °C 14,5 km/h (3 Bft)
03.11.2019 14:01 10,0 °C 90 % 986,1 hPa 0,0 mm 4,5 km/h (1 Bft) O-NO 63 ° 0 min 0,051 mm 0,0 UV-I 65 W/m² 8,4 °C 10,0 °C 8,0 km/h (2 Bft)
03.11.2019 14:02 10,1 °C 90 % 986,0 hPa 0,0 mm 6,9 km/h (2 Bft) O-NO 78 ° 0 min 0,000 mm 0,0 UV-I 62 W/m² 8,5 °C 10,1 °C 8,0 km/h (2 Bft)
03.11.2019 14:03 10,0 °C 90 % 986,1 hPa 0,0 mm 7,1 km/h (2 Bft) O 82 ° 0 min 0,000 mm 0,0 UV-I 62 W/m² 8,4 °C 9,2 °C 9,7 km/h (2 Bft)
03.11.2019 14:04 10,0 °C 89 % 986,0 hPa 0,0 mm 6,3 km/h (2 Bft) O-NO 73 ° 0 min 0,000 mm 0,0 UV-I 60 W/m² 8,3 °C 9,4 °C 11,3 km/h (2 Bft)
03.11.2019 14:05 10,0 °C 90 % 986,1 hPa 0,0 mm 4,7 km/h (1 Bft) O-NO 73 ° 0 min 0,000 mm 0,0 UV-I 60 W/m² 8,4 °C 9,8 °C 8,0 km/h (2 Bft)
03.11.2019 14:06 10,0 °C 90 % 986,1 hPa 0,0 mm 6,8 km/h (2 Bft) O 79 ° 0 min 0,000 mm 0,0 UV-I 62 W/m² 8,4 °C 9,3 °C 12,9 km/h (3 Bft)
03.11.2019 14:07 10,0 °C 90 % 986,0 hPa 0,0 mm 6,4 km/h (2 Bft) O-NO 66 ° 0 min 0,000 mm 0,0 UV-I 63 W/m² 8,4 °C 9,4 °C 8,0 km/h (2 Bft)
03.11.2019 14:08 10,0 °C 90 % 986,0 hPa 0,0 mm 5,7 km/h (1 Bft) O-NO 78 ° 0 min 0,000 mm 0,0 UV-I 67 W/m² 8,4 °C 9,6 °C 8,0 km/h (2 Bft)
03.11.2019 14:09 10,0 °C 90 % 986,0 hPa 0,0 mm 2,3 km/h (1 Bft) O-NO 78 ° 0 min 0,000 mm 0,0 UV-I 69 W/m² 8,4 °C 10,0 °C 6,4 km/h (2 Bft)
03.11.2019 14:10 10,0 °C 90 % 986,0 hPa 0,0 mm 3,5 km/h (1 Bft) O-NO 78 ° 0 min 0,000 mm 0,0 UV-I 69 W/m² 8,4 °C 10,0 °C 4,8 km/h (1 Bft)
03.11.2019 14:11 10,0 °C 90 % 986,0 hPa 0,0 mm 4,3 km/h (1 Bft) O-NO 77 ° 0 min 0,000 mm 0,0 UV-I 69 W/m² 8,4 °C 10,0 °C 6,4 km/h (2 Bft)
03.11.2019 14:12 10,0 °C 90 % 986,0 hPa 0,0 mm 7,2 km/h (2 Bft) O 91 ° 0 min 0,000 mm 0,0 UV-I 69 W/m² 8,4 °C 9,2 °C 14,5 km/h (3 Bft)
03.11.2019 14:13 10,0 °C 90 % 985,9 hPa 0,0 mm 4,6 km/h (1 Bft) O-NO 69 ° 0 min 0,000 mm 0,0 UV-I 69 W/m² 8,4 °C 9,9 °C 8,0 km/h (2 Bft)
03.11.2019 14:14 9,9 °C 90 % 985,9 hPa 0,0 mm 4,4 km/h (1 Bft) O-NO 71 ° 0 min 0,000 mm 0,0 UV-I 65 W/m² 8,3 °C 9,9 °C 6,4 km/h (2 Bft)
03.11.2019 14:15 9,9 °C 90 % 985,9 hPa 0,0 mm 5,5 km/h (1 Bft) O 80 ° 0 min 0,000 mm 0,0 UV-I 63 W/m² 8,3 °C 9,5 °C 11,3 km/h (2 Bft)
03.11.2019 14:16 9,9 °C 90 % 985,9 hPa 0,0 mm 6,2 km/h (2 Bft) O 96 ° 0 min 0,000 mm 0,0 UV-I 62 W/m² 8,3 °C 9,3 °C 11,3 km/h (2 Bft)
03.11.2019 14:17 9,9 °C 90 % 985,9 hPa 0,0 mm 4,7 km/h (1 Bft) O-NO 65 ° 0 min 0,000 mm 0,0 UV-I 62 W/m² 8,3 °C 9,7 °C 6,4 km/h (2 Bft)
03.11.2019 14:18 9,9 °C 90 % 985,9 hPa 0,0 mm 7,2 km/h (2 Bft) O-NO 61 ° 0 min 0,000 mm 0,0 UV-I 62 W/m² 8,3 °C 9,1 °C 11,3 km/h (2 Bft)
03.11.2019 14:19 9,9 °C 90 % 985,9 hPa 0,0 mm 4,5 km/h (1 Bft) O 81 ° 0 min 0,000 mm 0,0 UV-I 63 W/m² 8,3 °C 9,9 °C 6,4 km/h (2 Bft)
03.11.2019 14:20 9,9 °C 90 % 985,9 hPa 0,0 mm 5,9 km/h (2 Bft) O-NO 74 ° 0 min 0,000 mm 0,0 UV-I 65 W/m² 8,3 °C 9,4 °C 11,3 km/h (2 Bft)
03.11.2019 14:21 9,9 °C 90 % 986,0 hPa 0,0 mm 9,0 km/h (2 Bft) O 81 ° 0 min 0,000 mm 0,0 UV-I 65 W/m² 8,3 °C 8,7 °C 14,5 km/h (3 Bft)
03.11.2019 14:22 9,9 °C 90 % 986,0 hPa 0,0 mm 3,0 km/h (1 Bft) O 81 ° 0 min 0,000 mm 0,0 UV-I 63 W/m² 8,3 °C 9,9 °C 6,4 km/h (2 Bft)
03.11.2019 14:23 10,0 °C 90 % 986,0 hPa 0,0 mm 5,2 km/h (1 Bft) O 79 ° 0 min 0,000 mm 0,0 UV-I 63 W/m² 8,4 °C 9,7 °C 6,4 km/h (2 Bft)
03.11.2019 14:24 9,9 °C 90 % 986,0 hPa 0,0 mm 4,8 km/h (1 Bft) O-NO 65 ° 0 min 0,000 mm 0,0 UV-I 62 W/m² 8,3 °C 9,7 °C 6,4 km/h (2 Bft)
03.11.2019 14:25 9,9 °C 90 % 985,9 hPa 0,0 mm 3,3 km/h (1 Bft) O-NO 71 ° 0 min 0,000 mm 0,0 UV-I 60 W/m² 8,3 °C 9,9 °C 6,4 km/h (2 Bft)
03.11.2019 14:26 9,9 °C 90 % 985,9 hPa 0,0 mm 8,5 km/h (2 Bft) O-NO 63 ° 0 min 0,000 mm 0,0 UV-I 58 W/m² 8,3 °C 8,8 °C 14,5 km/h (3 Bft)
03.11.2019 14:27 9,9 °C 90 % 985,9 hPa 0,0 mm 10,3 km/h (2 Bft) O-NO 70 ° 0 min 0,000 mm 0,0 UV-I 58 W/m² 8,3 °C 8,5 °C 16,1 km/h (3 Bft)
03.11.2019 14:28 9,9 °C 90 % 985,8 hPa 0,0 mm 8,5 km/h (2 Bft) O-NO 69 ° 0 min 0,000 mm 0,0 UV-I 56 W/m² 8,3 °C 8,8 °C 12,9 km/h (3 Bft)
03.11.2019 14:29 9,9 °C 90 % 985,8 hPa 0,0 mm 6,0 km/h (2 Bft) O-NO 78 ° 0 min 0,000 mm 0,0 UV-I 56 W/m² 8,3 °C 9,4 °C 9,7 km/h (2 Bft)
03.11.2019 14:30 9,9 °C 90 % 985,8 hPa 0,0 mm 4,9 km/h (1 Bft) O-NO 67 ° 0 min 0,000 mm 0,0 UV-I 54 W/m² 8,3 °C 9,7 °C 6,4 km/h (2 Bft)
03.11.2019 14:31 9,9 °C 89 % 985,8 hPa 0,0 mm 5,3 km/h (1 Bft) O-NO 78 ° 0 min 0,000 mm 0,0 UV-I 53 W/m² 8,2 °C 9,6 °C 8,0 km/h (2 Bft)
03.11.2019 14:32 9,9 °C 90 % 985,7 hPa 0,0 mm 5,7 km/h (1 Bft) O-NO 69 ° 0 min 0,000 mm 0,0 UV-I 51 W/m² 8,3 °C 9,4 °C 8,0 km/h (2 Bft)
03.11.2019 14:33 9,9 °C 90 % 985,8 hPa 0,0 mm 6,3 km/h (2 Bft) O-NO 64 ° 0 min 0,000 mm 0,0 UV-I 51 W/m² 8,3 °C 9,3 °C 8,0 km/h (2 Bft)
03.11.2019 14:34 9,9 °C 90 % 985,8 hPa 0,0 mm 5,6 km/h (1 Bft) O-NO 62 ° 0 min 0,000 mm 0,0 UV-I 53 W/m² 8,3 °C 9,5 °C 8,0 km/h (2 Bft)
03.11.2019 14:35 9,9 °C 90 % 985,7 hPa 0,0 mm 5,0 km/h (1 Bft) O-NO 62 ° 0 min 0,000 mm 0,0 UV-I 53 W/m² 8,3 °C 9,6 °C 8,0 km/h (2 Bft)
03.11.2019 14:36 9,9 °C 90 % 985,8 hPa 0,0 mm 8,4 km/h (2 Bft) O-NO 62 ° 0 min 0,000 mm 0,0 UV-I 53 W/m² 8,3 °C 8,8 °C 11,3 km/h (2 Bft)
03.11.2019 14:37 9,9 °C 90 % 985,8 hPa 0,0 mm 7,2 km/h (2 Bft) O-NO 67 ° 0 min 0,000 mm 0,0 UV-I 53 W/m² 8,3 °C 9,1 °C 14,5 km/h (3 Bft)
03.11.2019 14:38 9,9 °C 90 % 985,8 hPa 0,0 mm 6,0 km/h (2 Bft) O-NO 67 ° 0 min 0,000 mm 0,0 UV-I 53 W/m² 8,3 °C 9,4 °C 8,0 km/h (2 Bft)
03.11.2019 14:39 9,9 °C 90 % 985,8 hPa 0,0 mm 5,1 km/h (1 Bft) NO 51 ° 0 min 0,000 mm 0,0 UV-I 53 W/m² 8,3 °C 9,6 °C 6,4 km/h (2 Bft)
03.11.2019 14:40 9,9 °C 90 % 985,8 hPa 0,0 mm 5,3 km/h (1 Bft) NO 52 ° 0 min 0,000 mm 0,0 UV-I 53 W/m² 8,3 °C 9,6 °C 8,0 km/h (2 Bft)
03.11.2019 14:41 9,9 °C 90 % 985,8 hPa 0,0 mm 3,8 km/h (1 Bft) O 81 ° 0 min 0,000 mm 0,0 UV-I 53 W/m² 8,3 °C 9,9 °C 12,9 km/h (3 Bft)
03.11.2019 14:42 9,9 °C 90 % 985,9 hPa 0,0 mm 5,4 km/h (1 Bft) O 79 ° 0 min 0,000 mm 0,0 UV-I 53 W/m² 8,3 °C 9,5 °C 8,0 km/h (2 Bft)
03.11.2019 14:43 9,9 °C 90 % 985,8 hPa 0,0 mm 4,5 km/h (1 Bft) O 80 ° 0 min 0,000 mm 0,0 UV-I 51 W/m² 8,3 °C 9,9 °C 6,4 km/h (2 Bft)
03.11.2019 14:44 9,9 °C 90 % 985,8 hPa 0,0 mm 5,4 km/h (1 Bft) O 93 ° 0 min 0,000 mm 0,0 UV-I 51 W/m² 8,3 °C 9,5 °C 8,0 km/h (2 Bft)
03.11.2019 14:45 9,9 °C 90 % 985,8 hPa 0,0 mm 3,8 km/h (1 Bft) O-NO 65 ° 0 min 0,000 mm 0,0 UV-I 51 W/m² 8,3 °C 9,9 °C 6,4 km/h (2 Bft)
03.11.2019 14:46 9,9 °C 90 % 985,8 hPa 0,0 mm 6,5 km/h (2 Bft) O-NO 61 ° 0 min 0,000 mm 0,0 UV-I 51 W/m² 8,3 °C 9,2 °C 8,0 km/h (2 Bft)
03.11.2019 14:47 9,9 °C 90 % 985,8 hPa 0,0 mm 6,3 km/h (2 Bft) O-NO 70 ° 0 min 0,000 mm 0,0 UV-I 51 W/m² 8,3 °C 9,3 °C 8,0 km/h (2 Bft)
03.11.2019 14:48 9,8 °C 90 % 985,8 hPa 0,0 mm 4,6 km/h (1 Bft) NO 56 ° 0 min 0,000 mm 0,0 UV-I 51 W/m² 8,2 °C 9,7 °C 6,4 km/h (2 Bft)
03.11.2019 14:49 9,9 °C 90 % 985,8 hPa 0,0 mm 5,3 km/h (1 Bft) O-NO 65 ° 0 min 0,000 mm 0,0 UV-I 49 W/m² 8,3 °C 9,6 °C 9,7 km/h (2 Bft)
03.11.2019 14:50 9,9 °C 90 % 985,8 hPa 0,0 mm 7,2 km/h (2 Bft) O-NO 75 ° 0 min 0,000 mm 0,0 UV-I 49 W/m² 8,3 °C 9,1 °C 12,9 km/h (3 Bft)
03.11.2019 14:51 9,9 °C 90 % 985,8 hPa 0,0 mm 4,3 km/h (1 Bft) O-NO 70 ° 0 min 0,000 mm 0,0 UV-I 47 W/m² 8,3 °C 9,9 °C 6,4 km/h (2 Bft)
03.11.2019 14:52 9,9 °C 90 % 985,8 hPa 0,0 mm 6,6 km/h (2 Bft) O-NO 61 ° 0 min 0,000 mm 0,0 UV-I 47 W/m² 8,3 °C 9,2 °C 8,0 km/h (2 Bft)
03.11.2019 14:53 9,9 °C 90 % 985,8 hPa 0,0 mm 3,6 km/h (1 Bft) O-NO 59 ° 0 min 0,000 mm 0,0 UV-I 47 W/m² 8,3 °C 9,9 °C 6,4 km/h (2 Bft)
03.11.2019 14:54 9,8 °C 90 % 985,7 hPa 0,0 mm 5,2 km/h (1 Bft) O-NO 61 ° 0 min 0,000 mm 0,0 UV-I 46 W/m² 8,2 °C 9,5 °C 8,0 km/h (2 Bft)
03.11.2019 14:55 9,9 °C 90 % 985,7 hPa 0,0 mm 4,6 km/h (1 Bft) O-NO 78 ° 0 min 0,000 mm 0,0 UV-I 46 W/m² 8,3 °C 9,8 °C 6,4 km/h (2 Bft)
03.11.2019 14:56 9,9 °C 90 % 985,8 hPa 0,0 mm 4,8 km/h (1 Bft) O 82 ° 0 min 0,000 mm 0,0 UV-I 44 W/m² 8,3 °C 9,7 °C 6,4 km/h (2 Bft)
03.11.2019 14:57 9,9 °C 90 % 985,8 hPa 0,0 mm 3,5 km/h (1 Bft) O 82 ° 0 min 0,000 mm 0,0 UV-I 44 W/m² 8,3 °C 9,9 °C 4,8 km/h (1 Bft)
03.11.2019 14:58 9,9 °C 90 % 985,7 hPa 0,0 mm 5,0 km/h (1 Bft) O-NO 62 ° 0 min 0,000 mm 0,0 UV-I 42 W/m² 8,3 °C 9,6 °C 6,4 km/h (2 Bft)
03.11.2019 14:59 9,9 °C 90 % 985,7 hPa 0,0 mm 7,1 km/h (2 Bft) O-NO 67 ° 0 min 0,000 mm 0,0 UV-I 42 W/m² 8,3 °C 9,1 °C 11,3 km/h (2 Bft)
03.11.2019 15:00 9,9 °C 90 % 985,8 hPa 0,0 mm 5,6 km/h (1 Bft) NO 51 ° 0 min 0,000 mm 0,0 UV-I 39 W/m² 8,3 °C 9,5 °C 9,7 km/h (2 Bft)
03.11.2019 15:01 9,9 °C 90 % 985,8 hPa 0,0 mm 6,6 km/h (2 Bft) NO 53 ° 0 min 0,025 mm 0,0 UV-I 37 W/m² 8,3 °C 9,2 °C 9,7 km/h (2 Bft)
03.11.2019 15:02 9,8 °C 90 % 985,8 hPa 0,0 mm 5,6 km/h (1 Bft) O-NO 59 ° 0 min 0,000 mm 0,0 UV-I 35 W/m² 8,2 °C 9,4 °C 8,0 km/h (2 Bft)
03.11.2019 15:03 9,8 °C 90 % 985,8 hPa 0,0 mm 4,9 km/h (1 Bft) O-NO 59 ° 0 min 0,000 mm 0,0 UV-I 35 W/m² 8,2 °C 9,6 °C 6,4 km/h (2 Bft)
03.11.2019 15:04 9,8 °C 90 % 985,8 hPa 0,0 mm 6,2 km/h (2 Bft) O-NO 67 ° 0 min 0,000 mm 0,0 UV-I 37 W/m² 8,2 °C 9,2 °C 9,7 km/h (2 Bft)
03.11.2019 15:05 9,8 °C 90 % 985,8 hPa 0,0 mm 4,8 km/h (1 Bft) O-NO 69 ° 0 min 0,000 mm 0,0 UV-I 37 W/m² 8,2 °C 9,6 °C 6,4 km/h (2 Bft)
03.11.2019 15:06 9,9 °C 90 % 985,8 hPa 0,0 mm 5,0 km/h (1 Bft) O-NO 67 ° 0 min 0,000 mm 0,0 UV-I 39 W/m² 8,3 °C 9,6 °C 8,0 km/h (2 Bft)
03.11.2019 15:07 9,9 °C 90 % 985,8 hPa 0,0 mm 5,6 km/h (1 Bft) O 83 ° 0 min 0,000 mm 0,0 UV-I 39 W/m² 8,3 °C 9,5 °C 8,0 km/h (2 Bft)
03.11.2019 15:08 9,8 °C 90 % 985,7 hPa 0,0 mm 6,1 km/h (2 Bft) NO 50 ° 0 min 0,000 mm 0,0 UV-I 39 W/m² 8,2 °C 9,2 °C 8,0 km/h (2 Bft)
03.11.2019 15:09 9,8 °C 90 % 985,7 hPa 0,0 mm 6,9 km/h (2 Bft) O-NO 71 ° 0 min 0,000 mm 0,0 UV-I 39 W/m² 8,2 °C 9,0 °C 9,7 km/h (2 Bft)
03.11.2019 15:10 9,8 °C 90 % 985,8 hPa 0,0 mm 5,6 km/h (1 Bft) O-NO 77 ° 0 min 0,000 mm 0,0 UV-I 39 W/m² 8,2 °C 9,4 °C 11,3 km/h (2 Bft)
03.11.2019 15:11 9,8 °C 90 % 985,8 hPa 0,0 mm 4,7 km/h (1 Bft) NO 35 ° 0 min 0,000 mm 0,0 UV-I 39 W/m² 8,2 °C 9,6 °C 8,0 km/h (2 Bft)
03.11.2019 15:12 9,8 °C 90 % 985,9 hPa 0,0 mm 5,4 km/h (1 Bft) O-NO 63 ° 0 min 0,000 mm 0,0 UV-I 37 W/m² 8,2 °C 9,4 °C 8,0 km/h (2 Bft)
03.11.2019 15:13 9,8 °C 90 % 985,9 hPa 0,0 mm 3,7 km/h (1 Bft) O-NO 67 ° 0 min 0,000 mm 0,0 UV-I 37 W/m² 8,2 °C 9,8 °C 8,0 km/h (2 Bft)
03.11.2019 15:14 9,8 °C 90 % 985,9 hPa 0,0 mm 4,0 km/h (1 Bft) O 92 ° 0 min 0,000 mm 0,0 UV-I 37 W/m² 8,2 °C 9,8 °C 6,4 km/h (2 Bft)
03.11.2019 15:15 9,8 °C 90 % 986,0 hPa 0,0 mm 7,1 km/h (2 Bft) O-NO 61 ° 0 min 0,000 mm 0,0 UV-I 35 W/m² 8,2 °C 9,0 °C 12,9 km/h (3 Bft)
03.11.2019 15:16 9,8 °C 90 % 986,0 hPa 0,0 mm 5,6 km/h (1 Bft) O-NO 66 ° 0 min 0,000 mm 0,0 UV-I 35 W/m² 8,2 °C 9,4 °C 8,0 km/h (2 Bft)
03.11.2019 15:17 9,8 °C 90 % 985,9 hPa 0,0 mm 3,8 km/h (1 Bft) O-NO 63 ° 0 min 0,000 mm 0,0 UV-I 33 W/m² 8,2 °C 9,8 °C 6,4 km/h (2 Bft)
03.11.2019 15:18 9,8 °C 90 % 985,9 hPa 0,0 mm 5,6 km/h (1 Bft) O-NO 63 ° 0 min 0,000 mm 0,0 UV-I 32 W/m² 8,2 °C 9,4 °C 8,0 km/h (2 Bft)
03.11.2019 15:19 9,8 °C 90 % 985,8 hPa 0,0 mm 5,6 km/h (1 Bft) O 97 ° 0 min 0,000 mm 0,0 UV-I 30 W/m² 8,2 °C 9,4 °C 8,0 km/h (2 Bft)
03.11.2019 15:20 9,8 °C 90 % 985,9 hPa 0,0 mm 2,5 km/h (1 Bft) O-NO 63 ° 0 min 0,000 mm 0,0 UV-I 28 W/m² 8,2 °C 9,8 °C 8,0 km/h (2 Bft)
03.11.2019 15:21 9,8 °C 90 % 985,9 hPa 0,0 mm 7,4 km/h (2 Bft) O-NO 67 ° 0 min 0,000 mm 0,0 UV-I 26 W/m² 8,2 °C 8,9 °C 12,9 km/h (3 Bft)
03.11.2019 15:22 9,8 °C 90 % 985,9 hPa 0,0 mm 3,6 km/h (1 Bft) O-NO 57 ° 0 min 0,000 mm 0,0 UV-I 25 W/m² 8,2 °C 9,8 °C 6,4 km/h (2 Bft)
03.11.2019 15:23 9,8 °C 90 % 985,9 hPa 0,0 mm 2,9 km/h (1 Bft) NO 47 ° 0 min 0,000 mm 0,0 UV-I 23 W/m² 8,2 °C 9,8 °C 6,4 km/h (2 Bft)
03.11.2019 15:24 9,8 °C 90 % 985,9 hPa 0,0 mm 4,3 km/h (1 Bft) NO 54 ° 0 min 0,000 mm 0,0 UV-I 21 W/m² 8,2 °C 9,8 °C 6,4 km/h (2 Bft)
03.11.2019 15:25 9,8 °C 90 % 985,9 hPa 0,0 mm 0,2 km/h (0 Bft) NO 54 ° 0 min 0,000 mm 0,0 UV-I 21 W/m² 8,2 °C 9,8 °C 1,6 km/h (1 Bft)
03.11.2019 15:26 9,8 °C 90 % 985,9 hPa 0,0 mm 0,6 km/h (0 Bft) NO 54 ° 0 min 0,000 mm 0,0 UV-I 21 W/m² 8,2 °C 9,8 °C 1,6 km/h (1 Bft)
03.11.2019 15:27 9,8 °C 90 % 985,9 hPa 0,0 mm 1,0 km/h (0 Bft) NO 54 ° 0 min 0,000 mm 0,0 UV-I 21 W/m² 8,2 °C 9,8 °C 3,2 km/h (1 Bft)
03.11.2019 15:28 9,8 °C 90 % 985,9 hPa 0,0 mm 0,0 km/h (0 Bft) NO 54 ° 0 min 0,000 mm 0,0 UV-I 21 W/m² 8,2 °C 9,8 °C 0,0 km/h (0 Bft)
03.11.2019 15:29 9,8 °C 90 % 985,9 hPa 0,0 mm 0,1 km/h (0 Bft) NO 54 ° 0 min 0,000 mm 0,0 UV-I 21 W/m² 8,2 °C 9,8 °C 1,6 km/h (1 Bft)
03.11.2019 15:30 9,8 °C 90 % 985,9 hPa 0,0 mm 0,0 km/h (0 Bft) NO 54 ° 0 min 0,000 mm 0,0 UV-I 21 W/m² 8,2 °C 9,8 °C 0,0 km/h (0 Bft)
03.11.2019 15:31 9,8 °C 90 % 985,9 hPa 0,0 mm 0,0 km/h (0 Bft) NO 54 ° 0 min 0,000 mm 0,0 UV-I 21 W/m² 8,2 °C 9,8 °C 0,0 km/h (0 Bft)
03.11.2019 15:32 9,8 °C 90 % 985,8 hPa 0,0 mm 0,0 km/h (0 Bft) NO 54 ° 0 min 0,000 mm 0,0 UV-I 21 W/m² 8,2 °C 9,8 °C 0,0 km/h (0 Bft)
03.11.2019 15:33 9,8 °C 90 % 985,8 hPa 0,0 mm 1,1 km/h (1 Bft) O 80 ° 0 min 0,000 mm 0,0 UV-I 19 W/m² 8,2 °C 9,8 °C 4,8 km/h (1 Bft)
03.11.2019 15:34 9,8 °C 90 % 985,7 hPa 0,0 mm 4,3 km/h (1 Bft) O-NO 73 ° 0 min 0,000 mm 0,0 UV-I 19 W/m² 8,2 °C 9,8 °C 6,4 km/h (2 Bft)
03.11.2019 15:35 9,8 °C 90 % 985,7 hPa 0,0 mm 4,6 km/h (1 Bft) O-NO 74 ° 0 min 0,000 mm 0,0 UV-I 19 W/m² 8,2 °C 9,7 °C 4,8 km/h (1 Bft)
03.11.2019 15:36 9,8 °C 90 % 985,7 hPa 0,0 mm 6,1 km/h (2 Bft) O-NO 76 ° 0 min 0,000 mm 0,0 UV-I 21 W/m² 8,2 °C 9,2 °C 8,0 km/h (2 Bft)
03.11.2019 15:37 9,8 °C 90 % 985,6 hPa 0,0 mm 4,6 km/h (1 Bft) O-NO 78 ° 0 min 0,000 mm 0,0 UV-I 21 W/m² 8,2 °C 9,7 °C 6,4 km/h (2 Bft)
03.11.2019 15:38 9,8 °C 90 % 985,6 hPa 0,0 mm 5,9 km/h (2 Bft) O 82 ° 0 min 0,000 mm 0,0 UV-I 21 W/m² 8,2 °C 9,3 °C 9,7 km/h (2 Bft)
03.11.2019 15:39 9,8 °C 90 % 985,5 hPa 0,0 mm 6,2 km/h (2 Bft) O 82 ° 0 min 0,000 mm 0,0 UV-I 21 W/m² 8,2 °C 9,2 °C 11,3 km/h (2 Bft)
03.11.2019 15:40 9,8 °C 90 % 985,5 hPa 0,0 mm 3,4 km/h (1 Bft) O 83 ° 0 min 0,000 mm 0,0 UV-I 21 W/m² 8,2 °C 9,8 °C 4,8 km/h (1 Bft)
03.11.2019 15:41 9,8 °C 90 % 985,5 hPa 0,0 mm 4,5 km/h (1 Bft) N-NO 30 ° 0 min 0,000 mm 0,0 UV-I 19 W/m² 8,2 °C 9,8 °C 6,4 km/h (2 Bft)
03.11.2019 15:42 9,8 °C 90 % 985,5 hPa 0,0 mm 2,5 km/h (1 Bft) N-NO 30 ° 0 min 0,000 mm 0,0 UV-I 19 W/m² 8,2 °C 9,8 °C 4,8 km/h (1 Bft)
03.11.2019 15:43 9,8 °C 90 % 985,4 hPa 0,0 mm 3,3 km/h (1 Bft) NO 37 ° 0 min 0,000 mm 0,0 UV-I 19 W/m² 8,2 °C 9,8 °C 4,8 km/h (1 Bft)
03.11.2019 15:44 9,8 °C 90 % 985,4 hPa 0,0 mm 5,6 km/h (1 Bft) O-NO 71 ° 0 min 0,000 mm 0,0 UV-I 19 W/m² 8,2 °C 9,4 °C 6,4 km/h (2 Bft)
03.11.2019 15:45 9,8 °C 90 % 985,4 hPa 0,0 mm 4,6 km/h (1 Bft) O-SO 105 ° 0 min 0,000 mm 0,0 UV-I 18 W/m² 8,2 °C 9,7 °C 6,4 km/h (2 Bft)
03.11.2019 15:46 9,7 °C 90 % 985,3 hPa 0,0 mm 4,2 km/h (1 Bft) O-NO 71 ° 0 min 0,000 mm 0,0 UV-I 18 W/m² 8,1 °C 9,7 °C 8,0 km/h (2 Bft)
03.11.2019 15:47 9,7 °C 90 % 985,3 hPa 0,0 mm 7,2 km/h (2 Bft) O-NO 71 ° 0 min 0,000 mm 0,0 UV-I 18 W/m² 8,1 °C 8,8 °C 11,3 km/h (2 Bft)
03.11.2019 15:48 9,7 °C 90 % 985,4 hPa 0,0 mm 3,7 km/h (1 Bft) O-NO 72 ° 0 min 0,000 mm 0,0 UV-I 18 W/m² 8,1 °C 9,7 °C 4,8 km/h (1 Bft)
03.11.2019 15:49 9,7 °C 90 % 985,3 hPa 0,0 mm 2,9 km/h (1 Bft) SO 140 ° 0 min 0,000 mm 0,0 UV-I 19 W/m² 8,1 °C 9,7 °C 4,8 km/h (1 Bft)
03.11.2019 15:50 9,7 °C 91 % 985,3 hPa 0,0 mm 3,6 km/h (1 Bft) SO 142 ° 0 min 0,000 mm 0,0 UV-I 19 W/m² 8,3 °C 9,7 °C 4,8 km/h (1 Bft)
03.11.2019 15:51 9,7 °C 90 % 985,2 hPa 0,0 mm 3,9 km/h (1 Bft) SO 132 ° 0 min 0,000 mm 0,0 UV-I 19 W/m² 8,1 °C 9,7 °C 4,8 km/h (1 Bft)
03.11.2019 15:52 9,7 °C 91 % 985,2 hPa 0,0 mm 2,9 km/h (1 Bft) O 94 ° 0 min 0,000 mm 0,0 UV-I 19 W/m² 8,3 °C 9,7 °C 4,8 km/h (1 Bft)
03.11.2019 15:53 9,7 °C 91 % 985,2 hPa 0,0 mm 0,0 km/h (0 Bft) O 94 ° 0 min 0,000 mm 0,0 UV-I 19 W/m² 8,3 °C 9,7 °C 0,0 km/h (0 Bft)
03.11.2019 15:54 9,7 °C 91 % 985,2 hPa 0,0 mm 3,0 km/h (1 Bft) O 94 ° 0 min 0,000 mm 0,0 UV-I 18 W/m² 8,3 °C 9,7 °C 6,4 km/h (2 Bft)
03.11.2019 15:55 9,7 °C 91 % 985,2 hPa 0,0 mm 4,3 km/h (1 Bft) O-SO 118 ° 0 min 0,000 mm 0,0 UV-I 18 W/m² 8,3 °C 9,7 °C 12,9 km/h (3 Bft)
03.11.2019 15:56 9,6 °C 91 % 985,2 hPa 0,0 mm 7,3 km/h (2 Bft) O-NO 76 ° 0 min 0,000 mm 0,0 UV-I 18 W/m² 8,2 °C 8,7 °C 14,5 km/h (3 Bft)
03.11.2019 15:57 9,6 °C 91 % 985,2 hPa 0,0 mm 7,2 km/h (2 Bft) O 88 ° 0 min 0,000 mm 0,0 UV-I 18 W/m² 8,2 °C 8,7 °C 12,9 km/h (3 Bft)
03.11.2019 15:58 9,6 °C 91 % 985,2 hPa 0,0 mm 2,9 km/h (1 Bft) O-NO 71 ° 0 min 0,000 mm 0,0 UV-I 18 W/m² 8,2 °C 9,6 °C 4,8 km/h (1 Bft)
03.11.2019 15:59 9,6 °C 91 % 985,2 hPa 0,0 mm 0,0 km/h (0 Bft) O-NO 71 ° 0 min 0,000 mm 0,0 UV-I 16 W/m² 8,2 °C 9,6 °C 0,0 km/h (0 Bft)
03.11.2019 16:00 9,6 °C 91 % 985,4 hPa 0,0 mm 1,0 km/h (0 Bft) NO 56 ° 0 min 0,000 mm 0,0 UV-I 16 W/m² 8,2 °C 9,6 °C 4,8 km/h (1 Bft)
03.11.2019 16:01 9,6 °C 91 % 985,3 hPa 0,0 mm 3,4 km/h (1 Bft) O-NO 65 ° 0 min 0,026 mm 0,0 UV-I 16 W/m² 8,2 °C 9,6 °C 8,0 km/h (2 Bft)
03.11.2019 16:02 9,6 °C 91 % 985,3 hPa 0,0 mm 6,5 km/h (2 Bft) O 96 ° 0 min 0,000 mm 0,0 UV-I 14 W/m² 8,2 °C 8,9 °C 8,0 km/h (2 Bft)
03.11.2019 16:03 9,6 °C 91 % 985,4 hPa 0,0 mm 4,2 km/h (1 Bft) O-NO 66 ° 0 min 0,000 mm 0,0 UV-I 14 W/m² 8,2 °C 9,6 °C 6,4 km/h (2 Bft)
03.11.2019 16:04 9,6 °C 91 % 985,4 hPa 0,0 mm 3,1 km/h (1 Bft) SO 141 ° 0 min 0,000 mm 0,0 UV-I 14 W/m² 8,2 °C 9,6 °C 8,0 km/h (2 Bft)
03.11.2019 16:05 9,6 °C 91 % 985,4 hPa 0,0 mm 2,5 km/h (1 Bft) SO 142 ° 0 min 0,000 mm 0,0 UV-I 14 W/m² 8,2 °C 9,6 °C 6,4 km/h (2 Bft)
03.11.2019 16:06 9,5 °C 91 % 985,4 hPa 0,0 mm 2,5 km/h (1 Bft) SO 138 ° 0 min 0,000 mm 0,0 UV-I 14 W/m² 8,1 °C 9,5 °C 4,8 km/h (1 Bft)
03.11.2019 16:07 9,5 °C 91 % 985,4 hPa 0,0 mm 1,2 km/h (1 Bft) SO 138 ° 0 min 0,000 mm 0,0 UV-I 14 W/m² 8,1 °C 9,5 °C 1,6 km/h (1 Bft)
03.11.2019 16:08 9,5 °C 91 % 985,5 hPa 0,0 mm 2,0 km/h (1 Bft) SO 138 ° 0 min 0,000 mm 0,0 UV-I 14 W/m² 8,1 °C 9,5 °C 3,2 km/h (1 Bft)
03.11.2019 16:09 9,5 °C 91 % 985,5 hPa 0,0 mm 4,5 km/h (1 Bft) O-NO 78 ° 0 min 0,000 mm 0,0 UV-I 14 W/m² 8,1 °C 9,5 °C 6,4 km/h (2 Bft)
03.11.2019 16:10 9,5 °C 91 % 985,5 hPa 0,0 mm 1,5 km/h (1 Bft) O-NO 78 ° 0 min 0,000 mm 0,0 UV-I 14 W/m² 8,1 °C 9,5 °C 4,8 km/h (1 Bft)
03.11.2019 16:11 9,4 °C 91 % 985,5 hPa 0,0 mm 3,2 km/h (1 Bft) O-NO 73 ° 0 min 0,000 mm 0,0 UV-I 12 W/m² 8,0 °C 9,4 °C 4,8 km/h (1 Bft)
03.11.2019 16:12 9,4 °C 91 % 985,5 hPa 0,0 mm 5,4 km/h (1 Bft) NO 48 ° 0 min 0,000 mm 0,0 UV-I 12 W/m² 8,0 °C 9,0 °C 8,0 km/h (2 Bft)
03.11.2019 16:13 9,4 °C 91 % 985,5 hPa 0,0 mm 3,6 km/h (1 Bft) NO 49 ° 0 min 0,000 mm 0,0 UV-I 11 W/m² 8,0 °C 9,4 °C 4,8 km/h (1 Bft)
03.11.2019 16:14 9,4 °C 91 % 985,5 hPa 0,0 mm 2,2 km/h (1 Bft) NO 49 ° 0 min 0,000 mm 0,0 UV-I 9 W/m² 8,0 °C 9,4 °C 4,8 km/h (1 Bft)
03.11.2019 16:15 9,4 °C 91 % 985,5 hPa 0,0 mm 2,1 km/h (1 Bft) NO 49 ° 0 min 0,000 mm 0,0 UV-I 9 W/m² 8,0 °C 9,4 °C 4,8 km/h (1 Bft)
03.11.2019 16:16 9,4 °C 90 % 985,4 hPa 0,0 mm 1,4 km/h (1 Bft) NO 49 ° 0 min 0,000 mm 0,0 UV-I 7 W/m² 7,8 °C 9,4 °C 3,2 km/h (1 Bft)
03.11.2019 16:17 9,4 °C 91 % 985,5 hPa 0,0 mm 1,3 km/h (1 Bft) NO 49 ° 0 min 0,000 mm 0,0 UV-I 7 W/m² 8,0 °C 9,4 °C 3,2 km/h (1 Bft)
03.11.2019 16:18 9,4 °C 91 % 985,4 hPa 0,0 mm 2,9 km/h (1 Bft) NO 49 ° 0 min 0,000 mm 0,0 UV-I 7 W/m² 8,0 °C 9,4 °C 4,8 km/h (1 Bft)
03.11.2019 16:19 9,4 °C 91 % 985,4 hPa 0,0 mm 7,4 km/h (2 Bft) O 96 ° 0 min 0,000 mm 0,0 UV-I 5 W/m² 8,0 °C 8,4 °C 11,3 km/h (2 Bft)
03.11.2019 16:20 9,4 °C 91 % 985,4 hPa 0,0 mm 2,0 km/h (1 Bft) O 96 ° 0 min 0,000 mm 0,0 UV-I 5 W/m² 8,0 °C 9,4 °C 3,2 km/h (1 Bft)
03.11.2019 16:21 9,4 °C 91 % 985,4 hPa 0,0 mm 2,6 km/h (1 Bft) O 84 ° 0 min 0,000 mm 0,0 UV-I 5 W/m² 8,0 °C 9,4 °C 3,2 km/h (1 Bft)
03.11.2019 16:22 9,4 °C 91 % 985,4 hPa 0,0 mm 1,1 km/h (1 Bft) O 84 ° 0 min 0,000 mm 0,0 UV-I 5 W/m² 8,0 °C 9,4 °C 1,6 km/h (1 Bft)
03.11.2019 16:23 9,4 °C 91 % 985,4 hPa 0,0 mm 2,2 km/h (1 Bft) O 84 ° 0 min 0,000 mm 0,0 UV-I 7 W/m² 8,0 °C 9,4 °C 4,8 km/h (1 Bft)
03.11.2019 16:24 9,4 °C 91 % 985,4 hPa 0,0 mm 3,2 km/h (1 Bft) O 84 ° 0 min 0,000 mm 0,0 UV-I 7 W/m² 8,0 °C 9,4 °C 3,2 km/h (1 Bft)
03.11.2019 16:25 9,4 °C 91 % 985,4 hPa 0,0 mm 2,7 km/h (1 Bft) O 84 ° 0 min 0,000 mm 0,0 UV-I 7 W/m² 8,0 °C 9,4 °C 4,8 km/h (1 Bft)
03.11.2019 16:26 9,4 °C 91 % 985,4 hPa 0,0 mm 3,3 km/h (1 Bft) O 84 ° 0 min 0,000 mm 0,0 UV-I 7 W/m² 8,0 °C 9,4 °C 4,8 km/h (1 Bft)
03.11.2019 16:27 9,4 °C 91 % 985,4 hPa 0,0 mm 3,0 km/h (1 Bft) O 84 ° 0 min 0,000 mm 0,0 UV-I 7 W/m² 8,0 °C 9,4 °C 4,8 km/h (1 Bft)
03.11.2019 16:28 9,4 °C 91 % 985,4 hPa 0,0 mm 0,9 km/h (0 Bft) O 84 ° 0 min 0,000 mm 0,0 UV-I 7 W/m² 8,0 °C 9,4 °C 3,2 km/h (1 Bft)
03.11.2019 16:29 9,4 °C 91 % 985,4 hPa 0,0 mm 0,1 km/h (0 Bft) O 84 ° 0 min 0,000 mm 0,0 UV-I 7 W/m² 8,0 °C 9,4 °C 1,6 km/h (1 Bft)
03.11.2019 16:30 9,4 °C 91 % 985,4 hPa 0,0 mm 0,0 km/h (0 Bft) O 84 ° 0 min 0,000 mm 0,0 UV-I 7 W/m² 8,0 °C 9,4 °C 0,0 km/h (0 Bft)
03.11.2019 16:31 9,4 °C 91 % 985,4 hPa 0,0 mm 0,0 km/h (0 Bft) O 84 ° 0 min 0,000 mm 0,0 UV-I 7 W/m² 8,0 °C 9,4 °C 0,0 km/h (0 Bft)
03.11.2019 16:32 9,4 °C 91 % 985,5 hPa 0,0 mm 0,0 km/h (0 Bft) O 84 ° 0 min 0,000 mm 0,0 UV-I 5 W/m² 8,0 °C 9,4 °C 0,0 km/h (0 Bft)
03.11.2019 16:33 9,3 °C 91 % 985,5 hPa 0,0 mm 0,0 km/h (0 Bft) O 84 ° 0 min 0,000 mm 0,0 UV-I 5 W/m² 7,9 °C 9,3 °C 0,0 km/h (0 Bft)
03.11.2019 16:34 9,4 °C 91 % 985,5 hPa 0,0 mm 0,0 km/h (0 Bft) O 84 ° 0 min 0,000 mm 0,0 UV-I 5 W/m² 8,0 °C 9,4 °C 0,0 km/h (0 Bft)
03.11.2019 16:35 9,4 °C 91 % 985,6 hPa 0,0 mm 1,3 km/h (1 Bft) O 88 ° 0 min 0,000 mm 0,0 UV-I 5 W/m² 8,0 °C 9,4 °C 3,2 km/h (1 Bft)
03.11.2019 16:36 9,4 °C 91 % 985,6 hPa 0,0 mm 2,6 km/h (1 Bft) O 88 ° 0 min 0,000 mm 0,0 UV-I 5 W/m² 8,0 °C 9,4 °C 3,2 km/h (1 Bft)
03.11.2019 16:37 9,3 °C 91 % 985,6 hPa 0,0 mm 0,4 km/h (0 Bft) O 88 ° 0 min 0,000 mm 0,0 UV-I 5 W/m² 7,9 °C 9,3 °C 1,6 km/h (1 Bft)
03.11.2019 16:38 9,3 °C 91 % 985,5 hPa 0,0 mm 0,0 km/h (0 Bft) O 88 ° 0 min 0,000 mm 0,0 UV-I 5 W/m² 7,9 °C 9,3 °C 0,0 km/h (0 Bft)
03.11.2019 16:39 9,3 °C 91 % 985,5 hPa 0,0 mm 0,3 km/h (0 Bft) O 88 ° 0 min 0,000 mm 0,0 UV-I 5 W/m² 7,9 °C 9,3 °C 3,2 km/h (1 Bft)
03.11.2019 16:40 9,4 °C 91 % 985,5 hPa 0,0 mm 2,7 km/h (1 Bft) O 88 ° 0 min 0,000 mm 0,0 UV-I 5 W/m² 8,0 °C 9,4 °C 4,8 km/h (1 Bft)
03.11.2019 16:41 9,3 °C 91 % 985,5 hPa 0,0 mm 3,6 km/h (1 Bft) O 88 ° 0 min 0,000 mm 0,0 UV-I 5 W/m² 7,9 °C 9,3 °C 4,8 km/h (1 Bft)
03.11.2019 16:42 9,3 °C 91 % 985,6 hPa 0,0 mm 2,1 km/h (1 Bft) O 88 ° 0 min 0,000 mm 0,0 UV-I 0 W/m² 7,9 °C 9,3 °C 3,2 km/h (1 Bft)
03.11.2019 16:43 9,3 °C 91 % 985,5 hPa 0,0 mm 0,1 km/h (0 Bft) O 88 ° 0 min 0,000 mm 0,0 UV-I 0 W/m² 7,9 °C 9,3 °C 1,6 km/h (1 Bft)
03.11.2019 16:44 9,3 °C 91 % 985,6 hPa 0,0 mm 0,0 km/h (0 Bft) O 88 ° 0 min 0,000 mm 0,0 UV-I 0 W/m² 7,9 °C 9,3 °C 0,0 km/h (0 Bft)
03.11.2019 16:45 9,3 °C 91 % 985,6 hPa 0,0 mm 0,0 km/h (0 Bft) O 88 ° 0 min 0,000 mm 0,0 UV-I 0 W/m² 7,9 °C 9,3 °C 0,0 km/h (0 Bft)
03.11.2019 16:46 9,3 °C 91 % 985,6 hPa 0,0 mm 0,3 km/h (0 Bft) O 88 ° 0 min 0,000 mm 0,0 UV-I 0 W/m² 7,9 °C 9,3 °C 1,6 km/h (1 Bft)
03.11.2019 16:47 9,3 °C 91 % 985,5 hPa 0,0 mm 1,8 km/h (1 Bft) O 88 ° 0 min 0,000 mm 0,0 UV-I 0 W/m² 7,9 °C 9,3 °C 3,2 km/h (1 Bft)
03.11.2019 16:48 9,3 °C 91 % 985,6 hPa 0,0 mm 1,7 km/h (1 Bft) O 88 ° 0 min 0,000 mm 0,0 UV-I 0 W/m² 7,9 °C 9,3 °C 3,2 km/h (1 Bft)
03.11.2019 16:49 9,3 °C 91 % 985,6 hPa 0,0 mm 0,0 km/h (0 Bft) O 88 ° 0 min 0,000 mm 0,0 UV-I 0 W/m² 7,9 °C 9,3 °C 0,0 km/h (0 Bft)
03.11.2019 16:50 9,3 °C 91 % 985,7 hPa 0,0 mm 1,6 km/h (1 Bft) O 88 ° 0 min 0,000 mm 0,0 UV-I 0 W/m² 7,9 °C 9,3 °C 4,8 km/h (1 Bft)
03.11.2019 16:51 9,3 °C 91 % 985,7 hPa 0,0 mm 2,2 km/h (1 Bft) O 88 ° 0 min 0,000 mm 0,0 UV-I 0 W/m² 7,9 °C 9,3 °C 4,8 km/h (1 Bft)
03.11.2019 16:52 9,3 °C 91 % 985,6 hPa 0,0 mm 0,0 km/h (0 Bft) O 88 ° 0 min 0,000 mm 0,0 UV-I 0 W/m² 7,9 °C 9,3 °C 0,0 km/h (0 Bft)
03.11.2019 16:53 9,3 °C 91 % 985,6 hPa 0,0 mm 0,0 km/h (0 Bft) O 88 ° 0 min 0,000 mm 0,0 UV-I 0 W/m² 7,9 °C 9,3 °C 0,0 km/h (0 Bft)
03.11.2019 16:54 9,2 °C 91 % 985,6 hPa 0,0 mm 1,6 km/h (1 Bft) O 88 ° 0 min 0,000 mm 0,0 UV-I 0 W/m² 7,8 °C 9,2 °C 4,8 km/h (1 Bft)
03.11.2019 16:55 9,2 °C 91 % 985,6 hPa 0,0 mm 3,7 km/h (1 Bft) O-SO 108 ° 0 min 0,000 mm 0,0 UV-I 0 W/m² 7,8 °C 9,2 °C 6,4 km/h (2 Bft)
03.11.2019 16:56 9,2 °C 91 % 985,5 hPa 0,0 mm 0,0 km/h (0 Bft) O-SO 108 ° 0 min 0,000 mm 0,0 UV-I 0 W/m² 7,8 °C 9,2 °C 0,0 km/h (0 Bft)
03.11.2019 16:57 9,2 °C 91 % 985,4 hPa 0,0 mm 4,1 km/h (1 Bft) O-NO 72 ° 0 min 0,000 mm 0,0 UV-I 0 W/m² 7,8 °C 9,2 °C 6,4 km/h (2 Bft)
03.11.2019 16:58 9,2 °C 91 % 985,4 hPa 0,0 mm 5,3 km/h (1 Bft) O-NO 72 ° 0 min 0,000 mm 0,0 UV-I 0 W/m² 7,8 °C 8,8 °C 6,4 km/h (2 Bft)
03.11.2019 16:59 9,2 °C 91 % 985,4 hPa 0,0 mm 5,7 km/h (1 Bft) O 80 ° 0 min 0,000 mm 0,0 UV-I 0 W/m² 7,8 °C 8,6 °C 6,4 km/h (2 Bft)
03.11.2019 17:00 9,2 °C 91 % 985,4 hPa 0,0 mm 3,6 km/h (1 Bft) O 79 ° 0 min 0,000 mm 0,0 UV-I 0 W/m² 7,8 °C 9,2 °C 6,4 km/h (2 Bft)
03.11.2019 17:01 9,2 °C 91 % 985,5 hPa 0,0 mm 2,2 km/h (1 Bft) O 80 ° 0 min 0,000 mm 0,0 UV-I 0 W/m² 7,8 °C 9,2 °C 3,2 km/h (1 Bft)
03.11.2019 17:02 9,2 °C 92 % 985,5 hPa 0,0 mm 1,1 km/h (1 Bft) O 80 ° 0 min 0,000 mm 0,0 UV-I 0 W/m² 8,0 °C 9,2 °C 1,6 km/h (1 Bft)
03.11.2019 17:03 9,2 °C 92 % 985,5 hPa 0,0 mm 0,0 km/h (0 Bft) O 80 ° 0 min 0,000 mm 0,0 UV-I 0 W/m² 8,0 °C 9,2 °C 0,0 km/h (0 Bft)
03.11.2019 17:04 9,1 °C 92 % 985,5 hPa 0,0 mm 0,0 km/h (0 Bft) O 80 ° 0 min 0,000 mm 0,0 UV-I 0 W/m² 7,9 °C 9,1 °C 0,0 km/h (0 Bft)
03.11.2019 17:05 9,1 °C 92 % 985,5 hPa 0,0 mm 0,0 km/h (0 Bft) O 80 ° 0 min 0,000 mm 0,0 UV-I 0 W/m² 7,9 °C 9,1 °C 0,0 km/h (0 Bft)
03.11.2019 17:06 9,1 °C 92 % 985,5 hPa 0,0 mm 0,0 km/h (0 Bft) O 80 ° 0 min 0,000 mm 0,0 UV-I 0 W/m² 7,9 °C 9,1 °C 0,0 km/h (0 Bft)
03.11.2019 17:07 9,1 °C 92 % 985,5 hPa 0,0 mm 0,2 km/h (0 Bft) O 80 ° 0 min 0,000 mm 0,0 UV-I 0 W/m² 7,9 °C 9,1 °C 1,6 km/h (1 Bft)
03.11.2019 17:08 9,1 °C 92 % 985,5 hPa 0,0 mm 2,5 km/h (1 Bft) O 80 ° 0 min 0,000 mm 0,0 UV-I 0 W/m² 7,9 °C 9,1 °C 3,2 km/h (1 Bft)
03.11.2019 17:09 9,1 °C 92 % 985,5 hPa 0,0 mm 2,2 km/h (1 Bft) O 80 ° 0 min 0,000 mm 0,0 UV-I 0 W/m² 7,9 °C 9,1 °C 3,2 km/h (1 Bft)
03.11.2019 17:10 9,1 °C 92 % 985,5 hPa 0,0 mm 0,0 km/h (0 Bft) O 80 ° 0 min 0,000 mm 0,0 UV-I 0 W/m² 7,9 °C 9,1 °C 0,0 km/h (0 Bft)
03.11.2019 17:11 9,1 °C 92 % 985,4 hPa 0,0 mm 0,2 km/h (0 Bft) O 80 ° 0 min 0,000 mm 0,0 UV-I 0 W/m² 7,9 °C 9,1 °C 1,6 km/h (1 Bft)
03.11.2019 17:12 9,1 °C 92 % 985,4 hPa 0,0 mm 4,0 km/h (1 Bft) O 80 ° 0 min 0,000 mm 0,0 UV-I 0 W/m² 7,9 °C 9,1 °C 4,8 km/h (1 Bft)
03.11.2019 17:13 9,1 °C 92 % 985,4 hPa 0,0 mm 5,2 km/h (1 Bft) O 80 ° 0 min 0,000 mm 0,0 UV-I 0 W/m² 7,9 °C 8,7 °C 6,4 km/h (2 Bft)
03.11.2019 17:14 9,1 °C 92 % 985,4 hPa 0,0 mm 3,6 km/h (1 Bft) O 86 ° 0 min 0,000 mm 0,0 UV-I 0 W/m² 7,9 °C 9,1 °C 4,8 km/h (1 Bft)
03.11.2019 17:15 9,1 °C 92 % 985,4 hPa 0,0 mm 1,9 km/h (1 Bft) O 86 ° 0 min 0,000 mm 0,0 UV-I 0 W/m² 7,9 °C 9,1 °C 3,2 km/h (1 Bft)
03.11.2019 17:16 9,1 °C 92 % 985,4 hPa 0,0 mm 0,5 km/h (0 Bft) O 86 ° 0 min 0,000 mm 0,0 UV-I 0 W/m² 7,9 °C 9,1 °C 1,6 km/h (1 Bft)
03.11.2019 17:17 9,0 °C 92 % 985,5 hPa 0,0 mm 1,8 km/h (1 Bft) O 86 ° 0 min 0,000 mm 0,0 UV-I 0 W/m² 7,8 °C 9,0 °C 3,2 km/h (1 Bft)
03.11.2019 17:18 9,0 °C 92 % 985,4 hPa 0,0 mm 0,4 km/h (0 Bft) O 86 ° 0 min 0,000 mm 0,0 UV-I 0 W/m² 7,8 °C 9,0 °C 1,6 km/h (1 Bft)
03.11.2019 17:19 9,0 °C 92 % 985,5 hPa 0,0 mm 0,0 km/h (0 Bft) O 86 ° 0 min 0,000 mm 0,0 UV-I 0 W/m² 7,8 °C 9,0 °C 0,0 km/h (0 Bft)
03.11.2019 17:20 9,0 °C 92 % 985,5 hPa 0,0 mm 0,0 km/h (0 Bft) O 86 ° 0 min 0,000 mm 0,0 UV-I 0 W/m² 7,8 °C 9,0 °C 0,0 km/h (0 Bft)
03.11.2019 17:21 9,0 °C 92 % 985,4 hPa 0,0 mm 0,7 km/h (0 Bft) O 86 ° 0 min 0,000 mm 0,0 UV-I 0 W/m² 7,8 °C 9,0 °C 3,2 km/h (1 Bft)
03.11.2019 17:22 9,0 °C 92 % 985,4 hPa 0,0 mm 1,2 km/h (1 Bft) O 86 ° 0 min 0,000 mm 0,0 UV-I 0 W/m² 7,8 °C 9,0 °C 3,2 km/h (1 Bft)
03.11.2019 17:23 9,0 °C 92 % 985,4 hPa 0,0 mm 2,0 km/h (1 Bft) O 86 ° 0 min 0,000 mm 0,0 UV-I 0 W/m² 7,8 °C 9,0 °C 3,2 km/h (1 Bft)
03.11.2019 17:24 8,9 °C 92 % 985,4 hPa 0,0 mm 2,5 km/h (1 Bft) O 86 ° 0 min 0,000 mm 0,0 UV-I 0 W/m² 7,7 °C 8,9 °C 4,8 km/h (1 Bft)
03.11.2019 17:25 8,9 °C 92 % 985,3 hPa 0,0 mm 4,1 km/h (1 Bft) O-NO 72 ° 0 min 0,000 mm 0,0 UV-I 0 W/m² 7,7 °C 8,9 °C 6,4 km/h (2 Bft)
03.11.2019 17:26 8,9 °C 92 % 985,3 hPa 0,0 mm 5,4 km/h (1 Bft) O-NO 76 ° 0 min 0,000 mm 0,0 UV-I 0 W/m² 7,7 °C 8,4 °C 8,0 km/h (2 Bft)
03.11.2019 17:27 8,9 °C 92 % 985,3 hPa 0,0 mm 5,9 km/h (2 Bft) O-NO 60 ° 0 min 0,000 mm 0,0 UV-I 0 W/m² 7,7 °C 8,2 °C 9,7 km/h (2 Bft)
03.11.2019 17:28 8,9 °C 92 % 985,3 hPa 0,0 mm 4,2 km/h (1 Bft) O-NO 59 ° 0 min 0,000 mm 0,0 UV-I 0 W/m² 7,7 °C 8,9 °C 6,4 km/h (2 Bft)
03.11.2019 17:29 8,9 °C 92 % 985,4 hPa 0,0 mm 3,1 km/h (1 Bft) O-NO 60 ° 0 min 0,000 mm 0,0 UV-I 0 W/m² 7,7 °C 8,9 °C 4,8 km/h (1 Bft)
03.11.2019 17:30 8,9 °C 92 % 985,4 hPa 0,0 mm 3,6 km/h (1 Bft) O-NO 69 ° 0 min 0,000 mm 0,0 UV-I 0 W/m² 7,7 °C 8,9 °C 6,4 km/h (2 Bft)
03.11.2019 17:31 8,9 °C 92 % 985,4 hPa 0,0 mm 5,5 km/h (1 Bft) NO 42 ° 0 min 0,000 mm 0,0 UV-I 0 W/m² 7,7 °C 8,4 °C 8,0 km/h (2 Bft)
03.11.2019 17:32 8,9 °C 93 % 985,3 hPa 0,0 mm 4,4 km/h (1 Bft) NO 44 ° 0 min 0,000 mm 0,0 UV-I 0 W/m² 7,8 °C 8,9 °C 6,4 km/h (2 Bft)
03.11.2019 17:33 8,8 °C 93 % 985,3 hPa 0,0 mm 5,1 km/h (1 Bft) NO 52 ° 0 min 0,000 mm 0,0 UV-I 0 W/m² 7,7 °C 8,4 °C 8,0 km/h (2 Bft)
03.11.2019 17:34 8,8 °C 93 % 985,4 hPa 0,0 mm 4,1 km/h (1 Bft) NO 47 ° 0 min 0,000 mm 0,0 UV-I 0 W/m² 7,7 °C 8,8 °C 8,0 km/h (2 Bft)
03.11.2019 17:35 8,9 °C 93 % 985,4 hPa 0,0 mm 1,5 km/h (1 Bft) NO 47 ° 0 min 0,000 mm 0,0 UV-I 0 W/m² 7,8 °C 8,9 °C 3,2 km/h (1 Bft)
03.11.2019 17:36 8,8 °C 93 % 985,4 hPa 0,0 mm 1,7 km/h (1 Bft) NO 47 ° 0 min 0,000 mm 0,0 UV-I 0 W/m² 7,7 °C 8,8 °C 3,2 km/h (1 Bft)
03.11.2019 17:37 8,8 °C 93 % 985,5 hPa 0,0 mm 3,3 km/h (1 Bft) NO 47 ° 0 min 0,000 mm 0,0 UV-I 0 W/m² 7,7 °C 8,8 °C 4,8 km/h (1 Bft)
03.11.2019 17:38 8,8 °C 93 % 985,6 hPa 0,0 mm 2,7 km/h (1 Bft) N 355 ° 0 min 0,000 mm 0,0 UV-I 0 W/m² 7,7 °C 8,8 °C 4,8 km/h (1 Bft)
03.11.2019 17:39 8,8 °C 93 % 985,6 hPa 0,0 mm 0,8 km/h (0 Bft) N 355 ° 0 min 0,000 mm 0,0 UV-I 0 W/m² 7,7 °C 8,8 °C 3,2 km/h (1 Bft)
03.11.2019 17:40 8,8 °C 92 % 985,7 hPa 0,0 mm 2,5 km/h (1 Bft) N 355 ° 0 min 0,000 mm 0,0 UV-I 0 W/m² 7,6 °C 8,8 °C 3,2 km/h (1 Bft)
03.11.2019 17:41 8,8 °C 92 % 985,7 hPa 0,0 mm 1,1 km/h (1 Bft) N 355 ° 0 min 0,000 mm 0,0 UV-I 0 W/m² 7,6 °C 8,8 °C 1,6 km/h (1 Bft)
03.11.2019 17:42 8,8 °C 93 % 985,8 hPa 0,0 mm 0,1 km/h (0 Bft) N 355 ° 0 min 0,000 mm 0,0 UV-I 0 W/m² 7,7 °C 8,8 °C 1,6 km/h (1 Bft)
03.11.2019 17:43 8,8 °C 93 % 985,8 hPa 0,0 mm 0,0 km/h (0 Bft) N 355 ° 0 min 0,000 mm 0,0 UV-I 0 W/m² 7,7 °C 8,8 °C 0,0 km/h (0 Bft)
03.11.2019 17:44 8,8 °C 92 % 985,8 hPa 0,0 mm 0,0 km/h (0 Bft) N 355 ° 0 min 0,000 mm 0,0 UV-I 0 W/m² 7,6 °C 8,8 °C 0,0 km/h (0 Bft)
03.11.2019 17:45 8,8 °C 92 % 985,8 hPa 0,0 mm 0,0 km/h (0 Bft) N 355 ° 0 min 0,000 mm 0,0 UV-I 0 W/m² 7,6 °C 8,8 °C 0,0 km/h (0 Bft)
03.11.2019 17:46 8,8 °C 93 % 985,9 hPa 0,0 mm 0,0 km/h (0 Bft) N 355 ° 0 min 0,000 mm 0,0 UV-I 0 W/m² 7,7 °C 8,8 °C 0,0 km/h (0 Bft)
03.11.2019 17:47 8,8 °C 93 % 985,9 hPa 0,0 mm 0,1 km/h (0 Bft) N 355 ° 0 min 0,000 mm 0,0 UV-I 0 W/m² 7,7 °C 8,8 °C 1,6 km/h (1 Bft)
03.11.2019 17:48 8,8 °C 93 % 985,9 hPa 0,0 mm 0,0 km/h (0 Bft) N 355 ° 0 min 0,000 mm 0,0 UV-I 0 W/m² 7,7 °C 8,8 °C 0,0 km/h (0 Bft)
03.11.2019 17:49 8,8 °C 93 % 985,9 hPa 0,0 mm 0,0 km/h (0 Bft) N 355 ° 0 min 0,000 mm 0,0 UV-I 0 W/m² 7,7 °C 8,8 °C 0,0 km/h (0 Bft)
03.11.2019 17:50 8,8 °C 93 % 986,1 hPa 0,0 mm 2,5 km/h (1 Bft) NW 304 ° 0 min 0,000 mm 0,0 UV-I 0 W/m² 7,7 °C 8,8 °C 4,8 km/h (1 Bft)
03.11.2019 17:51 8,7 °C 93 % 986,2 hPa 0,0 mm 11,1 km/h (2 Bft) W 267 ° 0 min 0,000 mm 0,0 UV-I 0 W/m² 7,6 °C 6,9 °C 16,1 km/h (3 Bft)
03.11.2019 17:52 8,7 °C 93 % 986,6 hPa 0,0 mm 15,9 km/h (3 Bft) W 266 ° 0 min 0,000 mm 0,0 UV-I 0 W/m² 7,6 °C 6,2 °C 19,3 km/h (3 Bft)
03.11.2019 17:53 8,7 °C 93 % 986,8 hPa 0,0 mm 13,9 km/h (3 Bft) NW 310 ° 0 min 0,000 mm 0,0 UV-I 0 W/m² 7,6 °C 6,5 °C 22,5 km/h (4 Bft)
03.11.2019 17:54 8,7 °C 93 % 986,8 hPa 0,0 mm 9,7 km/h (2 Bft) W-NW 302 ° 0 min 0,000 mm 0,0 UV-I 0 W/m² 7,6 °C 7,1 °C 17,7 km/h (3 Bft)
03.11.2019 17:55 8,7 °C 93 % 986,9 hPa 0,0 mm 7,0 km/h (2 Bft) W-SW 255 ° 0 min 0,000 mm 0,0 UV-I 0 W/m² 7,6 °C 7,7 °C 11,3 km/h (2 Bft)
03.11.2019 17:56 8,7 °C 93 % 986,9 hPa 0,0 mm 13,9 km/h (3 Bft) W-NW 302 ° 0 min 0,000 mm 0,0 UV-I 0 W/m² 7,6 °C 6,5 °C 24,1 km/h (4 Bft)
03.11.2019 17:57 8,7 °C 93 % 987,0 hPa 0,0 mm 10,3 km/h (2 Bft) W 265 ° 0 min 0,000 mm 0,0 UV-I 0 W/m² 7,6 °C 7,0 °C 16,1 km/h (3 Bft)
03.11.2019 17:58 8,7 °C 93 % 986,9 hPa 0,0 mm 9,3 km/h (2 Bft) W-SW 257 ° 0 min 0,000 mm 0,0 UV-I 0 W/m² 7,6 °C 7,2 °C 14,5 km/h (3 Bft)
03.11.2019 17:59 8,7 °C 93 % 986,9 hPa 0,0 mm 10,2 km/h (2 Bft) W 261 ° 0 min 0,000 mm 0,0 UV-I 0 W/m² 7,6 °C 7,0 °C 16,1 km/h (3 Bft)
03.11.2019 18:00 8,8 °C 93 % 987,0 hPa 0,0 mm 13,6 km/h (3 Bft) W-NW 293 ° 0 min 0,000 mm 0,0 UV-I 0 W/m² 7,7 °C 6,6 °C 22,5 km/h (4 Bft)
03.11.2019 18:01 8,8 °C 93 % 987,1 hPa 0,0 mm 13,2 km/h (3 Bft) W 281 ° 0 min 0,000 mm 0,0 UV-I 0 W/m² 7,7 °C 6,7 °C 20,9 km/h (4 Bft)
03.11.2019 18:02 8,8 °C 93 % 987,1 hPa 0,0 mm 12,9 km/h (3 Bft) W-SW 257 ° 0 min 0,000 mm 0,0 UV-I 0 W/m² 7,7 °C 6,7 °C 20,9 km/h (4 Bft)
03.11.2019 18:03 8,8 °C 93 % 987,1 hPa 0,0 mm 12,5 km/h (3 Bft) W 267 ° 0 min 0,000 mm 0,0 UV-I 0 W/m² 7,7 °C 6,8 °C 16,1 km/h (3 Bft)
03.11.2019 18:04 8,8 °C 93 % 987,1 hPa 0,0 mm 15,5 km/h (3 Bft) W 263 ° 0 min 0,000 mm 0,0 UV-I 0 W/m² 7,7 °C 6,4 °C 22,5 km/h (4 Bft)
03.11.2019 18:05 8,9 °C 93 % 987,2 hPa 0,0 mm 18,4 km/h (3 Bft) W-NW 292 ° 0 min 0,000 mm 0,0 UV-I 0 W/m² 7,8 °C 6,2 °C 24,1 km/h (4 Bft)
03.11.2019 18:06 8,9 °C 93 % 987,2 hPa 0,0 mm 16,4 km/h (3 Bft) W 270 ° 0 min 0,000 mm 0,0 UV-I 0 W/m² 7,8 °C 6,4 °C 29,0 km/h (5 Bft)
03.11.2019 18:07 8,9 °C 93 % 987,2 hPa 0,0 mm 19,1 km/h (3 Bft) W 271 ° 0 min 0,000 mm 0,0 UV-I 0 W/m² 7,8 °C 6,1 °C 24,1 km/h (4 Bft)
03.11.2019 18:08 8,9 °C 93 % 987,3 hPa 0,0 mm 17,6 km/h (3 Bft) W 261 ° 0 min 0,000 mm 0,0 UV-I 0 W/m² 7,8 °C 6,2 °C 22,5 km/h (4 Bft)
03.11.2019 18:09 8,9 °C 93 % 987,4 hPa 0,0 mm 16,5 km/h (3 Bft) W-SW 253 ° 0 min 0,000 mm 0,0 UV-I 0 W/m² 7,8 °C 6,4 °C 22,5 km/h (4 Bft)
03.11.2019 18:10 9,0 °C 93 % 987,4 hPa 0,0 mm 17,1 km/h (3 Bft) W-SW 238 ° 0 min 0,000 mm 0,0 UV-I 0 W/m² 7,9 °C 6,4 °C 27,4 km/h (4 Bft)
03.11.2019 18:11 9,0 °C 93 % 987,4 hPa 0,0 mm 14,8 km/h (3 Bft) W-SW 252 ° 0 min 0,000 mm 0,0 UV-I 0 W/m² 7,9 °C 6,7 °C 22,5 km/h (4 Bft)
03.11.2019 18:12 9,0 °C 93 % 987,4 hPa 0,0 mm 17,4 km/h (3 Bft) W-NW 286 ° 0 min 0,000 mm 0,0 UV-I 0 W/m² 7,9 °C 6,4 °C 30,6 km/h (5 Bft)
03.11.2019 18:13 9,0 °C 93 % 987,4 hPa 0,0 mm 15,5 km/h (3 Bft) W-SW 242 ° 0 min 0,000 mm 0,0 UV-I 0 W/m² 7,9 °C 6,6 °C 20,9 km/h (4 Bft)
03.11.2019 18:14 9,0 °C 93 % 987,5 hPa 0,0 mm 15,1 km/h (3 Bft) W 273 ° 0 min 0,000 mm 0,0 UV-I 0 W/m² 7,9 °C 6,7 °C 29,0 km/h (5 Bft)
03.11.2019 18:15 9,0 °C 93 % 987,5 hPa 0,0 mm 11,2 km/h (2 Bft) W 262 ° 0 min 0,000 mm 0,0 UV-I 0 W/m² 7,9 °C 7,2 °C 19,3 km/h (3 Bft)
03.11.2019 18:16 9,1 °C 93 % 987,5 hPa 0,0 mm 13,9 km/h (3 Bft) W 259 ° 0 min 0,000 mm 0,0 UV-I 0 W/m² 8,0 °C 6,9 °C 17,7 km/h (3 Bft)
03.11.2019 18:17 9,1 °C 93 % 987,6 hPa 0,0 mm 18,0 km/h (3 Bft) W 259 ° 0 min 0,000 mm 0,0 UV-I 0 W/m² 8,0 °C 6,5 °C 22,5 km/h (4 Bft)
03.11.2019 18:18 9,1 °C 93 % 987,5 hPa 0,0 mm 14,8 km/h (3 Bft) W-SW 239 ° 0 min 0,000 mm 0,0 UV-I 0 W/m² 8,0 °C 6,8 °C 22,5 km/h (4 Bft)
03.11.2019 18:19 9,1 °C 93 % 987,6 hPa 0,0 mm 13,8 km/h (3 Bft) W-SW 257 ° 0 min 0,000 mm 0,0 UV-I 0 W/m² 8,0 °C 7,0 °C 19,3 km/h (3 Bft)
03.11.2019 18:20 9,1 °C 93 % 987,6 hPa 0,0 mm 14,6 km/h (3 Bft) W 274 ° 0 min 0,000 mm 0,0 UV-I 0 W/m² 8,0 °C 6,9 °C 17,7 km/h (3 Bft)
03.11.2019 18:21 9,1 °C 93 % 987,6 hPa 0,0 mm 11,2 km/h (2 Bft) W 259 ° 0 min 0,000 mm 0,0 UV-I 0 W/m² 8,0 °C 7,4 °C 22,5 km/h (4 Bft)
03.11.2019 18:22 9,1 °C 93 % 987,6 hPa 0,0 mm 15,4 km/h (3 Bft) W 274 ° 0 min 0,000 mm 0,0 UV-I 0 W/m² 8,0 °C 6,8 °C 19,3 km/h (3 Bft)
03.11.2019 18:23 9,1 °C 93 % 987,7 hPa 0,0 mm 11,6 km/h (2 Bft) W 274 ° 0 min 0,000 mm 0,0 UV-I 0 W/m² 8,0 °C 7,3 °C 16,1 km/h (3 Bft)
03.11.2019 18:24 9,1 °C 93 % 987,7 hPa 0,0 mm 15,2 km/h (3 Bft) W 266 ° 0 min 0,000 mm 0,0 UV-I 0 W/m² 8,0 °C 6,8 °C 19,3 km/h (3 Bft)
03.11.2019 18:25 9,2 °C 93 % 987,7 hPa 0,0 mm 9,8 km/h (2 Bft) W-NW 286 ° 0 min 0,000 mm 0,0 UV-I 0 W/m² 8,1 °C 7,7 °C 16,1 km/h (3 Bft)
03.11.2019 18:26 9,2 °C 93 % 987,7 hPa 0,0 mm 12,1 km/h (2 Bft) NW 308 ° 0 min 0,000 mm 0,0 UV-I 0 W/m² 8,1 °C 7,3 °C 17,7 km/h (3 Bft)
03.11.2019 18:27 9,2 °C 93 % 987,7 hPa 0,0 mm 16,8 km/h (3 Bft) W-SW 252 ° 0 min 0,000 mm 0,0 UV-I 0 W/m² 8,1 °C 6,7 °C 24,1 km/h (4 Bft)
03.11.2019 18:28 9,2 °C 93 % 987,7 hPa 0,0 mm 19,2 km/h (3 Bft) W 275 ° 0 min 0,000 mm 0,0 UV-I 0 W/m² 8,1 °C 6,4 °C 24,1 km/h (4 Bft)
03.11.2019 18:29 9,2 °C 93 % 987,7 hPa 0,0 mm 13,7 km/h (3 Bft) W 259 ° 0 min 0,000 mm 0,0 UV-I 0 W/m² 8,1 °C 7,1 °C 19,3 km/h (3 Bft)
03.11.2019 18:30 9,3 °C 93 % 987,7 hPa 0,0 mm 13,7 km/h (3 Bft) W-NW 286 ° 0 min 0,000 mm 0,0 UV-I 0 W/m² 8,2 °C 7,2 °C 22,5 km/h (4 Bft)
03.11.2019 18:31 9,3 °C 93 % 987,7 hPa 0,0 mm 11,6 km/h (2 Bft) W 263 ° 0 min 0,000 mm 0,0 UV-I 0 W/m² 8,2 °C 7,5 °C 14,5 km/h (3 Bft)
03.11.2019 18:32 9,3 °C 93 % 987,7 hPa 0,0 mm 11,8 km/h (2 Bft) W 269 ° 0 min 0,000 mm 0,0 UV-I 0 W/m² 8,2 °C 7,5 °C 16,1 km/h (3 Bft)
03.11.2019 18:33 9,3 °C 93 % 987,9 hPa 0,0 mm 20,3 km/h (4 Bft) W 273 ° 0 min 0,000 mm 0,0 UV-I 0 W/m² 8,2 °C 6,5 °C 25,7 km/h (4 Bft)
03.11.2019 18:34 9,3 °C 93 % 987,8 hPa 0,0 mm 13,8 km/h (3 Bft) W 268 ° 0 min 0,000 mm 0,0 UV-I 0 W/m² 8,2 °C 7,2 °C 24,1 km/h (4 Bft)
03.11.2019 18:35 9,4 °C 92 % 987,8 hPa 0,0 mm 12,1 km/h (2 Bft) NW 313 ° 0 min 0,000 mm 0,0 UV-I 0 W/m² 8,2 °C 7,6 °C 16,1 km/h (3 Bft)
03.11.2019 18:36 9,4 °C 92 % 987,9 hPa 0,0 mm 15,4 km/h (3 Bft) W-NW 295 ° 0 min 0,000 mm 0,0 UV-I 0 W/m² 8,2 °C 7,1 °C 24,1 km/h (4 Bft)
03.11.2019 18:37 9,4 °C 92 % 987,9 hPa 0,0 mm 9,2 km/h (2 Bft) W 269 ° 0 min 0,000 mm 0,0 UV-I 0 W/m² 8,2 °C 8,1 °C 14,5 km/h (3 Bft)
03.11.2019 18:38 9,4 °C 92 % 987,9 hPa 0,0 mm 14,7 km/h (3 Bft) W-SW 255 ° 0 min 0,000 mm 0,0 UV-I 0 W/m² 8,2 °C 7,2 °C 27,4 km/h (4 Bft)
03.11.2019 18:39 9,4 °C 92 % 987,9 hPa 0,0 mm 16,1 km/h (3 Bft) W 265 ° 0 min 0,000 mm 0,0 UV-I 0 W/m² 8,2 °C 7,0 °C 24,1 km/h (4 Bft)
03.11.2019 18:40 9,4 °C 92 % 988,0 hPa 0,0 mm 16,3 km/h (3 Bft) W 263 ° 0 min 0,000 mm 0,0 UV-I 0 W/m² 8,2 °C 7,0 °C 29,0 km/h (5 Bft)
03.11.2019 18:41 9,5 °C 92 % 988,1 hPa 0,0 mm 23,4 km/h (4 Bft) W 262 ° 0 min 0,000 mm 0,0 UV-I 0 W/m² 8,3 °C 6,4 °C 32,2 km/h (5 Bft)
03.11.2019 18:42 9,4 °C 92 % 988,1 hPa 0,0 mm 18,8 km/h (3 Bft) W 277 ° 0 min 0,000 mm 0,0 UV-I 0 W/m² 8,2 °C 6,7 °C 27,4 km/h (4 Bft)
03.11.2019 18:43 9,5 °C 92 % 988,1 hPa 0,0 mm 13,3 km/h (3 Bft) W 263 ° 0 min 0,000 mm 0,0 UV-I 0 W/m² 8,3 °C 7,5 °C 24,1 km/h (4 Bft)
03.11.2019 18:44 9,5 °C 92 % 988,1 hPa 0,0 mm 10,5 km/h (2 Bft) W 277 ° 0 min 0,000 mm 0,0 UV-I 0 W/m² 8,3 °C 7,9 °C 17,7 km/h (3 Bft)
03.11.2019 18:45 9,5 °C 92 % 988,2 hPa 0,0 mm 14,8 km/h (3 Bft) W-NW 288 ° 0 min 0,000 mm 0,0 UV-I 0 W/m² 8,3 °C 7,3 °C 20,9 km/h (4 Bft)
03.11.2019 18:46 9,5 °C 92 % 988,3 hPa 0,0 mm 21,2 km/h (4 Bft) W 278 ° 0 min 0,000 mm 0,0 UV-I 0 W/m² 8,3 °C 6,6 °C 33,8 km/h (5 Bft)
03.11.2019 18:47 9,6 °C 92 % 988,3 hPa 0,0 mm 23,0 km/h (4 Bft) W 268 ° 0 min 0,000 mm 0,0 UV-I 0 W/m² 8,4 °C 6,6 °C 29,0 km/h (5 Bft)
03.11.2019 18:48 9,6 °C 92 % 988,3 hPa 0,0 mm 12,7 km/h (3 Bft) W-NW 284 ° 0 min 0,000 mm 0,0 UV-I 0 W/m² 8,4 °C 7,7 °C 33,8 km/h (5 Bft)
03.11.2019 18:49 9,6 °C 91 % 988,2 hPa 0,0 mm 25,1 km/h (4 Bft) W-NW 285 ° 0 min 0,000 mm 0,0 UV-I 0 W/m² 8,2 °C 6,4 °C 38,6 km/h (5 Bft)
03.11.2019 18:50 9,5 °C 91 % 988,3 hPa 0,0 mm 23,5 km/h (4 Bft) W-SW 238 ° 0 min 0,000 mm 0,0 UV-I 0 W/m² 8,1 °C 6,4 °C 32,2 km/h (5 Bft)
03.11.2019 18:51 9,4 °C 91 % 988,2 hPa 0,0 mm 21,3 km/h (4 Bft) W 269 ° 0 min 0,000 mm 0,0 UV-I 0 W/m² 8,0 °C 6,5 °C 40,2 km/h (6 Bft)
03.11.2019 18:52 9,4 °C 90 % 988,3 hPa 0,0 mm 25,3 km/h (4 Bft) W 266 ° 0 min 0,000 mm 0,0 UV-I 0 W/m² 7,8 °C 6,1 °C 33,8 km/h (5 Bft)
03.11.2019 18:53 9,3 °C 90 % 988,3 hPa 0,0 mm 26,2 km/h (4 Bft) W 269 ° 0 min 0,000 mm 0,0 UV-I 0 W/m² 7,7 °C 5,9 °C 37,0 km/h (5 Bft)
03.11.2019 18:54 9,3 °C 89 % 988,3 hPa 0,0 mm 21,5 km/h (4 Bft) W-NW 286 ° 0 min 0,000 mm 0,0 UV-I 0 W/m² 7,6 °C 6,3 °C 37,0 km/h (5 Bft)
03.11.2019 18:55 9,3 °C 89 % 988,4 hPa 0,0 mm 26,2 km/h (4 Bft) W-SW 248 ° 0 min 0,000 mm 0,0 UV-I 0 W/m² 7,6 °C 5,9 °C 46,7 km/h (6 Bft)
03.11.2019 18:56 9,2 °C 89 % 988,3 hPa 0,0 mm 20,4 km/h (4 Bft) NW 309 ° 0 min 0,000 mm 0,0 UV-I 0 W/m² 7,5 °C 6,3 °C 35,4 km/h (5 Bft)
03.11.2019 18:57 9,2 °C 89 % 988,4 hPa 0,0 mm 19,3 km/h (3 Bft) W-SW 252 ° 0 min 0,000 mm 0,0 UV-I 0 W/m² 7,5 °C 6,4 °C 25,7 km/h (4 Bft)
03.11.2019 18:58 9,1 °C 88 % 988,4 hPa 0,0 mm 21,6 km/h (4 Bft) NW 306 ° 0 min 0,000 mm 0,0 UV-I 0 W/m² 7,2 °C 6,1 °C 30,6 km/h (5 Bft)
03.11.2019 18:59 9,1 °C 88 % 988,6 hPa 0,0 mm 30,3 km/h (5 Bft) W 267 ° 0 min 0,000 mm 0,0 UV-I 0 W/m² 7,2 °C 5,4 °C 48,3 km/h (6 Bft)
03.11.2019 19:00 9,1 °C 88 % 988,3 hPa 0,0 mm 24,8 km/h (4 Bft) W-NW 300 ° 0 min 0,000 mm 0,0 UV-I 0 W/m² 7,2 °C 5,8 °C 40,2 km/h (6 Bft)
03.11.2019 19:01 9,0 °C 88 % 988,4 hPa 0,0 mm 13,9 km/h (3 Bft) W-NW 295 ° 0 min 0,025 mm 0,0 UV-I 0 W/m² 7,1 °C 6,8 °C 20,9 km/h (4 Bft)
03.11.2019 19:02 9,0 °C 88 % 988,5 hPa 0,0 mm 17,8 km/h (3 Bft) W 271 ° 0 min 0,000 mm 0,0 UV-I 0 W/m² 7,1 °C 6,3 °C 25,7 km/h (4 Bft)
03.11.2019 19:03 8,9 °C 88 % 988,6 hPa 0,0 mm 21,1 km/h (4 Bft) W-SW 238 ° 0 min 0,000 mm 0,0 UV-I 0 W/m² 7,0 °C 5,9 °C 27,4 km/h (4 Bft)
03.11.2019 19:04 8,9 °C 89 % 988,6 hPa 0,0 mm 23,0 km/h (4 Bft) SW 215 ° 0 min 0,000 mm 0,0 UV-I 0 W/m² 7,2 °C 5,7 °C 38,6 km/h (5 Bft)
03.11.2019 19:05 8,8 °C 89 % 988,7 hPa 0,0 mm 15,8 km/h (3 Bft) W-NW 283 ° 0 min 0,000 mm 0,0 UV-I 0 W/m² 7,1 °C 6,3 °C 24,1 km/h (4 Bft)
03.11.2019 19:06 8,8 °C 89 % 988,7 hPa 0,0 mm 18,5 km/h (3 Bft) W-NW 285 ° 0 min 0,000 mm 0,0 UV-I 0 W/m² 7,1 °C 6,0 °C 29,0 km/h (5 Bft)
03.11.2019 19:07 8,8 °C 89 % 988,8 hPa 0,0 mm 17,2 km/h (3 Bft) W-SW 242 ° 0 min 0,000 mm 0,0 UV-I 0 W/m² 7,1 °C 6,2 °C 25,7 km/h (4 Bft)
03.11.2019 19:08 8,7 °C 89 % 988,7 hPa 0,0 mm 19,4 km/h (3 Bft) W 275 ° 0 min 0,000 mm 0,0 UV-I 0 W/m² 7,0 °C 5,8 °C 30,6 km/h (5 Bft)
03.11.2019 19:09 8,7 °C 89 % 988,8 hPa 0,0 mm 25,7 km/h (4 Bft) W 265 ° 0 min 0,000 mm 0,0 UV-I 0 W/m² 7,0 °C 5,2 °C 38,6 km/h (5 Bft)
03.11.2019 19:10 8,7 °C 89 % 988,8 hPa 0,0 mm 26,7 km/h (4 Bft) W 275 ° 0 min 0,000 mm 0,0 UV-I 0 W/m² 7,0 °C 5,1 °C 41,8 km/h (6 Bft)
03.11.2019 19:11 8,7 °C 89 % 988,9 hPa 0,0 mm 20,9 km/h (4 Bft) W 261 ° 0 min 0,000 mm 0,0 UV-I 0 W/m² 7,0 °C 5,6 °C 30,6 km/h (5 Bft)
03.11.2019 19:12 8,6 °C 89 % 988,9 hPa 0,0 mm 25,6 km/h (4 Bft) W 261 ° 0 min 0,000 mm 0,0 UV-I 0 W/m² 6,9 °C 5,1 °C 40,2 km/h (6 Bft)
03.11.2019 19:13 8,6 °C 90 % 989,0 hPa 0,0 mm 16,2 km/h (3 Bft) W-SW 254 ° 0 min 0,000 mm 0,0 UV-I 0 W/m² 7,1 °C 6,0 °C 22,5 km/h (4 Bft)
03.11.2019 19:14 8,5 °C 90 % 988,9 hPa 0,0 mm 20,0 km/h (4 Bft) W-SW 255 ° 0 min 0,000 mm 0,0 UV-I 0 W/m² 7,0 °C 5,5 °C 29,0 km/h (5 Bft)
03.11.2019 19:15 8,4 °C 90 % 988,9 hPa 0,0 mm 23,7 km/h (4 Bft) W 261 ° 0 min 0,000 mm 0,0 UV-I 0 W/m² 6,9 °C 5,0 °C 32,2 km/h (5 Bft)
03.11.2019 19:16 8,4 °C 90 % 988,9 hPa 0,0 mm 19,1 km/h (3 Bft) W-SW 248 ° 0 min 0,000 mm 0,0 UV-I 0 W/m² 6,9 °C 5,5 °C 30,6 km/h (5 Bft)
03.11.2019 19:17 8,4 °C 90 % 989,0 hPa 0,0 mm 22,2 km/h (4 Bft) W 270 ° 0 min 0,000 mm 0,0 UV-I 0 W/m² 6,9 °C 5,1 °C 35,4 km/h (5 Bft)
03.11.2019 19:18 8,4 °C 90 % 989,0 hPa 0,0 mm 16,4 km/h (3 Bft) W 259 ° 0 min 0,000 mm 0,0 UV-I 0 W/m² 6,9 °C 5,8 °C 33,8 km/h (5 Bft)
03.11.2019 19:19 8,3 °C 90 % 989,0 hPa 0,0 mm 15,4 km/h (3 Bft) W 267 ° 0 min 0,000 mm 0,0 UV-I 0 W/m² 6,8 °C 5,8 °C 27,4 km/h (4 Bft)
03.11.2019 19:20 8,3 °C 90 % 989,0 hPa 0,0 mm 15,2 km/h (3 Bft) W-SW 237 ° 0 min 0,000 mm 0,0 UV-I 0 W/m² 6,8 °C 5,8 °C 25,7 km/h (4 Bft)
03.11.2019 19:21 8,3 °C 90 % 989,0 hPa 0,0 mm 21,7 km/h (4 Bft) W 259 ° 0 min 0,000 mm 0,0 UV-I 0 W/m² 6,8 °C 5,1 °C 30,6 km/h (5 Bft)
03.11.2019 19:22 8,3 °C 90 % 989,1 hPa 0,0 mm 14,5 km/h (3 Bft) W 271 ° 0 min 0,000 mm 0,0 UV-I 0 W/m² 6,8 °C 5,9 °C 22,5 km/h (4 Bft)
03.11.2019 19:23 8,3 °C 90 % 989,1 hPa 0,0 mm 16,5 km/h (3 Bft) W-SW 256 ° 0 min 0,000 mm 0,0 UV-I 0 W/m² 6,8 °C 5,6 °C 29,0 km/h (5 Bft)
03.11.2019 19:24 8,2 °C 90 % 989,1 hPa 0,0 mm 8,9 km/h (2 Bft) W 271 ° 0 min 0,000 mm 0,0 UV-I 0 W/m² 6,7 °C 6,7 °C 14,5 km/h (3 Bft)
03.11.2019 19:25 8,2 °C 90 % 989,2 hPa 0,0 mm 18,4 km/h (3 Bft) W 261 ° 0 min 0,000 mm 0,0 UV-I 0 W/m² 6,7 °C 5,3 °C 38,6 km/h (5 Bft)
03.11.2019 19:26 8,2 °C 90 % 989,1 hPa 0,0 mm 18,9 km/h (3 Bft) SW 232 ° 0 min 0,000 mm 0,0 UV-I 0 W/m² 6,7 °C 5,2 °C 27,4 km/h (4 Bft)
03.11.2019 19:27 8,2 °C 90 % 989,1 hPa 0,0 mm 22,3 km/h (4 Bft) W 265 ° 0 min 0,000 mm 0,0 UV-I 0 W/m² 6,7 °C 4,9 °C 32,2 km/h (5 Bft)
03.11.2019 19:28 8,2 °C 91 % 989,2 hPa 0,0 mm 20,4 km/h (4 Bft) W 279 ° 0 min 0,000 mm 0,0 UV-I 0 W/m² 6,8 °C 5,1 °C 29,0 km/h (5 Bft)
03.11.2019 19:29 8,1 °C 91 % 989,2 hPa 0,0 mm 16,4 km/h (3 Bft) W-NW 300 ° 0 min 0,000 mm 0,0 UV-I 0 W/m² 6,7 °C 5,4 °C 22,5 km/h (4 Bft)
03.11.2019 19:30 8,1 °C 91 % 989,3 hPa 0,0 mm 12,7 km/h (3 Bft) W 271 ° 0 min 0,000 mm 0,0 UV-I 0 W/m² 6,7 °C 5,9 °C 20,9 km/h (4 Bft)
03.11.2019 19:31 8,1 °C 91 % 989,3 hPa 0,0 mm 11,7 km/h (2 Bft) W 259 ° 0 min 0,000 mm 0,0 UV-I 0 W/m² 6,7 °C 6,1 °C 19,3 km/h (3 Bft)
03.11.2019 19:32 8,1 °C 91 % 989,4 hPa 0,0 mm 11,7 km/h (2 Bft) W 262 ° 0 min 0,000 mm 0,0 UV-I 0 W/m² 6,7 °C 6,1 °C 19,3 km/h (3 Bft)
03.11.2019 19:33 8,1 °C 91 % 989,3 hPa 0,0 mm 19,9 km/h (4 Bft) W 273 ° 0 min 0,000 mm 0,0 UV-I 0 W/m² 6,7 °C 5,0 °C 33,8 km/h (5 Bft)
03.11.2019 19:34 8,1 °C 91 % 989,3 hPa 0,0 mm 17,0 km/h (3 Bft) W-SW 254 ° 0 min 0,000 mm 0,0 UV-I 0 W/m² 6,7 °C 5,3 °C 24,1 km/h (4 Bft)
03.11.2019 19:35 8,0 °C 91 % 989,3 hPa 0,0 mm 14,2 km/h (3 Bft) W 261 ° 0 min 0,000 mm 0,0 UV-I 0 W/m² 6,6 °C 5,6 °C 20,9 km/h (4 Bft)
03.11.2019 19:36 8,0 °C 91 % 989,2 hPa 0,0 mm 12,5 km/h (3 Bft) W 265 ° 0 min 0,000 mm 0,0 UV-I 0 W/m² 6,6 °C 5,8 °C 17,7 km/h (3 Bft)
03.11.2019 19:37 8,0 °C 91 % 989,2 hPa 0,0 mm 13,3 km/h (3 Bft) W 269 ° 0 min 0,000 mm 0,0 UV-I 0 W/m² 6,6 °C 5,7 °C 24,1 km/h (4 Bft)
03.11.2019 19:38 8,0 °C 91 % 989,2 hPa 0,0 mm 15,2 km/h (3 Bft) W 268 ° 0 min 0,000 mm 0,0 UV-I 0 W/m² 6,6 °C 5,4 °C 24,1 km/h (4 Bft)
03.11.2019 19:39 8,0 °C 91 % 989,3 hPa 0,0 mm 17,1 km/h (3 Bft) W-SW 256 ° 0 min 0,000 mm 0,0 UV-I 0 W/m² 6,6 °C 5,2 °C 30,6 km/h (5 Bft)
03.11.2019 19:40 7,9 °C 91 % 989,3 hPa 0,0 mm 10,8 km/h (2 Bft) W 276 ° 0 min 0,000 mm 0,0 UV-I 0 W/m² 6,5 °C 6,0 °C 20,9 km/h (4 Bft)
03.11.2019 19:41 7,9 °C 91 % 989,3 hPa 0,0 mm 20,9 km/h (4 Bft) W-SW 258 ° 0 min 0,000 mm 0,0 UV-I 0 W/m² 6,5 °C 4,6 °C 27,4 km/h (4 Bft)
03.11.2019 19:42 7,9 °C 91 % 989,3 hPa 0,0 mm 17,9 km/h (3 Bft) NW 304 ° 0 min 0,000 mm 0,0 UV-I 0 W/m² 6,5 °C 5,0 °C 32,2 km/h (5 Bft)
03.11.2019 19:43 7,9 °C 91 % 989,3 hPa 0,0 mm 11,9 km/h (2 Bft) W 268 ° 0 min 0,000 mm 0,0 UV-I 0 W/m² 6,5 °C 5,8 °C 16,1 km/h (3 Bft)
03.11.2019 19:44 7,9 °C 91 % 989,3 hPa 0,0 mm 13,6 km/h (3 Bft) W-SW 240 ° 0 min 0,000 mm 0,0 UV-I 0 W/m² 6,5 °C 5,5 °C 24,1 km/h (4 Bft)
03.11.2019 19:45 7,9 °C 91 % 989,4 hPa 0,0 mm 24,8 km/h (4 Bft) W 265 ° 0 min 0,000 mm 0,0 UV-I 0 W/m² 6,5 °C 4,3 °C 30,6 km/h (5 Bft)
03.11.2019 19:46 7,9 °C 91 % 989,4 hPa 0,0 mm 21,0 km/h (4 Bft) S-SW 209 ° 0 min 0,000 mm 0,0 UV-I 0 W/m² 6,5 °C 4,6 °C 32,2 km/h (5 Bft)
03.11.2019 19:47 7,9 °C 91 % 989,4 hPa 0,0 mm 16,5 km/h (3 Bft) W-NW 292 ° 0 min 0,000 mm 0,0 UV-I 0 W/m² 6,5 °C 5,1 °C 27,4 km/h (4 Bft)
03.11.2019 19:48 7,9 °C 91 % 989,4 hPa 0,0 mm 20,3 km/h (4 Bft) W 271 ° 0 min 0,000 mm 0,0 UV-I 0 W/m² 6,5 °C 4,7 °C 29,0 km/h (5 Bft)
03.11.2019 19:49 7,9 °C 91 % 989,4 hPa 0,0 mm 15,3 km/h (3 Bft) W-NW 286 ° 0 min 0,000 mm 0,0 UV-I 0 W/m² 6,5 °C 5,3 °C 19,3 km/h (3 Bft)
03.11.2019 19:50 7,9 °C 91 % 989,6 hPa 0,0 mm 19,6 km/h (3 Bft) W-NW 303 ° 0 min 0,000 mm 0,0 UV-I 0 W/m² 6,5 °C 4,8 °C 24,1 km/h (4 Bft)
03.11.2019 19:51 7,9 °C 90 % 989,6 hPa 0,0 mm 11,8 km/h (2 Bft) W 279 ° 0 min 0,000 mm 0,0 UV-I 0 W/m² 6,4 °C 5,8 °C 25,7 km/h (4 Bft)
03.11.2019 19:52 7,9 °C 90 % 989,6 hPa 0,0 mm 10,2 km/h (2 Bft) W 263 ° 0 min 0,000 mm 0,0 UV-I 0 W/m² 6,4 °C 6,1 °C 16,1 km/h (3 Bft)
03.11.2019 19:53 7,9 °C 90 % 989,6 hPa 0,0 mm 19,4 km/h (3 Bft) W 278 ° 0 min 0,000 mm 0,0 UV-I 0 W/m² 6,4 °C 4,8 °C 30,6 km/h (5 Bft)
03.11.2019 19:54 7,9 °C 90 % 989,7 hPa 0,0 mm 16,3 km/h (3 Bft) W-SW 246 ° 0 min 0,000 mm 0,0 UV-I 0 W/m² 6,4 °C 5,2 °C 22,5 km/h (4 Bft)
03.11.2019 19:55 7,9 °C 90 % 989,7 hPa 0,0 mm 13,7 km/h (3 Bft) W 260 ° 0 min 0,000 mm 0,0 UV-I 0 W/m² 6,4 °C 5,5 °C 19,3 km/h (3 Bft)
03.11.2019 19:56 7,9 °C 90 % 989,7 hPa 0,0 mm 20,4 km/h (4 Bft) W 280 ° 0 min 0,000 mm 0,0 UV-I 0 W/m² 6,4 °C 4,7 °C 24,1 km/h (4 Bft)
03.11.2019 19:57 7,8 °C 90 % 989,7 hPa 0,0 mm 21,5 km/h (4 Bft) W-SW 242 ° 0 min 0,000 mm 0,0 UV-I 0 W/m² 6,3 °C 4,4 °C 27,4 km/h (4 Bft)
03.11.2019 19:58 7,9 °C 90 % 989,7 hPa 0,0 mm 13,6 km/h (3 Bft) W-NW 292 ° 0 min 0,000 mm 0,0 UV-I 0 W/m² 6,4 °C 5,5 °C 16,1 km/h (3 Bft)
03.11.2019 19:59 7,8 °C 90 % 989,7 hPa 0,0 mm 15,0 km/h (3 Bft) W 273 ° 0 min 0,000 mm 0,0 UV-I 0 W/m² 6,3 °C 5,2 °C 24,1 km/h (4 Bft)
03.11.2019 20:00 7,9 °C 90 % 989,7 hPa 0,0 mm 13,1 km/h (3 Bft) W-SW 250 ° 0 min 0,000 mm 0,0 UV-I 0 W/m² 6,4 °C 5,6 °C 20,9 km/h (4 Bft)
03.11.2019 20:01 7,8 °C 90 % 989,9 hPa 0,0 mm 17,8 km/h (3 Bft) W-NW 282 ° 0 min 0,025 mm 0,0 UV-I 0 W/m² 6,3 °C 4,8 °C 27,4 km/h (4 Bft)
03.11.2019 20:02 7,8 °C 90 % 989,8 hPa 0,0 mm 17,3 km/h (3 Bft) W 271 ° 0 min 0,000 mm 0,0 UV-I 0 W/m² 6,3 °C 4,9 °C 25,7 km/h (4 Bft)
03.11.2019 20:03 7,8 °C 90 % 989,8 hPa 0,0 mm 14,9 km/h (3 Bft) W-SW 241 ° 0 min 0,000 mm 0,0 UV-I 0 W/m² 6,3 °C 5,2 °C 24,1 km/h (4 Bft)
03.11.2019 20:04 7,8 °C 90 % 989,9 hPa 0,0 mm 16,3 km/h (3 Bft) W 271 ° 0 min 0,000 mm 0,0 UV-I 0 W/m² 6,3 °C 5,0 °C 20,9 km/h (4 Bft)
03.11.2019 20:05 7,8 °C 90 % 990,0 hPa 0,0 mm 12,2 km/h (2 Bft) W 259 ° 0 min 0,000 mm 0,0 UV-I 0 W/m² 6,3 °C 5,6 °C 17,7 km/h (3 Bft)
03.11.2019 20:06 7,8 °C 90 % 989,9 hPa 0,0 mm 8,5 km/h (2 Bft) W 260 ° 0 min 0,000 mm 0,0 UV-I 0 W/m² 6,3 °C 6,3 °C 14,5 km/h (3 Bft)
03.11.2019 20:07 7,8 °C 91 % 990,0 hPa 0,0 mm 12,9 km/h (3 Bft) W-NW 283 ° 0 min 0,000 mm 0,0 UV-I 0 W/m² 6,4 °C 5,5 °C 24,1 km/h (4 Bft)
03.11.2019 20:08 7,8 °C 91 % 990,1 hPa 0,0 mm 10,9 km/h (2 Bft) W 274 ° 0 min 0,000 mm 0,0 UV-I 0 W/m² 6,4 °C 5,8 °C 20,9 km/h (4 Bft)
03.11.2019 20:09 7,8 °C 91 % 990,0 hPa 0,0 mm 11,1 km/h (2 Bft) W 273 ° 0 min 0,000 mm 0,0 UV-I 0 W/m² 6,4 °C 5,8 °C 17,7 km/h (3 Bft)
03.11.2019 20:10 7,8 °C 91 % 990,1 hPa 0,0 mm 15,8 km/h (3 Bft) W-SW 246 ° 0 min 0,000 mm 0,0 UV-I 0 W/m² 6,4 °C 5,1 °C 22,5 km/h (4 Bft)
03.11.2019 20:11 7,8 °C 91 % 990,2 hPa 0,0 mm 11,4 km/h (2 Bft) W-SW 250 ° 0 min 0,000 mm 0,0 UV-I 0 W/m² 6,4 °C 5,7 °C 16,1 km/h (3 Bft)
03.11.2019 20:12 7,7 °C 91 % 990,2 hPa 0,0 mm 13,9 km/h (3 Bft) W 275 ° 0 min 0,000 mm 0,0 UV-I 0 W/m² 6,3 °C 5,2 °C 20,9 km/h (4 Bft)
03.11.2019 20:13 7,7 °C 91 % 990,2 hPa 0,0 mm 11,1 km/h (2 Bft) W 271 ° 0 min 0,000 mm 0,0 UV-I 0 W/m² 6,3 °C 5,7 °C 14,5 km/h (3 Bft)
03.11.2019 20:14 7,7 °C 91 % 990,2 hPa 0,0 mm 14,6 km/h (3 Bft) W-NW 292 ° 0 min 0,000 mm 0,0 UV-I 0 W/m² 6,3 °C 5,1 °C 19,3 km/h (3 Bft)
03.11.2019 20:15 7,7 °C 91 % 990,2 hPa 0,0 mm 17,0 km/h (3 Bft) W 268 ° 0 min 0,000 mm 0,0 UV-I 0 W/m² 6,3 °C 4,8 °C 25,7 km/h (4 Bft)
03.11.2019 20:16 7,7 °C 91 % 990,2 hPa 0,0 mm 21,0 km/h (4 Bft) W-SW 252 ° 0 min 0,000 mm 0,0 UV-I 0 W/m² 6,3 °C 4,4 °C 29,0 km/h (5 Bft)
03.11.2019 20:17 7,7 °C 91 % 990,3 hPa 0,0 mm 15,9 km/h (3 Bft) W-SW 249 ° 0 min 0,000 mm 0,0 UV-I 0 W/m² 6,3 °C 5,0 °C 19,3 km/h (3 Bft)
03.11.2019 20:18 7,7 °C 91 % 990,3 hPa 0,0 mm 18,7 km/h (3 Bft) W-SW 252 ° 0 min 0,000 mm 0,0 UV-I 0 W/m² 6,3 °C 4,6 °C 29,0 km/h (5 Bft)
03.11.2019 20:19 7,7 °C 91 % 990,3 hPa 0,0 mm 10,7 km/h (2 Bft) W 279 ° 0 min 0,000 mm 0,0 UV-I 0 W/m² 6,3 °C 5,8 °C 22,5 km/h (4 Bft)
03.11.2019 20:20 7,7 °C 91 % 990,3 hPa 0,0 mm 8,9 km/h (2 Bft) W 261 ° 0 min 0,000 mm 0,0 UV-I 0 W/m² 6,3 °C 6,1 °C 14,5 km/h (3 Bft)
03.11.2019 20:21 7,7 °C 91 % 990,4 hPa 0,0 mm 17,4 km/h (3 Bft) W-SW 252 ° 0 min 0,000 mm 0,0 UV-I 0 W/m² 6,3 °C 4,8 °C 27,4 km/h (4 Bft)
03.11.2019 20:22 7,6 °C 91 % 990,4 hPa 0,0 mm 13,3 km/h (3 Bft) W 278 ° 0 min 0,000 mm 0,0 UV-I 0 W/m² 6,2 °C 5,2 °C 20,9 km/h (4 Bft)
03.11.2019 20:23 7,7 °C 91 % 990,3 hPa 0,0 mm 14,7 km/h (3 Bft) W 264 ° 0 min 0,000 mm 0,0 UV-I 0 W/m² 6,3 °C 5,1 °C 27,4 km/h (4 Bft)
03.11.2019 20:24 7,6 °C 91 % 990,3 hPa 0,0 mm 14,4 km/h (3 Bft) SW 229 ° 0 min 0,000 mm 0,0 UV-I 0 W/m² 6,2 °C 5,0 °C 27,4 km/h (4 Bft)
03.11.2019 20:25 7,6 °C 91 % 990,5 hPa 0,0 mm 14,7 km/h (3 Bft) SW 234 ° 0 min 0,000 mm 0,0 UV-I 0 W/m² 6,2 °C 5,0 °C 27,4 km/h (4 Bft)
03.11.2019 20:26 7,6 °C 91 % 990,5 hPa 0,0 mm 12,5 km/h (3 Bft) W-NW 289 ° 0 min 0,000 mm 0,0 UV-I 0 W/m² 6,2 °C 5,3 °C 22,5 km/h (4 Bft)
03.11.2019 20:27 7,6 °C 91 % 990,5 hPa 0,0 mm 7,1 km/h (2 Bft) W 265 ° 0 min 0,000 mm 0,0 UV-I 0 W/m² 6,2 °C 6,4 °C 11,3 km/h (2 Bft)
03.11.2019 20:28 7,5 °C 91 % 990,5 hPa 0,0 mm 15,5 km/h (3 Bft) W 260 ° 0 min 0,000 mm 0,0 UV-I 0 W/m² 6,1 °C 4,8 °C 22,5 km/h (4 Bft)
03.11.2019 20:29 7,5 °C 91 % 990,5 hPa 0,0 mm 19,2 km/h (3 Bft) W-SW 244 ° 0 min 0,000 mm 0,0 UV-I 0 W/m² 6,1 °C 4,3 °C 25,7 km/h (4 Bft)
03.11.2019 20:30 7,5 °C 91 % 990,5 hPa 0,0 mm 14,7 km/h (3 Bft) SW 229 ° 0 min 0,000 mm 0,0 UV-I 0 W/m² 6,1 °C 4,9 °C 25,7 km/h (4 Bft)
03.11.2019 20:31 7,5 °C 91 % 990,5 hPa 0,0 mm 10,4 km/h (2 Bft) W-SW 240 ° 0 min 0,000 mm 0,0 UV-I 0 W/m² 6,1 °C 5,6 °C 17,7 km/h (3 Bft)
03.11.2019 20:32 7,4 °C 91 % 990,5 hPa 0,0 mm 10,2 km/h (2 Bft) W-SW 248 ° 0 min 0,000 mm 0,0 UV-I 0 W/m² 6,0 °C 5,5 °C 14,5 km/h (3 Bft)
03.11.2019 20:33 7,4 °C 91 % 990,5 hPa 0,0 mm 10,9 km/h (2 Bft) W 263 ° 0 min 0,000 mm 0,0 UV-I 0 W/m² 6,0 °C 5,4 °C 12,9 km/h (3 Bft)
03.11.2019 20:34 7,4 °C 91 % 990,5 hPa 0,0 mm 17,3 km/h (3 Bft) W 270 ° 0 min 0,000 mm 0,0 UV-I 0 W/m² 6,0 °C 4,4 °C 25,7 km/h (4 Bft)
03.11.2019 20:35 7,4 °C 91 % 990,5 hPa 0,0 mm 11,9 km/h (2 Bft) W 264 ° 0 min 0,000 mm 0,0 UV-I 0 W/m² 6,0 °C 5,2 °C 20,9 km/h (4 Bft)
03.11.2019 20:36 7,4 °C 91 % 990,5 hPa 0,0 mm 11,4 km/h (2 Bft) W 266 ° 0 min 0,000 mm 0,0 UV-I 0 W/m² 6,0 °C 5,3 °C 20,9 km/h (4 Bft)
03.11.2019 20:37 7,4 °C 91 % 990,6 hPa 0,0 mm 12,7 km/h (3 Bft) W-SW 256 ° 0 min 0,000 mm 0,0 UV-I 0 W/m² 6,0 °C 5,1 °C 24,1 km/h (4 Bft)
03.11.2019 20:38 7,4 °C 91 % 990,5 hPa 0,0 mm 13,1 km/h (3 Bft) W-SW 258 ° 0 min 0,000 mm 0,0 UV-I 0 W/m² 6,0 °C 5,0 °C 17,7 km/h (3 Bft)
03.11.2019 20:39 7,4 °C 91 % 990,5 hPa 0,0 mm 8,6 km/h (2 Bft) W-SW 254 ° 0 min 0,000 mm 0,0 UV-I 0 W/m² 6,0 °C 5,8 °C 16,1 km/h (3 Bft)
03.11.2019 20:40 7,3 °C 91 % 990,6 hPa 0,0 mm 12,3 km/h (3 Bft) W 263 ° 0 min 0,000 mm 0,0 UV-I 0 W/m² 5,9 °C 5,0 °C 19,3 km/h (3 Bft)
03.11.2019 20:41 7,3 °C 91 % 990,6 hPa 0,0 mm 14,0 km/h (3 Bft) SW 236 ° 0 min 0,000 mm 0,0 UV-I 0 W/m² 5,9 °C 4,7 °C 27,4 km/h (4 Bft)
03.11.2019 20:42 7,3 °C 91 % 990,6 hPa 0,0 mm 14,8 km/h (3 Bft) W-SW 249 ° 0 min 0,000 mm 0,0 UV-I 0 W/m² 5,9 °C 4,6 °C 22,5 km/h (4 Bft)
03.11.2019 20:43 7,3 °C 90 % 990,7 hPa 0,0 mm 5,6 km/h (1 Bft) W-SW 255 ° 0 min 0,000 mm 0,0 UV-I 0 W/m² 5,8 °C 6,5 °C 8,0 km/h (2 Bft)
03.11.2019 20:44 7,3 °C 90 % 990,7 hPa 0,0 mm 9,9 km/h (2 Bft) W-SW 238 ° 0 min 0,000 mm 0,0 UV-I 0 W/m² 5,8 °C 5,4 °C 14,5 km/h (3 Bft)
03.11.2019 20:45 7,3 °C 90 % 990,7 hPa 0,0 mm 8,9 km/h (2 Bft) W 266 ° 0 min 0,000 mm 0,0 UV-I 0 W/m² 5,8 °C 5,6 °C 16,1 km/h (3 Bft)
03.11.2019 20:46 7,2 °C 90 % 990,7 hPa 0,0 mm 9,7 km/h (2 Bft) W-SW 248 ° 0 min 0,000 mm 0,0 UV-I 0 W/m² 5,7 °C 5,3 °C 14,5 km/h (3 Bft)
03.11.2019 20:47 7,2 °C 90 % 990,8 hPa 0,0 mm 8,8 km/h (2 Bft) W-SW 242 ° 0 min 0,000 mm 0,0 UV-I 0 W/m² 5,7 °C 5,5 °C 11,3 km/h (2 Bft)
03.11.2019 20:48 7,2 °C 90 % 990,7 hPa 0,0 mm 8,9 km/h (2 Bft) W 263 ° 0 min 0,000 mm 0,0 UV-I 0 W/m² 5,7 °C 5,5 °C 12,9 km/h (3 Bft)
03.11.2019 20:49 7,2 °C 90 % 990,8 hPa 0,0 mm 17,4 km/h (3 Bft) W 274 ° 0 min 0,000 mm 0,0 UV-I 0 W/m² 5,7 °C 4,1 °C 20,9 km/h (4 Bft)
03.11.2019 20:50 7,2 °C 90 % 990,8 hPa 0,0 mm 15,7 km/h (3 Bft) W 263 ° 0 min 0,000 mm 0,0 UV-I 0 W/m² 5,7 °C 4,4 °C 29,0 km/h (5 Bft)
03.11.2019 20:51 7,2 °C 90 % 990,8 hPa 0,0 mm 14,9 km/h (3 Bft) W-SW 252 ° 0 min 0,000 mm 0,0 UV-I 0 W/m² 5,7 °C 4,5 °C 24,1 km/h (4 Bft)
03.11.2019 20:52 7,1 °C 90 % 990,8 hPa 0,0 mm 13,5 km/h (3 Bft) W-SW 252 ° 0 min 0,000 mm 0,0 UV-I 0 W/m² 5,6 °C 4,6 °C 20,9 km/h (4 Bft)
03.11.2019 20:53 7,1 °C 90 % 990,8 hPa 0,0 mm 13,1 km/h (3 Bft) SW 224 ° 0 min 0,000 mm 0,0 UV-I 0 W/m² 5,6 °C 4,6 °C 19,3 km/h (3 Bft)
03.11.2019 20:54 7,1 °C 90 % 990,8 hPa 0,0 mm 4,6 km/h (1 Bft) O 92 ° 0 min 0,000 mm 0,0 UV-I 0 W/m² 5,6 °C 6,6 °C 11,3 km/h (2 Bft)
03.11.2019 20:55 7,1 °C 90 % 990,8 hPa 0,0 mm 6,1 km/h (2 Bft) W-SW 253 ° 0 min 0,000 mm 0,0 UV-I 0 W/m² 5,6 °C 6,1 °C 11,3 km/h (2 Bft)
03.11.2019 20:56 7,1 °C 90 % 990,8 hPa 0,0 mm 7,9 km/h (2 Bft) S-SW 205 ° 0 min 0,000 mm 0,0 UV-I 0 W/m² 5,6 °C 5,6 °C 14,5 km/h (3 Bft)
03.11.2019 20:57 7,1 °C 90 % 990,8 hPa 0,0 mm 6,1 km/h (2 Bft) W 261 ° 0 min 0,000 mm 0,0 UV-I 0 W/m² 5,6 °C 6,1 °C 11,3 km/h (2 Bft)
03.11.2019 20:58 7,1 °C 90 % 990,8 hPa 0,0 mm 5,3 km/h (1 Bft) W 268 ° 0 min 0,000 mm 0,0 UV-I 0 W/m² 5,6 °C 6,4 °C 9,7 km/h (2 Bft)
03.11.2019 20:59 7,1 °C 90 % 990,8 hPa 0,0 mm 6,8 km/h (2 Bft) W-SW 240 ° 0 min 0,000 mm 0,0 UV-I 0 W/m² 5,6 °C 5,9 °C 9,7 km/h (2 Bft)
03.11.2019 21:00 7,0 °C 90 % 990,8 hPa 0,0 mm 4,5 km/h (1 Bft) SW 229 ° 0 min 0,000 mm 0,0 UV-I 0 W/m² 5,5 °C 7,0 °C 6,4 km/h (2 Bft)
03.11.2019 21:01 7,0 °C 90 % 990,8 hPa 0,0 mm 10,0 km/h (2 Bft) W-SW 238 ° 0 min 0,026 mm 0,0 UV-I 0 W/m² 5,5 °C 5,0 °C 12,9 km/h (3 Bft)
03.11.2019 21:02 7,0 °C 90 % 990,8 hPa 0,0 mm 11,3 km/h (2 Bft) W-NW 286 ° 0 min 0,000 mm 0,0 UV-I 0 W/m² 5,5 °C 4,8 °C 16,1 km/h (3 Bft)
03.11.2019 21:03 7,1 °C 90 % 990,8 hPa 0,0 mm 6,5 km/h (2 Bft) W-SW 239 ° 0 min 0,000 mm 0,0 UV-I 0 W/m² 5,6 °C 6,0 °C 9,7 km/h (2 Bft)
03.11.2019 21:04 7,0 °C 90 % 990,8 hPa 0,0 mm 6,7 km/h (2 Bft) W-SW 252 ° 0 min 0,000 mm 0,0 UV-I 0 W/m² 5,5 °C 5,8 °C 11,3 km/h (2 Bft)
03.11.2019 21:05 7,0 °C 90 % 990,7 hPa 0,0 mm 6,0 km/h (2 Bft) W-SW 244 ° 0 min 0,000 mm 0,0 UV-I 0 W/m² 5,5 °C 6,0 °C 11,3 km/h (2 Bft)
03.11.2019 21:06 6,9 °C 90 % 990,8 hPa 0,0 mm 15,4 km/h (3 Bft) W 261 ° 0 min 0,000 mm 0,0 UV-I 0 W/m² 5,4 °C 4,0 °C 24,1 km/h (4 Bft)
03.11.2019 21:07 7,0 °C 90 % 990,8 hPa 0,0 mm 10,1 km/h (2 Bft) W-SW 242 ° 0 min 0,000 mm 0,0 UV-I 0 W/m² 5,5 °C 5,0 °C 17,7 km/h (3 Bft)
03.11.2019 21:08 7,0 °C 90 % 990,8 hPa 0,0 mm 7,5 km/h (2 Bft) W 263 ° 0 min 0,000 mm 0,0 UV-I 0 W/m² 5,5 °C 5,6 °C 12,9 km/h (3 Bft)
03.11.2019 21:09 7,0 °C 90 % 990,8 hPa 0,0 mm 10,5 km/h (2 Bft) S 185 ° 0 min 0,000 mm 0,0 UV-I 0 W/m² 5,5 °C 5,0 °C 14,5 km/h (3 Bft)
03.11.2019 21:10 7,0 °C 90 % 990,8 hPa 0,0 mm 7,0 km/h (2 Bft) W 265 ° 0 min 0,000 mm 0,0 UV-I 0 W/m² 5,5 °C 5,7 °C 12,9 km/h (3 Bft)
03.11.2019 21:11 7,0 °C 90 % 990,9 hPa 0,0 mm 8,3 km/h (2 Bft) SW 217 ° 0 min 0,000 mm 0,0 UV-I 0 W/m² 5,5 °C 5,4 °C 12,9 km/h (3 Bft)
03.11.2019 21:12 7,0 °C 90 % 990,9 hPa 0,0 mm 5,7 km/h (1 Bft) S 185 ° 0 min 0,000 mm 0,0 UV-I 0 W/m² 5,5 °C 6,1 °C 8,0 km/h (2 Bft)
03.11.2019 21:13 7,0 °C 90 % 990,9 hPa 0,0 mm 6,9 km/h (2 Bft) SW 221 ° 0 min 0,000 mm 0,0 UV-I 0 W/m² 5,5 °C 5,8 °C 14,5 km/h (3 Bft)
03.11.2019 21:14 7,0 °C 90 % 990,9 hPa 0,0 mm 6,5 km/h (2 Bft) S-SW 208 ° 0 min 0,000 mm 0,0 UV-I 0 W/m² 5,5 °C 5,9 °C 11,3 km/h (2 Bft)
03.11.2019 21:15 7,0 °C 90 % 990,9 hPa 0,0 mm 13,8 km/h (3 Bft) W-SW 258 ° 0 min 0,000 mm 0,0 UV-I 0 W/m² 5,5 °C 4,4 °C 22,5 km/h (4 Bft)
03.11.2019 21:16 7,1 °C 90 % 991,0 hPa 0,0 mm 12,9 km/h (3 Bft) SW 226 ° 0 min 0,000 mm 0,0 UV-I 0 W/m² 5,6 °C 4,7 °C 19,3 km/h (3 Bft)
03.11.2019 21:17 7,0 °C 90 % 991,0 hPa 0,0 mm 10,8 km/h (2 Bft) W 265 ° 0 min 0,000 mm 0,0 UV-I 0 W/m² 5,5 °C 4,9 °C 19,3 km/h (3 Bft)
03.11.2019 21:18 7,1 °C 90 % 991,0 hPa 0,0 mm 8,2 km/h (2 Bft) W 261 ° 0 min 0,000 mm 0,0 UV-I 0 W/m² 5,6 °C 5,6 °C 14,5 km/h (3 Bft)
03.11.2019 21:19 7,0 °C 90 % 991,1 hPa 0,0 mm 10,9 km/h (2 Bft) W 271 ° 0 min 0,000 mm 0,0 UV-I 0 W/m² 5,5 °C 4,9 °C 17,7 km/h (3 Bft)
03.11.2019 21:20 7,1 °C 90 % 991,1 hPa 0,0 mm 6,4 km/h (2 Bft) S-SW 197 ° 0 min 0,000 mm 0,0 UV-I 0 W/m² 5,6 °C 6,0 °C 9,7 km/h (2 Bft)
03.11.2019 21:21 7,1 °C 90 % 991,1 hPa 0,0 mm 6,8 km/h (2 Bft) W 273 ° 0 min 0,000 mm 0,0 UV-I 0 W/m² 5,6 °C 5,9 °C 9,7 km/h (2 Bft)
03.11.2019 21:22 7,1 °C 90 % 991,1 hPa 0,0 mm 5,3 km/h (1 Bft) S-SW 211 ° 0 min 0,000 mm 0,0 UV-I 0 W/m² 5,6 °C 6,4 °C 11,3 km/h (2 Bft)
03.11.2019 21:23 7,1 °C 90 % 991,1 hPa 0,0 mm 7,7 km/h (2 Bft) S 183 ° 0 min 0,000 mm 0,0 UV-I 0 W/m² 5,6 °C 5,7 °C 14,5 km/h (3 Bft)
03.11.2019 21:24 7,1 °C 90 % 991,1 hPa 0,0 mm 7,0 km/h (2 Bft) SW 236 ° 0 min 0,000 mm 0,0 UV-I 0 W/m² 5,6 °C 5,9 °C 11,3 km/h (2 Bft)
03.11.2019 21:25 7,1 °C 90 % 991,3 hPa 0,0 mm 6,7 km/h (2 Bft) S-SW 200 ° 0 min 0,000 mm 0,0 UV-I 0 W/m² 5,6 °C 5,9 °C 11,3 km/h (2 Bft)
03.11.2019 21:26 7,1 °C 90 % 991,2 hPa 0,0 mm 4,6 km/h (1 Bft) S 172 ° 0 min 0,000 mm 0,0 UV-I 0 W/m² 5,6 °C 6,6 °C 6,4 km/h (2 Bft)
03.11.2019 21:27 7,1 °C 90 % 991,3 hPa 0,0 mm 8,4 km/h (2 Bft) W 262 ° 0 min 0,000 mm 0,0 UV-I 0 W/m² 5,6 °C 5,5 °C 11,3 km/h (2 Bft)
03.11.2019 21:28 7,1 °C 90 % 991,3 hPa 0,0 mm 4,1 km/h (1 Bft) S-SW 204 ° 0 min 0,000 mm 0,0 UV-I 0 W/m² 5,6 °C 7,1 °C 6,4 km/h (2 Bft)
03.11.2019 21:29 7,1 °C 90 % 991,3 hPa 0,0 mm 7,8 km/h (2 Bft) SW 231 ° 0 min 0,000 mm 0,0 UV-I 0 W/m² 5,6 °C 5,6 °C 9,7 km/h (2 Bft)
03.11.2019 21:30 7,1 °C 90 % 991,4 hPa 0,0 mm 6,9 km/h (2 Bft) SW 234 ° 0 min 0,000 mm 0,0 UV-I 0 W/m² 5,6 °C 5,9 °C 14,5 km/h (3 Bft)
03.11.2019 21:31 7,1 °C 90 % 991,4 hPa 0,0 mm 6,6 km/h (2 Bft) S-SW 197 ° 0 min 0,000 mm 0,0 UV-I 0 W/m² 5,6 °C 6,0 °C 12,9 km/h (3 Bft)
03.11.2019 21:32 7,1 °C 90 % 991,4 hPa 0,0 mm 5,8 km/h (2 Bft) S-SW 211 ° 0 min 0,000 mm 0,0 UV-I 0 W/m² 5,6 °C 6,2 °C 9,7 km/h (2 Bft)
03.11.2019 21:33 7,1 °C 90 % 991,4 hPa 0,0 mm 4,8 km/h (1 Bft) W-SW 244 ° 0 min 0,000 mm 0,0 UV-I 0 W/m² 5,6 °C 6,5 °C 14,5 km/h (3 Bft)
03.11.2019 21:34 7,1 °C 90 % 991,4 hPa 0,0 mm 13,2 km/h (3 Bft) SW 219 ° 0 min 0,000 mm 0,0 UV-I 0 W/m² 5,6 °C 4,6 °C 17,7 km/h (3 Bft)
03.11.2019 21:35 7,1 °C 90 % 991,3 hPa 0,0 mm 7,2 km/h (2 Bft) S-SW 211 ° 0 min 0,000 mm 0,0 UV-I 0 W/m² 5,6 °C 5,8 °C 16,1 km/h (3 Bft)
03.11.2019 21:36 7,1 °C 90 % 991,4 hPa 0,0 mm 3,2 km/h (1 Bft) SW 226 ° 0 min 0,000 mm 0,0 UV-I 0 W/m² 5,6 °C 7,1 °C 4,8 km/h (1 Bft)
03.11.2019 21:37 7,2 °C 90 % 991,4 hPa 0,0 mm 4,3 km/h (1 Bft) S-SW 201 ° 0 min 0,000 mm 0,0 UV-I 0 W/m² 5,7 °C 7,2 °C 6,4 km/h (2 Bft)
03.11.2019 21:38 7,1 °C 90 % 991,4 hPa 0,0 mm 3,0 km/h (1 Bft) S-SW 207 ° 0 min 0,000 mm 0,0 UV-I 0 W/m² 5,6 °C 7,1 °C 6,4 km/h (2 Bft)
03.11.2019 21:39 7,1 °C 90 % 991,4 hPa 0,0 mm 4,1 km/h (1 Bft) S-SW 205 ° 0 min 0,000 mm 0,0 UV-I 0 W/m² 5,6 °C 7,1 °C 6,4 km/h (2 Bft)
03.11.2019 21:40 7,1 °C 90 % 991,4 hPa 0,0 mm 4,6 km/h (1 Bft) W-SW 246 ° 0 min 0,000 mm 0,0 UV-I 0 W/m² 5,6 °C 6,6 °C 14,5 km/h (3 Bft)
03.11.2019 21:41 7,2 °C 90 % 991,3 hPa 0,0 mm 2,8 km/h (1 Bft) W-SW 238 ° 0 min 0,000 mm 0,0 UV-I 0 W/m² 5,7 °C 7,2 °C 4,8 km/h (1 Bft)
03.11.2019 21:42 7,2 °C 90 % 991,3 hPa 0,0 mm 1,0 km/h (0 Bft) S-SW 197 ° 0 min 0,000 mm 0,0 UV-I 0 W/m² 5,7 °C 7,2 °C 4,8 km/h (1 Bft)
03.11.2019 21:43 7,2 °C 90 % 991,3 hPa 0,0 mm 3,0 km/h (1 Bft) S-SW 201 ° 0 min 0,000 mm 0,0 UV-I 0 W/m² 5,7 °C 7,2 °C 4,8 km/h (1 Bft)
03.11.2019 21:44 7,2 °C 90 % 991,3 hPa 0,0 mm 3,2 km/h (1 Bft) SW 227 ° 0 min 0,000 mm 0,0 UV-I 0 W/m² 5,7 °C 7,2 °C 9,7 km/h (2 Bft)
03.11.2019 21:45 7,2 °C 90 % 991,3 hPa 0,0 mm 7,4 km/h (2 Bft) S 178 ° 0 min 0,000 mm 0,0 UV-I 0 W/m² 5,7 °C 5,9 °C 11,3 km/h (2 Bft)
03.11.2019 21:46 7,1 °C 90 % 991,3 hPa 0,0 mm 5,3 km/h (1 Bft) W-SW 246 ° 0 min 0,000 mm 0,0 UV-I 0 W/m² 5,6 °C 6,4 °C 9,7 km/h (2 Bft)
03.11.2019 21:47 7,1 °C 90 % 991,3 hPa 0,0 mm 4,6 km/h (1 Bft) S 188 ° 0 min 0,000 mm 0,0 UV-I 0 W/m² 5,6 °C 6,6 °C 16,1 km/h (3 Bft)
03.11.2019 21:48 7,1 °C 90 % 991,3 hPa 0,0 mm 5,8 km/h (2 Bft) S-SW 192 ° 0 min 0,000 mm 0,0 UV-I 0 W/m² 5,6 °C 6,2 °C 12,9 km/h (3 Bft)
03.11.2019 21:49 7,2 °C 90 % 991,4 hPa 0,0 mm 4,9 km/h (1 Bft) S-SW 212 ° 0 min 0,000 mm 0,0 UV-I 0 W/m² 5,7 °C 6,6 °C 9,7 km/h (2 Bft)
03.11.2019 21:50 7,2 °C 90 % 991,4 hPa 0,0 mm 4,8 km/h (1 Bft) S-SW 193 ° 0 min 0,000 mm 0,0 UV-I 0 W/m² 5,7 °C 6,7 °C 6,4 km/h (2 Bft)
03.11.2019 21:51 7,2 °C 90 % 991,4 hPa 0,0 mm 5,9 km/h (2 Bft) W-SW 239 ° 0 min 0,000 mm 0,0 UV-I 0 W/m² 5,7 °C 6,3 °C 8,0 km/h (2 Bft)
03.11.2019 21:52 7,2 °C 90 % 991,5 hPa 0,0 mm 2,0 km/h (1 Bft) W-SW 247 ° 0 min 0,000 mm 0,0 UV-I 0 W/m² 5,7 °C 7,2 °C 4,8 km/h (1 Bft)
03.11.2019 21:53 7,2 °C 89 % 991,5 hPa 0,0 mm 4,9 km/h (1 Bft) W-SW 246 ° 0 min 0,000 mm 0,0 UV-I 0 W/m² 5,5 °C 6,6 °C 11,3 km/h (2 Bft)
03.11.2019 21:54 7,2 °C 89 % 991,4 hPa 0,0 mm 5,4 km/h (1 Bft) SW 231 ° 0 min 0,000 mm 0,0 UV-I 0 W/m² 5,5 °C 6,4 °C 11,3 km/h (2 Bft)
03.11.2019 21:55 7,2 °C 90 % 991,4 hPa 0,0 mm 5,1 km/h (1 Bft) S-SW 213 ° 0 min 0,000 mm 0,0 UV-I 0 W/m² 5,7 °C 6,5 °C 6,4 km/h (2 Bft)
03.11.2019 21:56 7,2 °C 89 % 991,5 hPa 0,0 mm 7,2 km/h (2 Bft) S 188 ° 0 min 0,000 mm 0,0 UV-I 0 W/m² 5,5 °C 5,9 °C 14,5 km/h (3 Bft)
03.11.2019 21:57 7,2 °C 89 % 991,5 hPa 0,0 mm 6,9 km/h (2 Bft) S 175 ° 0 min 0,000 mm 0,0 UV-I 0 W/m² 5,5 °C 6,0 °C 11,3 km/h (2 Bft)
03.11.2019 21:58 7,2 °C 89 % 991,4 hPa 0,0 mm 6,1 km/h (2 Bft) W-SW 256 ° 0 min 0,000 mm 0,0 UV-I 0 W/m² 5,5 °C 6,2 °C 11,3 km/h (2 Bft)
03.11.2019 21:59 7,2 °C 89 % 991,5 hPa 0,0 mm 4,2 km/h (1 Bft) S-SW 196 ° 0 min 0,000 mm 0,0 UV-I 0 W/m² 5,5 °C 7,2 °C 6,4 km/h (2 Bft)
03.11.2019 22:00 7,2 °C 89 % 991,5 hPa 0,0 mm 5,0 km/h (1 Bft) W 272 ° 0 min 0,000 mm 0,0 UV-I 0 W/m² 5,5 °C 6,6 °C 9,7 km/h (2 Bft)
03.11.2019 22:01 7,2 °C 89 % 991,5 hPa 0,0 mm 5,8 km/h (2 Bft) W-SW 250 ° 0 min 0,000 mm 0,0 UV-I 0 W/m² 5,5 °C 6,3 °C 8,0 km/h (2 Bft)
03.11.2019 22:02 7,2 °C 89 % 991,4 hPa 0,0 mm 3,4 km/h (1 Bft) W-SW 245 ° 0 min 0,000 mm 0,0 UV-I 0 W/m² 5,5 °C 7,2 °C 4,8 km/h (1 Bft)
03.11.2019 22:03 7,2 °C 89 % 991,5 hPa 0,0 mm 3,7 km/h (1 Bft) W-SW 241 ° 0 min 0,000 mm 0,0 UV-I 0 W/m² 5,5 °C 7,2 °C 4,8 km/h (1 Bft)
03.11.2019 22:04 7,2 °C 89 % 991,5 hPa 0,0 mm 5,0 km/h (1 Bft) W 269 ° 0 min 0,000 mm 0,0 UV-I 0 W/m² 5,5 °C 6,6 °C 8,0 km/h (2 Bft)
03.11.2019 22:05 7,2 °C 89 % 991,6 hPa 0,0 mm 4,3 km/h (1 Bft) S-SW 200 ° 0 min 0,000 mm 0,0 UV-I 0 W/m² 5,5 °C 7,2 °C 6,4 km/h (2 Bft)
03.11.2019 22:06 7,2 °C 89 % 991,6 hPa 0,0 mm 4,8 km/h (1 Bft) S-SW 198 ° 0 min 0,000 mm 0,0 UV-I 0 W/m² 5,5 °C 6,7 °C 9,7 km/h (2 Bft)
03.11.2019 22:07 7,2 °C 89 % 991,6 hPa 0,0 mm 6,8 km/h (2 Bft) SW 220 ° 0 min 0,000 mm 0,0 UV-I 0 W/m² 5,5 °C 6,0 °C 9,7 km/h (2 Bft)
03.11.2019 22:08 7,2 °C 89 % 991,6 hPa 0,0 mm 3,4 km/h (1 Bft) S-SW 195 ° 0 min 0,000 mm 0,0 UV-I 0 W/m² 5,5 °C 7,2 °C 8,0 km/h (2 Bft)
03.11.2019 22:09 7,2 °C 89 % 991,6 hPa 0,0 mm 6,3 km/h (2 Bft) S 189 ° 0 min 0,000 mm 0,0 UV-I 0 W/m² 5,5 °C 6,2 °C 11,3 km/h (2 Bft)
03.11.2019 22:10 7,2 °C 89 % 991,7 hPa 0,0 mm 3,4 km/h (1 Bft) SW 234 ° 0 min 0,000 mm 0,0 UV-I 0 W/m² 5,5 °C 7,2 °C 8,0 km/h (2 Bft)
03.11.2019 22:11 7,2 °C 89 % 991,7 hPa 0,0 mm 6,3 km/h (2 Bft) W-SW 246 ° 0 min 0,000 mm 0,0 UV-I 0 W/m² 5,5 °C 6,2 °C 11,3 km/h (2 Bft)
03.11.2019 22:12 7,2 °C 89 % 991,7 hPa 0,0 mm 4,4 km/h (1 Bft) S-SW 209 ° 0 min 0,000 mm 0,0 UV-I 0 W/m² 5,5 °C 7,2 °C 8,0 km/h (2 Bft)
03.11.2019 22:13 7,2 °C 89 % 991,7 hPa 0,0 mm 3,6 km/h (1 Bft) W 261 ° 0 min 0,000 mm 0,0 UV-I 0 W/m² 5,5 °C 7,2 °C 4,8 km/h (1 Bft)
03.11.2019 22:14 7,2 °C 89 % 991,8 hPa 0,0 mm 6,8 km/h (2 Bft) W-SW 246 ° 0 min 0,000 mm 0,0 UV-I 0 W/m² 5,5 °C 6,0 °C 12,9 km/h (3 Bft)
03.11.2019 22:15 7,2 °C 89 % 991,7 hPa 0,0 mm 4,7 km/h (1 Bft) W 259 ° 0 min 0,000 mm 0,0 UV-I 0 W/m² 5,5 °C 6,7 °C 6,4 km/h (2 Bft)
03.11.2019 22:16 7,2 °C 89 % 991,7 hPa 0,0 mm 5,4 km/h (1 Bft) W-SW 249 ° 0 min 0,000 mm 0,0 UV-I 0 W/m² 5,5 °C 6,4 °C 8,0 km/h (2 Bft)
03.11.2019 22:17 7,2 °C 89 % 991,8 hPa 0,0 mm 3,2 km/h (1 Bft) W 261 ° 0 min 0,000 mm 0,0 UV-I 0 W/m² 5,5 °C 7,2 °C 6,4 km/h (2 Bft)
03.11.2019 22:18 7,2 °C 89 % 991,8 hPa 0,0 mm 9,2 km/h (2 Bft) W 265 ° 0 min 0,000 mm 0,0 UV-I 0 W/m² 5,5 °C 5,4 °C 14,5 km/h (3 Bft)
03.11.2019 22:19 7,2 °C 89 % 991,8 hPa 0,0 mm 4,0 km/h (1 Bft) S-SW 194 ° 0 min 0,000 mm 0,0 UV-I 0 W/m² 5,5 °C 7,2 °C 4,8 km/h (1 Bft)
03.11.2019 22:20 7,2 °C 89 % 991,9 hPa 0,0 mm 5,1 km/h (1 Bft) W-SW 254 ° 0 min 0,000 mm 0,0 UV-I 0 W/m² 5,5 °C 6,5 °C 6,4 km/h (2 Bft)
03.11.2019 22:21 7,2 °C 89 % 991,9 hPa 0,0 mm 2,1 km/h (1 Bft) SW 231 ° 0 min 0,000 mm 0,0 UV-I 0 W/m² 5,5 °C 7,2 °C 4,8 km/h (1 Bft)
03.11.2019 22:22 7,2 °C 89 % 991,9 hPa 0,0 mm 3,6 km/h (1 Bft) SW 221 ° 0 min 0,000 mm 0,0 UV-I 0 W/m² 5,5 °C 7,2 °C 6,4 km/h (2 Bft)
03.11.2019 22:23 7,2 °C 89 % 991,9 hPa 0,0 mm 3,9 km/h (1 Bft) S-SW 208 ° 0 min 0,000 mm 0,0 UV-I 0 W/m² 5,5 °C 7,2 °C 8,0 km/h (2 Bft)
03.11.2019 22:24 7,2 °C 89 % 991,9 hPa 0,0 mm 5,2 km/h (1 Bft) S 182 ° 0 min 0,000 mm 0,0 UV-I 0 W/m² 5,5 °C 6,5 °C 9,7 km/h (2 Bft)
03.11.2019 22:25 7,2 °C 89 % 991,9 hPa 0,0 mm 5,1 km/h (1 Bft) S-SW 203 ° 0 min 0,000 mm 0,0 UV-I 0 W/m² 5,5 °C 6,5 °C 9,7 km/h (2 Bft)
03.11.2019 22:26 7,2 °C 89 % 991,9 hPa 0,0 mm 2,4 km/h (1 Bft) S-SW 205 ° 0 min 0,000 mm 0,0 UV-I 0 W/m² 5,5 °C 7,2 °C 4,8 km/h (1 Bft)
03.11.2019 22:27 7,2 °C 89 % 992,0 hPa 0,0 mm 5,0 km/h (1 Bft) S-SW 200 ° 0 min 0,000 mm 0,0 UV-I 0 W/m² 5,5 °C 6,6 °C 12,9 km/h (3 Bft)
03.11.2019 22:28 7,2 °C 89 % 991,9 hPa 0,0 mm 3,8 km/h (1 Bft) S-SW 200 ° 0 min 0,000 mm 0,0 UV-I 0 W/m² 5,5 °C 7,2 °C 8,0 km/h (2 Bft)
03.11.2019 22:29 7,2 °C 89 % 992,0 hPa 0,0 mm 5,9 km/h (2 Bft) S-SW 194 ° 0 min 0,000 mm 0,0 UV-I 0 W/m² 5,5 °C 6,3 °C 9,7 km/h (2 Bft)
03.11.2019 22:30 7,2 °C 88 % 992,0 hPa 0,0 mm 5,0 km/h (1 Bft) SW 236 ° 0 min 0,000 mm 0,0 UV-I 0 W/m² 5,3 °C 6,6 °C 8,0 km/h (2 Bft)
03.11.2019 22:31 7,2 °C 88 % 992,0 hPa 0,0 mm 6,2 km/h (2 Bft) W 263 ° 0 min 0,000 mm 0,0 UV-I 0 W/m² 5,3 °C 6,2 °C 9,7 km/h (2 Bft)
03.11.2019 22:32 7,3 °C 88 % 992,0 hPa 0,0 mm 4,0 km/h (1 Bft) W-NW 286 ° 0 min 0,000 mm 0,0 UV-I 0 W/m² 5,4 °C 7,3 °C 6,4 km/h (2 Bft)
03.11.2019 22:33 7,2 °C 88 % 992,0 hPa 0,0 mm 5,5 km/h (1 Bft) W-SW 257 ° 0 min 0,000 mm 0,0 UV-I 0 W/m² 5,3 °C 6,4 °C 11,3 km/h (2 Bft)
03.11.2019 22:34 7,2 °C 88 % 992,0 hPa 0,0 mm 7,0 km/h (2 Bft) S-SW 212 ° 0 min 0,000 mm 0,0 UV-I 0 W/m² 5,3 °C 6,0 °C 12,9 km/h (3 Bft)
03.11.2019 22:35 7,2 °C 88 % 992,0 hPa 0,0 mm 3,9 km/h (1 Bft) SW 221 ° 0 min 0,000 mm 0,0 UV-I 0 W/m² 5,3 °C 7,2 °C 4,8 km/h (1 Bft)
03.11.2019 22:36 7,3 °C 88 % 992,0 hPa 0,0 mm 4,4 km/h (1 Bft) SW 232 ° 0 min 0,000 mm 0,0 UV-I 0 W/m² 5,4 °C 7,3 °C 9,7 km/h (2 Bft)
03.11.2019 22:37 7,3 °C 88 % 992,0 hPa 0,0 mm 3,5 km/h (1 Bft) SW 225 ° 0 min 0,000 mm 0,0 UV-I 0 W/m² 5,4 °C 7,3 °C 9,7 km/h (2 Bft)
03.11.2019 22:38 7,2 °C 88 % 992,1 hPa 0,0 mm 7,6 km/h (2 Bft) W-SW 256 ° 0 min 0,000 mm 0,0 UV-I 0 W/m² 5,3 °C 5,8 °C 12,9 km/h (3 Bft)
03.11.2019 22:39 7,3 °C 88 % 992,1 hPa 0,0 mm 4,4 km/h (1 Bft) S-SW 209 ° 0 min 0,000 mm 0,0 UV-I 0 W/m² 5,4 °C 7,3 °C 6,4 km/h (2 Bft)
03.11.2019 22:40 7,3 °C 88 % 992,2 hPa 0,0 mm 5,2 km/h (1 Bft) S-SW 202 ° 0 min 0,000 mm 0,0 UV-I 0 W/m² 5,4 °C 6,6 °C 9,7 km/h (2 Bft)
03.11.2019 22:41 7,3 °C 88 % 992,2 hPa 0,0 mm 8,0 km/h (2 Bft) SW 221 ° 0 min 0,000 mm 0,0 UV-I 0 W/m² 5,4 °C 5,8 °C 12,9 km/h (3 Bft)
03.11.2019 22:42 7,3 °C 88 % 992,2 hPa 0,0 mm 5,2 km/h (1 Bft) W 276 ° 0 min 0,000 mm 0,0 UV-I 0 W/m² 5,4 °C 6,6 °C 9,7 km/h (2 Bft)
03.11.2019 22:43 7,3 °C 88 % 992,2 hPa 0,0 mm 9,1 km/h (2 Bft) SW 234 ° 0 min 0,000 mm 0,0 UV-I 0 W/m² 5,4 °C 5,6 °C 17,7 km/h (3 Bft)
03.11.2019 22:44 7,2 °C 88 % 992,2 hPa 0,0 mm 4,2 km/h (1 Bft) S-SW 208 ° 0 min 0,000 mm 0,0 UV-I 0 W/m² 5,3 °C 7,2 °C 8,0 km/h (2 Bft)
03.11.2019 22:45 7,3 °C 88 % 992,2 hPa 0,0 mm 7,1 km/h (2 Bft) SW 236 ° 0 min 0,000 mm 0,0 UV-I 0 W/m² 5,4 °C 6,1 °C 12,9 km/h (3 Bft)
03.11.2019 22:46 7,2 °C 88 % 992,2 hPa 0,0 mm 8,0 km/h (2 Bft) W 265 ° 0 min 0,000 mm 0,0 UV-I 0 W/m² 5,3 °C 5,7 °C 12,9 km/h (3 Bft)
03.11.2019 22:47 7,3 °C 88 % 992,2 hPa 0,0 mm 8,3 km/h (2 Bft) W 261 ° 0 min 0,000 mm 0,0 UV-I 0 W/m² 5,4 °C 5,8 °C 14,5 km/h (3 Bft)
03.11.2019 22:48 7,2 °C 88 % 992,2 hPa 0,0 mm 7,4 km/h (2 Bft) W-SW 258 ° 0 min 0,000 mm 0,0 UV-I 0 W/m² 5,3 °C 5,9 °C 9,7 km/h (2 Bft)
03.11.2019 22:49 7,3 °C 88 % 992,2 hPa 0,0 mm 8,8 km/h (2 Bft) W-SW 257 ° 0 min 0,000 mm 0,0 UV-I 0 W/m² 5,4 °C 5,7 °C 14,5 km/h (3 Bft)
03.11.2019 22:50 7,3 °C 88 % 992,2 hPa 0,2 mm 6,2 km/h (2 Bft) W 273 ° 0 min 0,000 mm 0,0 UV-I 0 W/m² 5,4 °C 6,3 °C 11,3 km/h (2 Bft)
03.11.2019 22:51 7,2 °C 88 % 992,2 hPa 0,0 mm 14,8 km/h (3 Bft) W 263 ° 0 min 0,000 mm 0,0 UV-I 0 W/m² 5,3 °C 4,5 °C 19,3 km/h (3 Bft)
03.11.2019 22:52 7,3 °C 88 % 992,1 hPa 0,0 mm 7,6 km/h (2 Bft) W 264 ° 0 min 0,000 mm 0,0 UV-I 0 W/m² 5,4 °C 5,9 °C 12,9 km/h (3 Bft)
03.11.2019 22:53 7,2 °C 88 % 992,1 hPa 0,0 mm 12,5 km/h (3 Bft) W-NW 282 ° 0 min 0,000 mm 0,0 UV-I 0 W/m² 5,3 °C 4,8 °C 20,9 km/h (4 Bft)
03.11.2019 22:54 7,2 °C 88 % 992,2 hPa 0,0 mm 8,3 km/h (2 Bft) W-SW 248 ° 0 min 0,000 mm 0,0 UV-I 0 W/m² 5,3 °C 5,6 °C 12,9 km/h (3 Bft)
03.11.2019 22:55 7,2 °C 88 % 992,1 hPa 0,0 mm 12,8 km/h (3 Bft) W-SW 248 ° 0 min 0,000 mm 0,0 UV-I 0 W/m² 5,3 °C 4,8 °C 17,7 km/h (3 Bft)
03.11.2019 22:56 7,3 °C 88 % 992,2 hPa 0,0 mm 6,4 km/h (2 Bft) W-SW 254 ° 0 min 0,000 mm 0,0 UV-I 0 W/m² 5,4 °C 6,3 °C 11,3 km/h (2 Bft)
03.11.2019 22:57 7,2 °C 88 % 992,2 hPa 0,0 mm 5,1 km/h (1 Bft) SW 218 ° 0 min 0,000 mm 0,0 UV-I 0 W/m² 5,3 °C 6,5 °C 9,7 km/h (2 Bft)
03.11.2019 22:58 7,2 °C 88 % 992,2 hPa 0,0 mm 8,0 km/h (2 Bft) W 279 ° 0 min 0,000 mm 0,0 UV-I 0 W/m² 5,3 °C 5,7 °C 19,3 km/h (3 Bft)
03.11.2019 22:59 7,2 °C 88 % 992,2 hPa 0,0 mm 7,8 km/h (2 Bft) W-SW 256 ° 0 min 0,000 mm 0,0 UV-I 0 W/m² 5,3 °C 5,8 °C 11,3 km/h (2 Bft)
03.11.2019 23:00 7,2 °C 88 % 992,2 hPa 0,0 mm 6,5 km/h (2 Bft) W-SW 248 ° 0 min 0,000 mm 0,0 UV-I 0 W/m² 5,3 °C 6,1 °C 8,0 km/h (2 Bft)
03.11.2019 23:01 7,2 °C 88 % 992,2 hPa 0,0 mm 8,8 km/h (2 Bft) W-SW 243 ° 0 min 0,000 mm 0,0 UV-I 0 W/m² 5,3 °C 5,5 °C 16,1 km/h (3 Bft)
03.11.2019 23:02 7,2 °C 88 % 992,2 hPa 0,0 mm 6,0 km/h (2 Bft) W-SW 243 ° 0 min 0,000 mm 0,0 UV-I 0 W/m² 5,3 °C 6,3 °C 6,4 km/h (2 Bft)
03.11.2019 23:03 7,2 °C 88 % 992,2 hPa 0,0 mm 4,0 km/h (1 Bft) SW 219 ° 0 min 0,000 mm 0,0 UV-I 0 W/m² 5,3 °C 7,2 °C 6,4 km/h (2 Bft)
03.11.2019 23:04 7,2 °C 88 % 992,2 hPa 0,0 mm 6,2 km/h (2 Bft) W-SW 242 ° 0 min 0,000 mm 0,0 UV-I 0 W/m² 5,3 °C 6,2 °C 9,7 km/h (2 Bft)
03.11.2019 23:05 7,2 °C 88 % 992,2 hPa 0,0 mm 9,5 km/h (2 Bft) SW 236 ° 0 min 0,000 mm 0,0 UV-I 0 W/m² 5,3 °C 5,4 °C 12,9 km/h (3 Bft)
03.11.2019 23:06 7,2 °C 88 % 992,2 hPa 0,0 mm 7,8 km/h (2 Bft) W 265 ° 0 min 0,000 mm 0,0 UV-I 0 W/m² 5,3 °C 5,8 °C 11,3 km/h (2 Bft)
03.11.2019 23:07 7,2 °C 88 % 992,2 hPa 0,0 mm 6,9 km/h (2 Bft) W-SW 239 ° 0 min 0,000 mm 0,0 UV-I 0 W/m² 5,3 °C 6,0 °C 12,9 km/h (3 Bft)
03.11.2019 23:08 7,2 °C 88 % 992,2 hPa 0,0 mm 5,2 km/h (1 Bft) W-SW 240 ° 0 min 0,000 mm 0,0 UV-I 0 W/m² 5,3 °C 6,5 °C 6,4 km/h (2 Bft)
03.11.2019 23:09 7,2 °C 88 % 992,2 hPa 0,0 mm 5,5 km/h (1 Bft) SW 221 ° 0 min 0,000 mm 0,0 UV-I 0 W/m² 5,3 °C 6,4 °C 8,0 km/h (2 Bft)
03.11.2019 23:10 7,1 °C 88 % 992,3 hPa 0,0 mm 5,1 km/h (1 Bft) W-NW 284 ° 0 min 0,000 mm 0,0 UV-I 0 W/m² 5,2 °C 6,4 °C 6,4 km/h (2 Bft)
03.11.2019 23:11 7,2 °C 88 % 992,2 hPa 0,0 mm 5,7 km/h (1 Bft) W 274 ° 0 min 0,000 mm 0,0 UV-I 0 W/m² 5,3 °C 6,3 °C 11,3 km/h (2 Bft)
03.11.2019 23:12 7,2 °C 88 % 992,3 hPa 0,0 mm 5,2 km/h (1 Bft) SW 219 ° 0 min 0,000 mm 0,0 UV-I 0 W/m² 5,3 °C 6,5 °C 8,0 km/h (2 Bft)
03.11.2019 23:13 7,1 °C 88 % 992,2 hPa 0,0 mm 4,9 km/h (1 Bft) W 259 ° 0 min 0,000 mm 0,0 UV-I 0 W/m² 5,2 °C 6,5 °C 8,0 km/h (2 Bft)
03.11.2019 23:14 7,1 °C 88 % 992,3 hPa 0,0 mm 4,1 km/h (1 Bft) S-SW 196 ° 0 min 0,000 mm 0,0 UV-I 0 W/m² 5,2 °C 7,1 °C 8,0 km/h (2 Bft)
03.11.2019 23:15 7,1 °C 88 % 992,3 hPa 0,0 mm 7,3 km/h (2 Bft) W-SW 256 ° 0 min 0,000 mm 0,0 UV-I 0 W/m² 5,2 °C 5,8 °C 9,7 km/h (2 Bft)
03.11.2019 23:16 7,1 °C 88 % 992,3 hPa 0,0 mm 5,9 km/h (2 Bft) W 267 ° 0 min 0,000 mm 0,0 UV-I 0 W/m² 5,2 °C 6,2 °C 17,7 km/h (3 Bft)
03.11.2019 23:17 7,1 °C 88 % 992,2 hPa 0,0 mm 6,9 km/h (2 Bft) S-SW 205 ° 0 min 0,000 mm 0,0 UV-I 0 W/m² 5,2 °C 5,9 °C 16,1 km/h (3 Bft)
03.11.2019 23:18 7,2 °C 88 % 992,3 hPa 0,0 mm 1,0 km/h (0 Bft) S-SW 205 ° 0 min 0,000 mm 0,0 UV-I 0 W/m² 5,3 °C 7,2 °C 3,2 km/h (1 Bft)
03.11.2019 23:19 7,1 °C 88 % 992,3 hPa 0,0 mm 3,9 km/h (1 Bft) SW 223 ° 0 min 0,000 mm 0,0 UV-I 0 W/m² 5,2 °C 7,1 °C 6,4 km/h (2 Bft)
03.11.2019 23:20 7,1 °C 88 % 992,3 hPa 0,0 mm 4,1 km/h (1 Bft) SW 229 ° 0 min 0,000 mm 0,0 UV-I 0 W/m² 5,2 °C 7,1 °C 8,0 km/h (2 Bft)
03.11.2019 23:21 7,1 °C 88 % 992,3 hPa 0,0 mm 4,3 km/h (1 Bft) S-SW 203 ° 0 min 0,000 mm 0,0 UV-I 0 W/m² 5,2 °C 7,1 °C 6,4 km/h (2 Bft)
03.11.2019 23:22 7,1 °C 88 % 992,3 hPa 0,0 mm 4,5 km/h (1 Bft) W-SW 246 ° 0 min 0,000 mm 0,0 UV-I 0 W/m² 5,2 °C 7,1 °C 4,8 km/h (1 Bft)
03.11.2019 23:23 7,1 °C 88 % 992,3 hPa 0,0 mm 2,5 km/h (1 Bft) W-SW 244 ° 0 min 0,000 mm 0,0 UV-I 0 W/m² 5,2 °C 7,1 °C 4,8 km/h (1 Bft)
03.11.2019 23:24 7,1 °C 88 % 992,3 hPa 0,0 mm 2,9 km/h (1 Bft) W-NW 282 ° 0 min 0,000 mm 0,0 UV-I 0 W/m² 5,2 °C 7,1 °C 12,9 km/h (3 Bft)
03.11.2019 23:25 7,1 °C 88 % 992,3 hPa 0,0 mm 5,9 km/h (2 Bft) W-SW 244 ° 0 min 0,000 mm 0,0 UV-I 0 W/m² 5,2 °C 6,2 °C 12,9 km/h (3 Bft)
03.11.2019 23:26 7,1 °C 88 % 992,3 hPa 0,0 mm 4,8 km/h (1 Bft) SW 225 ° 0 min 0,000 mm 0,0 UV-I 0 W/m² 5,2 °C 6,5 °C 4,8 km/h (1 Bft)
03.11.2019 23:27 7,1 °C 88 % 992,3 hPa 0,0 mm 5,0 km/h (1 Bft) W 259 ° 0 min 0,000 mm 0,0 UV-I 0 W/m² 5,2 °C 6,5 °C 11,3 km/h (2 Bft)
03.11.2019 23:28 7,1 °C 88 % 992,3 hPa 0,0 mm 5,6 km/h (1 Bft) SW 235 ° 0 min 0,000 mm 0,0 UV-I 0 W/m² 5,2 °C 6,3 °C 11,3 km/h (2 Bft)
03.11.2019 23:29 7,1 °C 88 % 992,3 hPa 0,0 mm 3,6 km/h (1 Bft) SW 225 ° 0 min 0,000 mm 0,0 UV-I 0 W/m² 5,2 °C 7,1 °C 6,4 km/h (2 Bft)
03.11.2019 23:30 7,2 °C 88 % 992,3 hPa 0,0 mm 2,6 km/h (1 Bft) SW 231 ° 0 min 0,000 mm 0,0 UV-I 0 W/m² 5,3 °C 7,2 °C 4,8 km/h (1 Bft)
03.11.2019 23:31 7,1 °C 88 % 992,3 hPa 0,0 mm 4,9 km/h (1 Bft) W-SW 254 ° 0 min 0,000 mm 0,0 UV-I 0 W/m² 5,2 °C 6,5 °C 6,4 km/h (2 Bft)
03.11.2019 23:32 7,1 °C 88 % 992,3 hPa 0,0 mm 4,9 km/h (1 Bft) W 270 ° 0 min 0,000 mm 0,0 UV-I 0 W/m² 5,2 °C 6,5 °C 9,7 km/h (2 Bft)
03.11.2019 23:33 7,2 °C 88 % 992,3 hPa 0,0 mm 5,2 km/h (1 Bft) SW 216 ° 0 min 0,000 mm 0,0 UV-I 0 W/m² 5,3 °C 6,5 °C 11,3 km/h (2 Bft)
03.11.2019 23:34 7,2 °C 88 % 992,3 hPa 0,0 mm 4,1 km/h (1 Bft) W 259 ° 0 min 0,000 mm 0,0 UV-I 0 W/m² 5,3 °C 7,2 °C 6,4 km/h (2 Bft)
03.11.2019 23:35 7,2 °C 88 % 992,3 hPa 0,0 mm 6,5 km/h (2 Bft) W-SW 244 ° 0 min 0,000 mm 0,0 UV-I 0 W/m² 5,3 °C 6,1 °C 9,7 km/h (2 Bft)
03.11.2019 23:36 7,2 °C 88 % 992,2 hPa 0,0 mm 4,1 km/h (1 Bft) W 279 ° 0 min 0,000 mm 0,0 UV-I 0 W/m² 5,3 °C 7,2 °C 9,7 km/h (2 Bft)
03.11.2019 23:37 7,2 °C 88 % 992,3 hPa 0,0 mm 6,6 km/h (2 Bft) W-SW 257 ° 0 min 0,000 mm 0,0 UV-I 0 W/m² 5,3 °C 6,1 °C 12,9 km/h (3 Bft)
03.11.2019 23:38 7,2 °C 88 % 992,3 hPa 0,0 mm 7,9 km/h (2 Bft) SW 216 ° 0 min 0,000 mm 0,0 UV-I 0 W/m² 5,3 °C 5,7 °C 11,3 km/h (2 Bft)
03.11.2019 23:39 7,2 °C 88 % 992,3 hPa 0,0 mm 7,6 km/h (2 Bft) W 265 ° 0 min 0,000 mm 0,0 UV-I 0 W/m² 5,3 °C 5,8 °C 14,5 km/h (3 Bft)
03.11.2019 23:40 7,2 °C 88 % 992,2 hPa 0,0 mm 4,3 km/h (1 Bft) W 261 ° 0 min 0,000 mm 0,0 UV-I 0 W/m² 5,3 °C 7,2 °C 6,4 km/h (2 Bft)
03.11.2019 23:41 7,2 °C 88 % 992,3 hPa 0,0 mm 4,4 km/h (1 Bft) W-SW 253 ° 0 min 0,000 mm 0,0 UV-I 0 W/m² 5,3 °C 7,2 °C 6,4 km/h (2 Bft)
03.11.2019 23:42 7,2 °C 88 % 992,4 hPa 0,0 mm 3,5 km/h (1 Bft) W-SW 257 ° 0 min 0,000 mm 0,0 UV-I 0 W/m² 5,3 °C 7,2 °C 6,4 km/h (2 Bft)
03.11.2019 23:43 7,2 °C 88 % 992,3 hPa 0,0 mm 3,9 km/h (1 Bft) W 264 ° 0 min 0,000 mm 0,0 UV-I 0 W/m² 5,3 °C 7,2 °C 6,4 km/h (2 Bft)
03.11.2019 23:44 7,2 °C 88 % 992,3 hPa 0,0 mm 6,8 km/h (2 Bft) W 269 ° 0 min 0,000 mm 0,0 UV-I 0 W/m² 5,3 °C 6,0 °C 11,3 km/h (2 Bft)
03.11.2019 23:45 7,2 °C 88 % 992,3 hPa 0,0 mm 5,9 km/h (2 Bft) SW 231 ° 0 min 0,000 mm 0,0 UV-I 0 W/m² 5,3 °C 6,3 °C 9,7 km/h (2 Bft)
03.11.2019 23:46 7,2 °C 88 % 992,3 hPa 0,0 mm 5,9 km/h (2 Bft) W-NW 288 ° 0 min 0,000 mm 0,0 UV-I 0 W/m² 5,3 °C 6,3 °C 11,3 km/h (2 Bft)
03.11.2019 23:47 7,2 °C 88 % 992,2 hPa 0,0 mm 6,2 km/h (2 Bft) W 275 ° 0 min 0,000 mm 0,0 UV-I 0 W/m² 5,3 °C 6,2 °C 9,7 km/h (2 Bft)
03.11.2019 23:48 7,2 °C 88 % 992,2 hPa 0,0 mm 10,8 km/h (2 Bft) S-SW 195 ° 0 min 0,000 mm 0,0 UV-I 0 W/m² 5,3 °C 5,1 °C 19,3 km/h (3 Bft)
03.11.2019 23:49 7,2 °C 88 % 992,2 hPa 0,0 mm 10,3 km/h (2 Bft) W 277 ° 0 min 0,000 mm 0,0 UV-I 0 W/m² 5,3 °C 5,2 °C 14,5 km/h (3 Bft)
03.11.2019 23:50 7,2 °C 88 % 992,3 hPa 0,0 mm 6,8 km/h (2 Bft) W-SW 243 ° 0 min 0,000 mm 0,0 UV-I 0 W/m² 5,3 °C 6,0 °C 12,9 km/h (3 Bft)
03.11.2019 23:51 7,2 °C 88 % 992,4 hPa 0,0 mm 6,2 km/h (2 Bft) S 187 ° 0 min 0,000 mm 0,0 UV-I 0 W/m² 5,3 °C 6,2 °C 8,0 km/h (2 Bft)
03.11.2019 23:52 7,2 °C 88 % 992,4 hPa 0,0 mm 5,0 km/h (1 Bft) W 264 ° 0 min 0,000 mm 0,0 UV-I 0 W/m² 5,3 °C 6,6 °C 6,4 km/h (2 Bft)
03.11.2019 23:53 7,2 °C 88 % 992,4 hPa 0,0 mm 5,2 km/h (1 Bft) SW 230 ° 0 min 0,000 mm 0,0 UV-I 0 W/m² 5,3 °C 6,5 °C 9,7 km/h (2 Bft)
03.11.2019 23:54 7,2 °C 88 % 992,5 hPa 0,0 mm 7,0 km/h (2 Bft) W-SW 246 ° 0 min 0,000 mm 0,0 UV-I 0 W/m² 5,3 °C 6,0 °C 11,3 km/h (2 Bft)
03.11.2019 23:55 7,2 °C 88 % 992,5 hPa 0,0 mm 4,0 km/h (1 Bft) S-SW 211 ° 0 min 0,000 mm 0,0 UV-I 0 W/m² 5,3 °C 7,2 °C 6,4 km/h (2 Bft)
03.11.2019 23:56 7,3 °C 88 % 992,5 hPa 0,0 mm 7,3 km/h (2 Bft) S-SW 210 ° 0 min 0,000 mm 0,0 UV-I 0 W/m² 5,4 °C 6,0 °C 12,9 km/h (3 Bft)
03.11.2019 23:57 7,3 °C 87 % 992,6 hPa 0,0 mm 5,9 km/h (2 Bft) W-SW 244 ° 0 min 0,000 mm 0,0 UV-I 0 W/m² 5,3 °C 6,4 °C 9,7 km/h (2 Bft)
03.11.2019 23:58 7,3 °C 87 % 992,6 hPa 0,0 mm 5,4 km/h (1 Bft) SW 235 ° 0 min 0,000 mm 0,0 UV-I 0 W/m² 5,3 °C 6,6 °C 11,3 km/h (2 Bft)
03.11.2019 23:59 7,3 °C 87 % 992,6 hPa 0,0 mm 6,4 km/h (2 Bft) S-SW 196 ° 0 min 0,000 mm 0,0 UV-I 0 W/m² 5,3 °C 6,3 °C 9,7 km/h (2 Bft)
_ Min-Zeit 02:41 23:59 15:59 - 17:49 - - - - - - 02:35 21:06 17:49
Minimum _ 5,6 °C 87 % 985,2 hPa - 0,0 km/h (0 Bft) - - - - - - 4,8 °C 4,0 °C 0,0 km/h (0 Bft)
_ Max-Zeit 11:41 03:35 00:05 22:50 18:59 - - 23:59 12:01 11:26 11:11 13:36 11:46 18:59
Maximum _ 10,6 °C 96 % 993,9 hPa 0,2 mm 30,3 km/h
W (5 Bft)
- - 0 min 0,076 mm 1,2 UV-I 174 W/m² 8,7 °C 10,5 °C 48,3 km/h
W (6 Bft)
Durchschnitt _ 8,4 °C 92 % 989,7 hPa #0,4 mm 4,9 km/h (1 Bft) O-NO - #0 min. #0,432 mm 0,7 UV-I 25 W/m² 7,1 °C 7,8 °C 8,0 km/h (2 Bft)